[[{"header":{"parameterUnit":"m.s-1","parameterCategory":1,"la1":30.6,"la2":29.2853,"lo1":-89.7004,"lo2":-87.6739,"dy":0.0162,"dx":0.0183,"nx":112,"ny":82,"refTime":"2024-05-26T06:00:00:Z","depth":0,"parameterNumber":2,"parameterNumberName":"U-component_of_WINDS"},"data":[0.0,0.0,0.0,0.0,0.0,0.0,0.0,0.0,0.0,0.0,0.0,0.0,0.0,0.0,0.0,0.0,0.0,0.0,0.0,0.0,0.0,0.0,0.0,0.0,0.0,0.0,0.0,0.0,0.0,0.0,0.0,0.0,0.0,0.0,0.0,0.0,0.0,0.0,0.0,0.0,0.0,0.0,0.0,0.0,0.0,0.0,0.0,0.0,0.0,0.0,0.0,0.0,0.0,0.0,0.0,0.0,0.0,0.0,0.0,0.0,0.0,0.0,0.0,0.0,0.0,0.0,0.0,0.0,0.0,0.0,0.0,0.0,0.0,0.0,0.0,0.0,0.0,0.0,0.0,0.0,0.0,0.0,0.0,0.0,0.0,0.0,0.0,0.0,0.0,0.0,-3.2358,-3.4563,-3.8496,-4.0945,-4.0862,-4.0109,-3.8077,-3.4352,0.0,0.0,0.0,0.0,0.0,0.0,0.0,0.0,0.0,0.0,0.0,0.0,0.0,0.0,0.0,0.0,0.0,0.0,0.0,0.0,0.0,0.0,0.0,0.0,0.0,0.0,0.0,0.0,0.0,0.0,0.0,0.0,0.0,0.0,0.0,0.0,0.0,0.0,0.0,0.0,0.0,0.0,0.0,0.0,0.0,0.0,0.0,0.0,0.0,0.0,0.0,0.0,0.0,0.0,0.0,0.0,0.0,0.0,0.0,0.0,0.0,0.0,0.0,0.0,0.0,0.0,0.0,0.0,0.0,0.0,0.0,0.0,0.0,0.0,0.0,0.0,0.0,0.0,0.0,0.0,0.0,0.0,0.0,0.0,0.0,0.0,0.0,0.0,0.0,0.0,0.0,0.0,0.0,0.0,0.0,0.0,0.0,0.0,0.0,0.0,0.0,0.0,0.0,0.0,-3.1677,-3.769,-4.0694,-4.2017,-4.1598,-3.9717,-3.743,-3.4841,0.0,0.0,0.0,0.0,0.0,0.0,0.0,0.0,0.0,0.0,0.0,0.0,0.0,0.0,0.0,0.0,0.0,0.0,0.0,0.0,0.0,0.0,0.0,0.0,0.0,0.0,0.0,0.0,0.0,0.0,0.0,0.0,0.0,0.0,0.0,0.0,0.0,0.0,0.0,0.0,0.0,0.0,0.0,0.0,0.0,0.0,0.0,0.0,0.0,0.0,0.0,0.0,0.0,0.0,0.0,0.0,0.0,0.0,0.0,0.0,0.0,0.0,0.0,0.0,0.0,0.0,0.0,0.0,0.0,0.0,0.0,0.0,0.0,0.0,0.0,0.0,0.0,0.0,0.0,0.0,0.0,0.0,0.0,0.0,0.0,0.0,0.0,0.0,0.0,0.0,0.0,0.0,0.0,0.0,0.0,0.0,0.0,0.0,0.0,0.0,0.0,0.0,0.0,-3.0394,-3.3073,-3.7972,-3.9715,-4.0316,-3.9725,-3.8488,-3.6599,-3.4036,-3.1513,0.0,0.0,0.0,0.0,0.0,0.0,0.0,0.0,0.0,0.0,0.0,0.0,0.0,0.0,0.0,0.0,0.0,0.0,0.0,0.0,0.0,0.0,0.0,0.0,0.0,0.0,0.0,0.0,0.0,0.0,0.0,0.0,0.0,0.0,0.0,0.0,0.0,0.0,0.0,0.0,0.0,0.0,0.0,0.0,0.0,0.0,0.0,0.0,0.0,0.0,0.0,0.0,0.0,0.0,0.0,0.0,0.0,0.0,0.0,0.0,0.0,0.0,0.0,0.0,0.0,0.0,0.0,0.0,0.0,0.0,0.0,0.0,0.0,0.0,0.0,0.0,0.0,0.0,0.0,0.0,0.0,0.0,0.0,0.0,0.0,0.0,0.0,0.0,0.0,0.0,0.0,0.0,0.0,0.0,0.0,0.0,0.0,0.0,0.0,0.0,0.0,0.0,-3.337,-3.4977,-3.7902,-3.873,-3.8781,-3.8065,-3.7149,-3.5542,-3.3031,-3.0018,0.0,0.0,0.0,0.0,0.0,0.0,0.0,0.0,0.0,0.0,0.0,0.0,0.0,0.0,0.0,0.0,0.0,0.0,0.0,0.0,0.0,0.0,0.0,0.0,0.0,0.0,0.0,0.0,0.0,0.0,0.0,0.0,0.0,0.0,0.0,0.0,0.0,0.0,0.0,0.0,0.0,0.0,0.0,0.0,0.0,0.0,0.0,0.0,0.0,0.0,0.0,0.0,0.0,0.0,0.0,0.0,0.0,0.0,0.0,0.0,0.0,0.0,0.0,0.0,0.0,0.0,0.0,0.0,0.0,0.0,0.0,0.0,0.0,0.0,0.0,0.0,0.0,0.0,0.0,0.0,0.0,0.0,0.0,0.0,0.0,0.0,0.0,0.0,0.0,0.0,0.0,0.0,0.0,0.0,0.0,0.0,0.0,0.0,0.0,0.0,0.0,0.0,-3.4236,-3.6847,-3.868,-3.9308,-3.9195,-3.8103,-3.6094,-3.4148,-3.2378,-2.8725,0.0,0.0,0.0,0.0,0.0,0.0,0.0,0.0,0.0,0.0,0.0,0.0,0.0,0.0,0.0,0.0,0.0,0.0,0.0,0.0,0.0,0.0,0.0,0.0,0.0,0.0,0.0,0.0,0.0,0.0,0.0,0.0,0.0,0.0,0.0,0.0,0.0,0.0,0.0,0.0,0.0,0.0,0.0,0.0,0.0,0.0,0.0,0.0,0.0,0.0,0.0,0.0,0.0,0.0,0.0,0.0,0.0,0.0,0.0,0.0,0.0,0.0,0.0,0.0,0.0,0.0,0.0,0.0,0.0,0.0,0.0,0.0,0.0,0.0,0.0,0.0,0.0,0.0,0.0,0.0,0.0,0.0,0.0,0.0,0.0,0.0,0.0,0.0,0.0,0.0,0.0,0.0,0.0,0.0,0.0,0.0,0.0,0.0,0.0,0.0,0.0,0.0,-3.4179,-3.6634,0.0,-3.9371,-3.9233,-3.8103,-3.6935,-3.5102,-3.2378,0.0,0.0,0.0,0.0,0.0,0.0,0.0,0.0,0.0,0.0,0.0,0.0,0.0,0.0,0.0,0.0,0.0,0.0,0.0,0.0,0.0,0.0,0.0,0.0,0.0,0.0,0.0,0.0,0.0,0.0,0.0,0.0,0.0,0.0,0.0,0.0,0.0,0.0,0.0,0.0,0.0,0.0,0.0,0.0,0.0,0.0,0.0,0.0,0.0,0.0,0.0,0.0,0.0,0.0,0.0,0.0,0.0,0.0,0.0,0.0,0.0,0.0,0.0,0.0,0.0,0.0,0.0,0.0,0.0,0.0,0.0,0.0,0.0,0.0,0.0,0.0,0.0,0.0,0.0,0.0,0.0,0.0,0.0,0.0,0.0,0.0,0.0,0.0,0.0,0.0,0.0,0.0,0.0,0.0,0.0,0.0,0.0,0.0,0.0,0.0,0.0,0.0,-3.2089,-3.4587,-3.6847,0.0,-3.9471,-3.9233,-3.8103,-3.7023,-3.5064,-3.1901,0.0,0.0,0.0,0.0,0.0,0.0,0.0,0.0,0.0,0.0,0.0,0.0,0.0,0.0,0.0,0.0,0.0,0.0,0.0,0.0,0.0,0.0,0.0,0.0,0.0,0.0,0.0,0.0,0.0,0.0,0.0,0.0,0.0,0.0,0.0,0.0,0.0,0.0,0.0,0.0,0.0,0.0,0.0,0.0,0.0,0.0,0.0,0.0,0.0,0.0,0.0,0.0,0.0,0.0,0.0,0.0,0.0,0.0,0.0,0.0,0.0,0.0,0.0,0.0,0.0,0.0,0.0,0.0,0.0,0.0,0.0,0.0,0.0,0.0,0.0,0.0,0.0,0.0,0.0,0.0,0.0,0.0,0.0,0.0,0.0,0.0,0.0,0.0,0.0,0.0,0.0,0.0,0.0,0.0,0.0,0.0,0.0,0.0,0.0,0.0,0.0,0.0,-3.2717,-3.5479,-3.7839,-3.9521,-3.9697,-3.9233,-3.8103,-3.6006,-3.3558,0.0,0.0,0.0,0.0,0.0,0.0,0.0,0.0,0.0,0.0,0.0,0.0,0.0,0.0,0.0,0.0,0.0,0.0,0.0,0.0,0.0,0.0,0.0,0.0,0.0,0.0,0.0,0.0,0.0,0.0,0.0,0.0,0.0,0.0,0.0,0.0,0.0,0.0,0.0,0.0,0.0,0.0,0.0,0.0,0.0,0.0,0.0,0.0,0.0,0.0,0.0,0.0,0.0,0.0,0.0,0.0,0.0,0.0,0.0,0.0,0.0,0.0,0.0,0.0,0.0,0.0,0.0,0.0,0.0,0.0,0.0,0.0,0.0,0.0,0.0,0.0,0.0,0.0,0.0,0.0,0.0,0.0,0.0,0.0,0.0,0.0,0.0,0.0,0.0,0.0,0.0,0.0,0.0,0.0,0.0,0.0,0.0,0.0,0.0,0.0,0.0,0.0,0.0,-3.2717,-3.5818,-3.8253,-3.9559,-3.9697,-3.9233,-3.8103,-3.6697,-3.4374,-3.0834,0.0,0.0,0.0,0.0,0.0,0.0,0.0,0.0,0.0,0.0,0.0,0.0,0.0,0.0,0.0,0.0,0.0,0.0,0.0,0.0,0.0,0.0,0.0,0.0,0.0,0.0,0.0,0.0,0.0,0.0,0.0,0.0,0.0,0.0,0.0,0.0,0.0,0.0,0.0,0.0,0.0,0.0,0.0,0.0,0.0,0.0,0.0,0.0,0.0,0.0,0.0,0.0,0.0,0.0,0.0,0.0,0.0,0.0,0.0,0.0,0.0,0.0,0.0,0.0,0.0,0.0,0.0,0.0,0.0,0.0,0.0,0.0,0.0,0.0,0.0,0.0,0.0,0.0,0.0,0.0,0.0,0.0,0.0,0.0,0.0,0.0,0.0,0.0,0.0,0.0,0.0,0.0,0.0,0.0,0.0,0.0,0.0,0.0,0.0,0.0,0.0,0.0,-3.2797,-3.5956,-3.8442,-3.9572,-3.9697,-3.9233,-3.8103,-3.6998,-3.4846,-3.1148,0.0,0.0,0.0,0.0,0.0,0.0,0.0,0.0,0.0,0.0,0.0,0.0,0.0,0.0,0.0,0.0,0.0,0.0,0.0,0.0,0.0,0.0,0.0,0.0,0.0,0.0,0.0,0.0,0.0,0.0,0.0,0.0,0.0,0.0,0.0,0.0,0.0,0.0,0.0,0.0,0.0,0.0,0.0,0.0,0.0,0.0,0.0,0.0,0.0,0.0,0.0,0.0,0.0,0.0,0.0,0.0,0.0,0.0,0.0,0.0,0.0,0.0,0.0,0.0,0.0,0.0,0.0,0.0,0.0,0.0,0.0,0.0,0.0,0.0,0.0,0.0,0.0,0.0,0.0,0.0,0.0,0.0,0.0,0.0,0.0,0.0,0.0,0.0,0.0,0.0,0.0,0.0,0.0,0.0,0.0,0.0,0.0,0.0,0.0,0.0,0.0,0.0,-3.2898,-3.5994,-3.8442,-3.9572,-3.9697,-3.9258,-3.8178,-3.7073,-3.506,-3.1675,0.0,0.0,0.0,0.0,0.0,0.0,0.0,0.0,0.0,0.0,0.0,0.0,0.0,0.0,0.0,0.0,0.0,0.0,0.0,0.0,0.0,0.0,0.0,0.0,0.0,0.0,0.0,0.0,0.0,0.0,0.0,0.0,0.0,0.0,0.0,0.0,0.0,0.0,0.0,0.0,0.0,0.0,0.0,0.0,0.0,0.0,0.0,0.0,0.0,0.0,0.0,0.0,0.0,0.0,0.0,0.0,0.0,0.0,0.0,0.0,-2.6924,-2.5784,0.0,0.0,0.0,0.0,0.0,0.0,0.0,0.0,0.0,0.0,0.0,0.0,0.0,0.0,0.0,0.0,0.0,0.0,0.0,0.0,0.0,0.0,0.0,0.0,0.0,0.0,0.0,0.0,0.0,0.0,0.0,0.0,0.0,0.0,0.0,0.0,0.0,0.0,0.0,0.0,-3.3319,-3.6232,-3.8442,-3.9572,-3.9697,-3.9421,-3.8743,-3.7663,-3.5592,-3.2252,-2.9967,0.0,0.0,0.0,0.0,0.0,0.0,0.0,0.0,0.0,0.0,0.0,0.0,0.0,0.0,0.0,0.0,0.0,0.0,0.0,0.0,0.0,0.0,0.0,0.0,0.0,0.0,0.0,0.0,0.0,0.0,0.0,0.0,0.0,0.0,0.0,0.0,0.0,0.0,0.0,0.0,0.0,0.0,0.0,0.0,0.0,0.0,0.0,0.0,0.0,0.0,0.0,0.0,0.0,0.0,0.0,0.0,0.0,0.0,0.0,-2.9202,-2.8168,0.0,0.0,0.0,0.0,0.0,0.0,0.0,0.0,0.0,0.0,0.0,0.0,0.0,0.0,0.0,0.0,0.0,0.0,0.0,0.0,0.0,0.0,0.0,0.0,0.0,0.0,0.0,0.0,0.0,0.0,0.0,0.0,0.0,0.0,0.0,0.0,0.0,0.0,0.0,0.0,-3.3545,-3.6307,-3.8442,-3.9572,-3.9697,-3.9471,-3.8969,-3.7839,-3.6219,-3.3916,-3.1207,0.0,0.0,0.0,0.0,0.0,0.0,0.0,0.0,0.0,0.0,0.0,0.0,0.0,0.0,0.0,0.0,0.0,0.0,0.0,0.0,0.0,0.0,0.0,0.0,0.0,0.0,0.0,0.0,0.0,0.0,0.0,0.0,0.0,0.0,0.0,0.0,0.0,0.0,0.0,0.0,0.0,0.0,0.0,0.0,0.0,0.0,0.0,0.0,0.0,0.0,0.0,0.0,0.0,-3.6498,-3.6338,-3.58,-3.5256,-3.4831,-3.4349,-3.2064,-3.1361,-3.17,-3.0143,0.0,0.0,0.0,0.0,0.0,0.0,0.0,0.0,0.0,0.0,0.0,0.0,0.0,0.0,0.0,0.0,0.0,0.0,0.0,0.0,0.0,0.0,-2.8499,-2.9609,-3.015,-2.9826,-2.7626,0.0,0.0,0.0,0.0,0.0,0.0,0.0,0.0,0.0,0.0,0.0,-3.3897,-3.6508,-3.8555,-3.9584,-3.9697,-3.9509,-3.9108,-3.7977,-3.686,-3.5721,-3.2767,-3.0532,0.0,0.0,0.0,0.0,0.0,0.0,0.0,0.0,0.0,0.0,0.0,0.0,0.0,0.0,0.0,0.0,0.0,0.0,0.0,0.0,0.0,0.0,0.0,0.0,0.0,0.0,0.0,0.0,0.0,0.0,0.0,0.0,-2.405,-2.4348,0.0,0.0,0.0,0.0,0.0,0.0,0.0,0.0,0.0,0.0,0.0,0.0,0.0,-3.4966,-3.5948,-3.8974,-4.0061,-3.9228,-4.0397,-3.9887,-3.7883,-3.7785,-3.7397,-3.6722,-3.637,0.0,-3.347,-3.2277,0.0,0.0,0.0,0.0,0.0,0.0,0.0,0.0,0.0,0.0,0.0,0.0,0.0,0.0,0.0,0.0,0.0,0.0,0.0,0.0,0.0,0.0,-3.0579,-3.0653,-3.0842,-3.1047,-3.1334,-2.9746,-2.8035,-2.7447,-2.6871,-2.6537,0.0,0.0,0.0,0.0,0.0,0.0,-3.4994,-3.7337,-3.8994,-3.9622,-3.9697,-3.9659,-3.9597,-3.8555,-3.7437,-3.637,-3.406,-3.2252,-3.111,-2.8486,0.0,0.0,0.0,0.0,0.0,0.0,0.0,0.0,0.0,0.0,0.0,0.0,0.0,0.0,0.0,0.0,0.0,0.0,0.0,0.0,0.0,0.0,0.0,0.0,0.0,0.0,0.0,0.0,0.0,-2.3605,-2.5756,-2.6841,-2.7416,-2.737,0.0,0.0,0.0,0.0,0.0,0.0,0.0,0.0,0.0,-3.4633,-3.7002,-3.8525,-3.9048,-4.171,-4.2803,-4.2349,-4.2963,-4.2722,-4.1674,-4.0656,-3.9979,-3.962,-3.893,-3.7864,-3.6584,-3.5152,-3.3771,-3.2453,0.0,0.0,0.0,0.0,-3.0696,-3.111,-3.2591,-3.3106,-3.2895,-3.1461,0.0,0.0,0.0,0.0,0.0,0.0,0.0,-2.7686,-2.8849,-2.9497,-3.0147,-3.1379,-3.1976,-3.2466,-3.3371,-3.3032,-3.2211,-3.0968,-3.0943,-3.0482,-2.8549,-2.8323,0.0,0.0,0.0,-3.3847,-3.5755,-3.7676,-3.9082,-3.9634,-3.9697,-3.9572,-3.9258,-3.8479,-3.7676,-3.6897,-3.5064,-3.3646,-3.2842,-3.0733,-2.8888,0.0,0.0,0.0,0.0,0.0,0.0,0.0,0.0,0.0,0.0,0.0,0.0,0.0,0.0,0.0,0.0,0.0,0.0,0.0,0.0,0.0,0.0,0.0,0.0,0.0,0.0,0.0,0.0,-2.5663,-2.7638,-2.9391,-2.9758,-2.9578,0.0,0.0,0.0,0.0,0.0,0.0,-3.4139,-3.5395,-3.6601,-3.7763,-4.0292,-4.1678,-4.1838,-4.3974,-4.508,-4.5095,-4.5126,-4.4979,-4.4622,-4.2869,-4.1936,-4.1555,-4.0275,-3.9459,-3.8969,-3.7437,-3.6157,-3.5039,-3.4085,-3.3357,-3.293,-3.3495,-3.3796,-3.4218,-3.6003,-3.6619,-3.6206,-3.3885,-3.2594,-3.1344,-2.8244,0.0,0.0,0.0,0.0,-2.7909,-2.9881,-3.0112,-3.0333,-3.263,-3.3698,-3.4405,-3.5185,-3.6115,-3.618,-3.4061,-3.4325,-3.3966,-3.1082,-3.117,0.0,-3.1298,-3.3244,-3.5228,-3.6656,-3.8128,-3.9245,-3.9647,-3.9697,-3.9471,-3.8969,-3.8341,-3.7764,-3.7211,-3.5768,-3.4643,-3.4135,-3.2641,-3.0846,-2.8787,0.0,0.0,0.0,0.0,0.0,0.0,0.0,0.0,0.0,0.0,0.0,0.0,0.0,0.0,0.0,0.0,0.0,0.0,0.0,0.0,0.0,0.0,0.0,0.0,0.0,0.0,0.0,0.0,0.0,-3.2123,-3.2871,0.0,0.0,0.0,0.0,-3.382,-3.5024,-3.619,-3.7216,-3.8489,-3.9647,-4.0743,-4.261,-4.3806,-4.4398,-4.6238,-4.716,-4.716,-4.7133,-4.6535,-4.5314,-4.4008,-4.2738,-4.1555,-4.0275,-3.9672,-3.9559,-3.8404,-3.7274,-3.6267,-3.5596,-3.5044,-3.4618,-3.5169,-3.5742,-3.6329,-3.6923,-3.7149,-3.7092,-3.663,-3.4456,-3.1945,-3.1773,-2.9854,0.0,0.0,-2.8774,-2.8777,-3.1119,-3.1965,-3.2704,-3.4692,-3.6248,-3.7293,-3.7323,-3.8521,-3.8649,-3.5653,-3.5279,-3.5395,-3.5194,0.0,-3.4643,-3.5132,-3.6257,-3.7236,-3.7839,-3.8931,-3.9659,-3.9697,-3.9697,-3.9471,-3.8969,-3.8341,-3.7764,-3.7211,-3.6132,-3.5207,-3.4655,-3.3596,-3.2202,-3.052,-2.8323,0.0,0.0,0.0,0.0,0.0,0.0,0.0,0.0,0.0,0.0,0.0,0.0,0.0,0.0,0.0,0.0,0.0,0.0,0.0,0.0,0.0,0.0,0.0,0.0,0.0,0.0,0.0,0.0,-3.4233,-3.537,0.0,-3.5684,-3.6447,-3.7282,-3.8121,-3.941,-4.0633,-4.1818,-4.2714,-4.3549,-4.4383,-4.546,-4.6134,-4.6342,-4.7001,-4.7519,-4.7938,-4.7938,-4.7911,-4.7834,-4.5627,-4.4419,-4.3877,-4.1685,-4.0551,-4.0187,-3.9785,-3.9182,-3.8454,-3.7902,-3.7563,-3.7412,-3.7613,-3.7814,-3.8102,-3.8605,-3.8199,-3.7008,-3.4676,-3.2372,-3.0468,-3.0468,-2.9766,-2.9106,-2.9694,-3.0403,-3.1206,-3.2316,-3.3469,-3.4681,-3.6333,-3.7145,-3.7743,-3.8687,-3.9349,-3.9406,-3.831,-3.7879,-3.7349,-3.6257,-3.6207,-3.6257,-3.6072,-3.7023,-3.7914,-3.8492,-3.9233,-3.9697,-3.9697,-3.9697,-3.932,-3.8391,-3.8128,-3.7462,-3.6207,-3.5708,-3.5094,-3.4223,-3.347,-3.2453,-3.1135,-2.9289,-2.7243,0.0,0.0,0.0,0.0,0.0,0.0,0.0,0.0,0.0,0.0,0.0,0.0,0.0,0.0,0.0,0.0,0.0,0.0,0.0,0.0,0.0,0.0,0.0,0.0,0.0,0.0,-3.4173,-3.5938,-3.73,-3.8167,-3.8392,-3.9424,-4.0531,-4.1639,-4.2731,-4.3838,-4.493,-4.5618,-4.6187,-4.6636,-4.707,-4.7414,-4.7638,-4.7638,-4.7967,-4.8626,-4.8626,-4.8641,-4.8512,-4.629,-4.5051,-4.4465,-4.2277,-4.1075,-4.0802,-4.0802,-4.0576,-4.0174,-3.9433,-3.9145,-3.9145,-3.9145,-3.8865,-3.8428,-3.8251,-3.7252,-3.5647,-3.3358,-3.1442,-3.0019,-3.0019,-3.0019,-3.0078,-3.0351,-3.1521,-3.279,-3.3602,-3.4958,-3.6433,-3.7914,-3.8243,-3.8518,-3.9465,-3.9697,-3.9697,-3.9697,-3.9396,-3.8844,-3.7676,-3.7789,-3.7914,-3.7575,-3.8115,-3.8718,-3.9094,-3.9471,-3.9697,-3.9697,-3.9697,-3.9233,-3.8103,-3.7839,-3.7098,-3.5596,-3.5157,-3.4575,-3.3658,-3.3081,-3.2265,-3.1148,-2.9315,-2.7457,-2.5586,0.0,0.0,0.0,0.0,0.0,0.0,0.0,0.0,0.0,0.0,0.0,0.0,0.0,0.0,0.0,0.0,0.0,0.0,0.0,0.0,0.0,0.0,0.0,-3.1496,-3.3887,-3.6073,-3.7345,-3.8706,-3.9798,-4.0457,-4.1145,-4.2327,-4.4227,-4.499,-4.5648,-4.6322,-4.6965,-4.7309,-4.7339,-4.7339,-4.7653,-4.8312,-4.8312,-4.8656,-4.9344,-4.9299,-4.8557,-4.7238,-4.5895,-4.4569,-4.3178,-4.1889,-4.1326,-4.1313,-4.1313,-4.13,-4.1175,-4.0149,-3.9722,-3.9658,-3.9645,-3.8687,-3.724,-3.5727,-3.4292,-3.3077,-3.3077,-3.2035,-3.0889,-3.0889,-3.0889,-3.0889,-3.0947,-3.2045,-3.3519,-3.5013,-3.6433,-3.7914,-3.9362,-3.9697,-3.9697,-3.9697,-3.9697,-3.9697,-3.9697,-3.9697,-3.9697,-3.9697,-3.9697,-3.9697,-3.9697,-3.9697,0.0,-3.9697,-3.9697,-3.9697,-3.9697,-3.9697,-3.9233,-3.8103,-3.75,-3.6697,-3.552,-3.4474,-3.3621,-3.3068,-3.2491,-3.1687,-3.0633,-2.8461,-2.6779,-2.5615,0.0,0.0,0.0,0.0,0.0,0.0,0.0,0.0,0.0,0.0,0.0,0.0,0.0,0.0,0.0,0.0,0.0,0.0,0.0,0.0,0.0,0.0,-3.2901,-3.3574,-3.5938,-3.8093,-3.9424,-4.116,-4.2467,-4.3165,-4.4287,-4.5185,-4.5696,-4.6381,-4.683,-4.7025,-4.7204,-4.7519,-4.7997,-4.8012,-4.8341,-4.903,-4.9045,-4.9329,-4.9927,-4.8972,-4.8547,-4.8594,-4.6151,-4.4877,-4.4414,-4.3089,-4.2296,-4.1932,-4.1932,-4.1693,-4.1213,-4.0563,-3.9618,-3.8657,-3.827,-3.7145,-3.5672,-3.4236,-3.3462,-3.2907,-3.1883,-3.1218,-3.0889,-3.0889,-3.0889,-3.1112,-3.2207,-3.3586,-3.5013,-3.6487,-3.7979,-3.9193,-3.9581,-3.9697,-3.9697,-3.9697,-3.9697,-3.9697,-3.9697,-3.9697,-3.9697,-3.9697,-3.9697,-3.9697,-3.9697,-3.9697,-3.9697,-3.9697,-3.9697,-3.9697,-3.9697,-3.9697,-3.9233,-3.8103,-3.75,-3.637,-3.4474,-3.3696,-3.3043,-3.2466,-3.1913,-3.1298,-3.0593,-2.9202,-2.7507,0.0,0.0,0.0,0.0,0.0,0.0,0.0,0.0,0.0,0.0,0.0,0.0,0.0,0.0,0.0,0.0,0.0,0.0,0.0,0.0,0.0,0.0,-3.3425,-3.5474,-3.6417,-3.8093,-3.9828,-4.1444,-4.2841,-4.4082,-4.5065,-4.5816,-4.6441,-4.6711,-4.7085,-4.7309,-4.7309,-4.7563,-4.7893,-4.8282,-4.8551,-4.9015,-4.9673,-4.9673,-4.9697,-4.9775,-4.8967,-4.8198,-4.7402,-4.5767,-4.4684,-4.4113,-4.3338,-4.2798,-4.2552,-4.2552,-4.1953,-4.0961,0.0,0.0,0.0,0.0,-3.5112,-3.4191,-3.2701,-3.2207,-3.2035,-3.117,-3.0889,-3.0889,-3.0889,-3.1334,-3.1988,-3.2861,-3.4615,-3.6433,-3.7305,-3.857,-3.9697,-3.9697,-3.9697,-3.9697,-3.9697,-3.9697,-3.9697,-3.9697,-3.9697,0.0,-3.9697,-3.9697,-3.9697,-3.9697,-3.9697,-3.9697,-3.9697,-3.9697,-3.9697,-3.9697,-3.9697,-3.9333,-3.8442,-3.7638,0.0,0.0,0.0,-3.2717,-3.1901,-3.1562,0.0,0.0,0.0,0.0,0.0,0.0,0.0,0.0,-2.6552,-2.7105,0.0,0.0,0.0,0.0,0.0,0.0,0.0,0.0,0.0,0.0,0.0,0.0,0.0,0.0,0.0,0.0,-3.5968,-3.8138,-3.9544,-4.0322,-4.1384,-4.308,-4.3947,-4.493,-4.616,-4.6396,-4.6681,-4.7264,-4.7309,-4.7339,-4.7414,0.0,0.0,0.0,0.0,-4.9384,-4.9838,-4.9838,-4.9571,-4.895,-4.8802,-4.7402,-4.4994,-4.4833,-4.4113,-4.2974,-4.2974,-4.2918,-4.2737,-4.2737,-4.1659,-3.9953,-3.8911,-3.8219,-3.7484,-3.4149,-3.2934,-3.2706,-3.1344,0.0,0.0,-3.0889,-3.1005,-3.117,-3.117,-3.215,-3.335,-3.3564,-3.5485,-3.7518,-3.769,-3.8739,-3.9697,-3.9697,-3.9697,-3.9697,-3.9697,-3.9697,-3.9697,-3.9697,-3.9697,-3.9697,-3.9697,-3.9697,-3.9697,-3.9697,-3.9697,-3.9697,-3.9697,-3.9697,-3.9697,-3.9697,-3.9697,0.0,-3.8969,-3.7889,-3.6784,-3.5571,-3.4048,-3.2717,-3.1712,-3.1738,-3.1738,-3.1675,-3.1675,-3.1834,-3.2134,-3.1234,-3.1009,-3.1427,-2.9272,-2.9704,0.0,0.0,0.0,0.0,0.0,0.0,0.0,0.0,0.0,0.0,0.0,0.0,0.0,0.0,0.0,-3.5564,-3.7659,-3.9679,-4.1572,-4.2357,-4.2871,-4.3245,-4.4392,-4.5424,-4.6204,-4.68,-4.7174,-4.7294,-4.7309,-4.7534,-4.8072,-4.8222,-4.8282,-4.8217,-4.8329,-4.8181,-4.769,-4.769,-4.7645,-4.7517,-4.6331,0.0,-4.4941,-4.3852,-4.324,-4.2974,-4.2974,-4.2263,-4.1064,-4.1064,-3.9335,-3.6645,-3.6145,-3.558,-3.4885,-3.2618,-3.1781,-3.1732,-3.1113,-3.0889,-3.0889,-3.0889,-3.171,-3.269,-3.269,-3.3687,0.0,-3.6314,-3.7079,-3.7796,-3.8973,-3.9478,-3.9697,-3.9697,-3.9697,-3.9697,-3.9697,-3.9697,-3.9697,-3.9697,-3.9697,-3.9697,-3.9697,-3.9697,-3.9697,-3.9697,-3.9697,-3.9697,-3.9697,-3.9697,-3.9697,-3.9697,-3.9697,-3.9471,-3.8969,-3.8241,-3.7186,-3.5596,-3.4412,-3.3646,-3.342,-3.3847,-3.3872,-3.342,-3.342,-3.2785,-3.1544,-3.1756,-3.1872,-3.2034,-3.1165,-3.1253,0.0,0.0,0.0,0.0,0.0,0.0,0.0,0.0,0.0,0.0,0.0,-3.0866,0.0,0.0,-3.5639,-3.7629,-3.905,-4.0487,-4.2171,-4.321,-4.3902,-4.4272,-4.52,-4.6067,-4.6756,-4.7115,-4.7019,-4.6403,-4.6344,-4.634,-4.631,-4.6641,-4.69,-4.713,-4.7454,-4.7463,-4.7094,-4.7094,-4.6733,-4.6017,-4.5356,-4.463,-4.3962,-4.3283,-4.2974,-4.2974,-4.2974,-4.2081,-4.0476,-3.8853,-3.7243,-3.5724,-3.4667,-3.4024,-3.3468,-3.2284,-3.1846,-3.1787,-3.1357,-3.17,-3.2271,-3.2058,-3.2975,-3.4181,-3.4181,-3.5222,-3.6541,-3.7305,-3.8019,-3.8792,-3.953,-3.9697,-3.9697,-3.9697,-3.9697,-3.9697,-3.9697,-3.9697,-3.9697,-3.9697,-3.9697,-3.9697,-3.9697,-3.9697,-3.9697,-3.9697,-3.9697,-3.9697,-3.9697,-3.9697,-3.9697,-3.9697,-3.9697,-3.9584,-3.9308,-3.8504,-3.7412,-3.6044,-3.5177,-3.46,-3.4324,-3.4575,-3.4587,-3.4324,-3.4311,-3.403,-3.3453,-3.3689,-3.3946,-3.4296,-3.4026,-3.3903,0.0,0.0,0.0,0.0,0.0,0.0,0.0,0.0,-2.9022,-3.0625,-3.2183,-3.3649,-3.4831,-3.6148,-3.7614,-3.9334,-4.0277,-4.1235,-4.259,-4.3748,-4.4751,-4.5409,-4.5978,-4.6576,-4.7234,-4.7309,-4.6785,-4.5494,-4.5518,-4.5235,-4.4539,-4.5098,-4.5605,-4.5905,-4.6384,-4.6591,-4.6331,-4.6279,-4.5714,-4.463,-4.463,-4.4071,-4.2974,-4.2974,-4.2974,-4.2974,-4.2319,-4.1121,-3.9452,-3.6517,-3.5324,-3.5201,-3.3902,-3.3213,-3.2861,-3.2441,-3.2285,-3.2278,-3.2038,-3.2685,-3.3676,-3.3554,-3.4515,-3.5727,-3.5727,-3.6769,-3.7914,-3.7914,-3.8792,-3.9697,-3.9697,-3.9697,-3.9697,-3.9697,-3.9697,-3.9697,-3.9697,-3.9697,-3.9697,-3.9697,-3.9697,-3.9697,-3.9697,-3.9697,-3.9697,-3.9697,-3.9697,-3.9697,-3.9697,-3.9697,-3.9697,-3.9697,-3.9697,-3.9697,-3.9697,-3.8755,-3.7789,-3.6958,-3.6332,-3.5734,-3.5228,-3.5203,-3.5152,-3.5039,-3.5039,-3.5265,-3.5658,-3.5658,-3.5931,-3.6405,-3.6518,-3.6282,-2.4746,-2.4918,-2.5929,-2.7709,-2.7814,-2.8543,0.0,0.0,-3.2677,-3.5205,-3.5893,-3.6252,-3.6956,-3.8182,-3.9349,-4.0157,-4.1324,-4.2635,-4.3913,-4.4721,-4.5439,-4.6127,-4.6234,-4.6576,-4.7234,-4.7309,-4.6785,-4.5494,-4.5815,-4.5827,-4.521,-4.5719,-4.5714,-4.513,-4.5222,-4.4684,-4.3449,-4.3449,-4.3394,-4.324,-4.324,-4.3129,-4.2974,-4.2974,-4.2974,-4.2849,-4.0001,-3.7843,-3.6223,-3.4435,-3.366,-3.366,-3.3481,-3.3389,-3.3301,-3.2881,-3.2725,-3.2782,-3.3323,-3.3576,-3.3838,-3.478,-3.6054,-3.7252,-3.7252,-3.8295,-3.9465,-3.9465,-3.9581,-3.9697,-3.9697,-3.9697,-3.9697,-3.9697,-3.9697,-3.9697,-3.9697,-3.9697,-3.9697,-3.9697,-3.9697,-3.9697,-3.9697,-3.9697,-3.9697,-3.9697,-3.9697,-3.9697,-3.9697,-3.9697,-3.9697,-3.9697,-3.9697,-3.9697,-3.9697,-3.9132,-3.8768,-3.8642,-3.8052,-3.7487,-3.6923,-3.691,-3.6684,-3.6229,-3.6229,-3.6254,-3.6317,-3.6317,-3.6342,-3.6417,-3.6908,-3.7061,-2.7976,-2.8506,0.0,0.0,-3.0956,-3.2032,-3.3575,-3.4083,-3.4681,-3.6178,-3.7075,-3.7674,-3.7928,-3.908,-4.0202,0.0,-4.2087,-4.3284,-4.4182,-4.4885,-4.5394,-4.5693,-4.6082,-4.6576,-4.7234,-4.7309,-4.6447,-4.4442,-4.4785,-4.4468,-4.3048,-4.352,-4.3841,-4.3839,-4.3865,-4.3547,-4.303,-4.2974,-4.2974,-4.2974,-4.3313,-4.3463,-4.3451,-4.2491,-4.1365,-4.0059,-3.7783,-3.6406,-3.5683,-3.408,-3.3418,-3.3481,-3.4435,-3.4788,-3.4768,-3.4584,-3.4523,-3.4667,-3.5666,-3.6323,-3.6782,-3.698,-3.7834,-3.8804,-3.8804,-3.9193,-3.9697,-3.9697,-3.9697,-3.9697,-3.9697,-3.9697,-3.9697,-3.9697,-3.9697,-3.9697,-3.9697,-3.9697,-3.9697,-3.9697,-3.9697,-3.9697,-3.9697,-3.9697,-3.9697,-3.9697,-3.9697,-3.9697,-3.9697,-3.9697,-3.9697,-3.9697,-3.9697,-3.9697,-3.9697,-3.9484,-3.922,-3.8944,-3.8642,-3.7879,-3.6439,-3.7196,-3.7146,-3.6086,-3.691,-3.7312,-3.7312,-3.7312,-3.7312,-3.7324,-3.755,-3.7839,-2.9985,0.0,0.0,-3.1959,-3.329,-3.4429,-3.4113,-3.4951,-3.5953,-3.6611,-3.7629,-3.8452,-3.8631,-3.9768,-4.0831,-4.1309,-4.2656,-4.3808,-4.4257,-4.4885,-4.5289,-4.5289,-4.5738,-4.6164,-4.6459,-4.6681,-4.5869,-4.3693,-4.3834,-4.3227,-4.1424,-4.2007,-4.2627,-4.2961,-4.2974,-4.2974,-4.2974,-4.3124,-4.3212,-4.3212,-4.3765,-4.3786,-4.3288,-4.1507,-3.9602,-3.7643,-3.6348,-3.5571,-3.5088,-3.4373,-3.408,-3.4195,-3.5806,-3.6467,-3.6528,-3.6941,-3.682,-3.6645,-3.7781,-3.864,-3.9141,-3.9135,-3.9468,-3.9923,-3.9923,-3.9823,-3.9697,-3.9697,-3.9697,-3.9697,-3.9697,-3.9697,-3.9697,-3.9697,-3.9697,-3.9697,-3.9697,-3.9697,-3.9697,-3.9697,-3.9697,-3.9697,-3.9697,-3.9697,-3.9697,-3.9697,-3.9697,-3.9697,-3.9697,-3.9697,-3.9697,-3.9697,-3.9697,-3.9697,-3.9697,-3.9349,-3.8916,-3.852,-3.8111,-3.7339,-3.6106,-3.7075,-3.7266,-3.644,-3.7431,-3.8002,-3.8002,-3.8002,-3.8002,-3.8002,-3.8165,-3.8467,0.0,0.0,-3.1809,-3.311,-3.3963,-3.4668,-3.5295,-3.5968,-3.6626,-3.7255,-3.7913,-3.8601,-3.926,-4.0472,-4.1392,-4.1422,-4.3015,-4.4287,-4.4317,-4.4885,-4.5289,-4.5289,-4.5319,-4.5097,0.0,-4.5088,-4.4918,-4.3598,-4.3339,-4.2658,-4.1383,-4.2371,-4.2961,-4.2974,-4.2974,-4.2974,-4.2974,-4.3514,-4.3777,-4.3777,-4.433,-4.374,-4.2066,-3.9976,-3.8119,-3.6499,-3.6016,-3.4912,-3.3597,-3.5088,-3.5745,-3.5867,-3.7495,-3.8104,-3.8342,-3.9884,-3.9464,-3.8264,-3.9357,-3.9751,-3.9938,-4.0913,-4.0887,-4.0488,-4.0488,-4.0124,-3.9697,-3.9697,-3.9697,-3.9697,-3.9697,-3.9697,-3.9697,-3.9697,-3.9697,-3.9697,-3.9697,-3.9697,-3.9697,-3.9697,-3.9697,-3.9697,-3.9697,-3.9697,-3.9697,-3.9697,-3.9697,-3.9697,-3.9697,-3.9697,-3.9697,-3.9697,-3.9697,-3.9697,-3.9697,-3.8413,-3.7571,-3.7547,-3.6194,-3.5802,-3.6628,-3.672,-3.7124,-3.7916,-3.7953,-3.8002,-3.8002,-3.8002,-3.8002,-3.8015,-3.858,-3.8906,0.0,0.0,-3.3036,-3.3918,-3.4981,-3.5911,-3.6103,-3.6641,-3.715,-3.736,-3.7584,-3.7808,-3.8033,-3.9185,-4.0217,-4.0651,-4.2746,-4.4466,-4.49,-4.5544,-4.5813,-4.5349,-4.5693,0.0,0.0,0.0,0.0,-4.2385,-4.2812,-4.2631,-4.1383,-4.2384,-4.2974,-4.2974,-4.2974,-4.2974,-4.2974,-4.3526,-4.3802,-4.3815,-4.3556,-4.2624,-4.0982,-3.8799,-3.674,-3.4909,-3.5531,-3.5509,-3.5088,-3.671,-3.7374,-3.7555,-3.917,-3.9768,-4.0001,-4.1602,-4.1842,-4.1464,-4.1815,-4.1688,-4.1422,-4.1768,-4.1505,-4.1012,-4.1012,-4.0676,-4.0237,-4.0237,-3.9973,-3.9697,-3.9697,-3.9697,-3.9697,-3.9697,-3.9697,-3.9697,-3.9697,-3.9697,-3.9697,-3.9697,-3.9697,-3.9697,-3.9697,-3.9697,-3.9697,-3.9697,-3.9697,-3.9697,-3.9697,-3.9697,-3.9697,-3.9697,-3.9697,-3.9297,-3.8295,-3.7796,-3.7079,-3.6108,-3.6487,-3.646,-3.5813,-3.7649,-3.8383,-3.7697,-3.8635,-3.9132,-3.9132,-3.9132,-3.9132,-3.9132,-3.9333,-3.9421,-3.2392,-3.317,-3.3769,-3.4938,-3.5848,-3.6492,-3.6492,-3.6971,-3.7345,-3.712,-3.7255,-3.7404,-3.7404,-3.8317,-3.9349,-4.0247,-4.2402,-4.4197,-4.4855,-4.5738,-4.6067,-4.5379,-4.527,-4.4675,0.0,0.0,0.0,-4.165,-4.2175,-4.2184,-4.1342,-4.2384,-4.2974,-4.2974,-4.2974,-4.3074,-4.3263,-4.3815,-4.4305,-4.4706,-4.3663,-4.2653,-4.1559,-3.9418,-3.7572,-3.6129,-3.6691,-3.68,-3.6771,-3.8391,-3.9053,-3.9229,-4.0834,-4.1488,-4.1602,-4.2613,-4.2974,-4.2974,-4.2974,-4.2748,-4.2502,-4.2502,-4.207,-4.163,-4.163,-4.1103,-4.0513,-4.0513,-4.0124,-3.9697,-3.9697,-3.9697,-3.9697,-3.9697,-3.9697,-3.9697,-3.9697,-3.9697,-3.9697,-3.9697,-3.9697,-3.9697,-3.9697,-3.9697,-3.9697,-3.9697,-3.9697,-3.9697,-3.9697,-3.9697,-3.9697,-3.9697,-3.9697,-3.9077,-3.7624,-3.7026,-3.6325,-3.5354,-3.5715,-3.5988,-3.6108,-3.7926,-3.8739,-3.8295,-3.9245,-3.9697,-3.9697,-3.9697,-3.9697,-3.9697,-3.9697,-3.9697,-3.3245,-3.3619,-3.4113,-3.6058,-3.6537,-3.6537,-3.6537,-3.6971,-3.718,-3.6567,-3.6881,-3.724,0.0,0.0,-3.8736,-4.0083,-4.2013,-4.3544,-4.4272,-4.5529,-4.6112,0.0,0.0,0.0,0.0,0.0,0.0,-4.1505,0.0,-4.1288,-4.1288,-4.2384,-4.2974,-4.2974,-4.2974,-4.3237,-4.379,-4.438,-4.5221,-4.6313,-4.4559,-4.3719,-4.3645,-4.1485,-4.0235,-3.9702,-3.9298,-3.8803,-3.8495,-4.0071,-4.0707,-4.0892,-4.2375,-4.2974,-4.2974,-4.2974,-4.2974,-4.2974,-4.2974,-4.2974,-4.2974,-4.2974,-4.2678,-4.225,-4.225,-4.1455,-4.0588,-4.0563,-4.0162,-3.9722,-3.9697,-3.9697,-3.9697,-3.9697,-3.9697,-3.9697,-3.9697,-3.9697,-3.9697,-3.9697,-3.9697,-3.9697,-3.9697,-3.9697,-3.9697,-3.9697,-3.9697,-3.9697,-3.9697,-3.9697,-3.9697,-3.9697,-3.9697,-3.9077,-3.7624,-3.6217,-3.5398,-3.5288,-3.4069,-3.4559,-3.7358,-3.7571,-3.8295,-3.9697,-3.9697,-3.9697,-3.9697,-3.9697,-3.9697,-3.9697,-3.9697,-3.9697,-3.4637,-3.5355,-3.5953,-3.6926,-3.718,-3.718,-3.718,-3.6941,-3.6537,-3.5893,-3.5474,-3.5085,0.0,0.0,0.0,-3.8691,-4.1399,0.0,-4.4885,-4.6202,0.0,-4.6142,0.0,-4.4274,-4.268,-4.1783,0.0,0.0,-4.1087,-4.1288,-4.1288,-4.2384,-4.2974,-4.2974,-4.2974,-4.3237,-4.379,-4.4782,-4.5623,-4.6313,-4.4559,-4.3719,-4.3645,-4.1485,-4.0437,-4.032,-4.0609,-4.0692,-4.0658,-4.1887,-4.2375,-4.2432,-4.2849,-4.2974,-4.2974,-4.2974,-4.2974,-4.2974,-4.2974,-4.2974,-4.2974,-4.2974,-4.2942,-4.2828,-4.2828,-4.2283,-4.1656,-4.1241,-4.0727,-4.0212,-3.9798,-3.9697,-3.9697,-3.9697,-3.9697,-3.9697,-3.9697,-3.9697,-3.9697,-3.9697,-3.9697,-3.9697,-3.9697,-3.9697,-3.9697,-3.9697,-3.9697,-3.9697,-3.9697,-3.9697,-3.9697,-3.9697,-3.9697,-3.9077,-3.7624,-3.7145,-3.6487,-3.5343,-3.5988,-3.6692,-3.7465,-3.8582,-3.931,-3.9697,-3.9697,-3.9697,-3.9697,-3.9697,-3.9697,-3.9697,-3.9697,-3.9697,-3.5654,-3.6402,-3.6971,-3.733,-3.7404,-3.718,-3.6312,-3.6088,-3.5624,-3.4068,-3.3679,0.0,0.0,0.0,0.0,0.0,0.0,0.0,-4.4646,-4.5806,-4.6315,0.0,-4.4613,0.0,-4.2229,-4.1495,-4.0965,0.0,-4.0974,-4.1388,-4.1681,-4.2509,-4.2974,-4.2974,-4.2974,-4.3363,-4.4154,-4.5284,-4.5999,-4.6313,-4.5342,-4.4817,-4.4817,-4.3619,-4.2914,-4.2715,-4.2757,-4.2683,-4.2485,-4.2849,-4.2974,-4.2974,-4.2974,-4.2974,-4.2974,-4.2974,-4.2974,-4.2974,-4.2974,-4.2974,-4.2974,-4.2974,-4.2974,-4.2974,-4.2974,-4.2652,-4.2087,-4.1492,-4.0887,-4.0388,-3.9835,-3.9697,-3.9697,-3.9697,-3.9697,-3.9697,-3.9697,-3.9697,-3.9697,-3.9697,-3.9697,-3.9697,-3.9697,-3.9697,-3.9697,-3.9697,-3.9697,-3.9697,-3.9697,-3.9697,-3.9697,-3.9697,-3.9697,-3.9077,-3.7624,-3.7518,-3.7145,-3.6325,-3.7026,-3.7796,-3.8465,-3.9245,-3.9697,-3.9697,-3.9697,-3.9697,-3.9697,-3.9697,-3.9697,-3.9697,-3.9697,-3.9697,-3.6537,-3.712,-3.7539,-3.7539,-3.7479,-3.6911,-3.5073,-3.4936,-3.4532,-3.2019,0.0,-3.2078,-3.1466,-3.2542,-3.4173,-3.6267,0.0,-4.2049,-4.3935,-4.4821,-4.5257,-4.5147,-4.3074,-4.1604,-4.1604,-4.0914,-4.0433,-4.0283,-4.0794,-4.1426,-4.2187,-4.274,-4.2974,-4.2974,-4.3124,-4.3652,-4.4618,-4.5748,-4.6313,-4.6313,-4.6313,-4.6313,-4.6313,-4.6313,-4.6012,-4.546,-4.4869,-4.4189,-4.3455,-4.3144,-4.2862,-4.2681,-4.2918,-4.2974,-4.2974,-4.2974,-4.2974,-4.2974,-4.2974,-4.2974,-4.2974,-4.2974,-4.2974,-4.2974,-4.2974,-4.2703,-4.2187,-4.1517,-4.0937,-4.0488,-3.986,-3.9697,-3.9697,-3.9697,-3.9697,-3.9697,-3.9697,-3.9697,-3.9697,-3.9697,-3.9697,-3.9697,-3.9697,-3.9697,-3.9697,-3.9697,-3.9697,-3.9697,-3.9697,-3.9697,-3.9697,-3.9697,-3.9697,-3.9193,-3.7914,-3.7796,-3.7796,-3.7796,-3.7796,-3.836,-3.9645,-3.9697,-3.9697,-3.9697,-3.9697,-3.9697,-3.9697,-3.9697,-3.9697,-3.9697,-3.9697,-3.9697,-3.7749,-3.8138,-3.8227,-3.8227,-3.7808,-3.7045,-3.5639,-3.4562,0.0,0.0,0.0,-3.0821,-3.0702,-3.2228,0.0,-3.6851,0.0,0.0,0.0,0.0,-4.4393,0.0,0.0,0.0,0.0,0.0,0.0,0.0,-3.9726,-4.0714,-4.2145,-4.274,-4.2974,-4.2974,-4.3865,-4.443,-4.4618,-4.5748,-4.6313,-4.6313,-4.6313,-4.6313,-4.6313,-4.6313,-4.6012,-4.546,-4.4869,-4.3514,-4.188,-4.2655,-4.2206,-4.1133,-4.25,-4.2974,-4.2974,-4.2974,-4.2974,-4.2974,-4.2974,-4.2974,-4.2974,-4.2974,-4.2974,-4.2974,-4.2974,-4.2911,-4.2622,-4.1564,-4.1213,-4.0965,-3.9961,-3.9697,-3.9697,-3.9697,-3.9697,-3.9697,-3.9697,-3.9697,-3.9697,-3.9697,-3.9697,-3.9697,-3.9697,-3.9697,-3.9697,-3.9697,-3.9697,-3.9697,-3.9697,-3.9697,-3.9697,-3.9697,-3.9697,-3.9581,-3.9362,-3.931,-3.931,-3.931,-3.931,-3.9413,-3.9697,-3.9697,-3.9697,-3.9697,-3.9697,-3.9697,-3.9697,-3.9697,-3.9697,-3.9697,-3.9697,-3.9697,-3.7704,-3.8392,-3.8751,-3.8048,-3.7644,-3.6716,-3.4022,0.0,0.0,0.0,0.0,-2.94,-2.9041,0.0,0.0,0.0,0.0,0.0,0.0,0.0,0.0,0.0,0.0,0.0,0.0,0.0,0.0,0.0,-3.9914,-4.0566,-4.1338,-4.242,-4.2974,-4.2974,-4.3765,-4.433,-4.4618,-4.546,-4.6024,-4.6313,-4.6313,-4.6163,-4.5886,-4.5886,-4.5132,-4.3778,-4.3216,-4.2333,-4.14,-4.165,-4.1785,-4.1911,-4.2681,-4.2974,-4.2974,-4.2974,-4.2974,-4.2974,-4.2974,-4.2974,-4.2974,-4.2974,-4.2974,-4.2974,-4.2974,-4.2974,-4.2748,-4.1589,-4.1288,-4.1025,-3.9986,-3.9697,-3.9697,-3.9697,-3.9697,-3.9697,-3.9697,-3.9697,-3.9697,-3.9697,-3.9697,-3.9697,-3.9697,-3.9697,-3.9697,-3.9697,-3.9697,-3.9697,-3.9697,-3.9697,-3.9697,-3.9697,-3.9697,-3.9697,-3.9697,-3.9697,-3.9697,-3.9697,-3.9697,-3.9697,-3.9697,-3.9697,-3.9697,-3.9697,-3.9697,-3.9697,-3.9697,-3.9697,-3.9697,-3.9697,-3.9697,-3.9697,-3.7584,-3.8497,-3.9059,-3.7734,-3.7404,-3.6417,-3.2572,-3.2004,0.0,0.0,0.0,-2.8263,-2.7884,0.0,0.0,0.0,0.0,0.0,0.0,0.0,0.0,0.0,0.0,0.0,0.0,0.0,0.0,0.0,-4.0235,-4.0592,-4.0592,-4.2137,-4.2974,-4.2974,-4.3514,-4.4003,-4.4443,-4.5133,-4.5648,-4.5949,-4.6075,-4.5836,-4.5296,-4.4989,-4.4003,-4.2601,-4.1744,-4.1305,-4.1233,-4.1117,-4.1659,-4.25,-4.2862,-4.2974,-4.2974,-4.2974,-4.2974,-4.2974,-4.2974,-4.2974,-4.2974,-4.2974,-4.2974,-4.2974,-4.2974,-4.2974,-4.2748,-4.1589,-4.1288,-4.1025,-3.9986,-3.9697,-3.9697,-3.9697,-3.9697,-3.9697,-3.9697,-3.9697,-3.9697,-3.9697,-3.9697,-3.9697,-3.9697,-3.9697,-3.9697,-3.9697,-3.9697,-3.9697,-3.9697,-3.9697,-3.9697,-3.9697,-3.9697,-3.9697,-3.9697,-3.9697,-3.9697,-3.9697,-3.9697,-3.9697,-3.9697,-3.9697,-3.9697,-3.9697,-3.9697,-3.9697,-3.9697,-3.9697,-3.9697,-3.9697,-3.9697,-3.9697,-3.8138,-3.8841,-3.9059,-3.7734,-3.7404,-3.6537,-3.3185,0.0,0.0,0.0,-2.8053,-2.7869,-2.8412,-2.9146,0.0,0.0,0.0,0.0,0.0,0.0,0.0,0.0,0.0,0.0,0.0,0.0,0.0,0.0,-3.9964,-4.0592,-4.0592,-4.2137,-4.2974,-4.2974,-4.3514,-4.3827,-4.3878,-4.4945,-4.5246,-4.4782,-4.5309,-4.5259,-4.4648,-4.3235,-4.3003,-4.3567,-4.2069,-4.1103,-4.0779,-4.2219,-4.2024,-4.0949,-4.2432,-4.2974,-4.2974,-4.2974,-4.2974,-4.2974,-4.2974,-4.2974,-4.2974,-4.2974,-4.2974,-4.2974,-4.2974,-4.2974,-4.2748,-4.1589,-4.1288,-4.1025,-3.9986,-3.9697,-3.9697,-3.9697,-3.9697,-3.9697,-3.9697,-3.9697,-3.9697,-3.9697,-3.9697,-3.9697,-3.9697,-3.9697,-3.9697,-3.9697,-3.9697,-3.9697,-3.9697,-3.9697,-3.9697,-3.9697,-3.9697,-3.9697,-3.9697,-3.9697,-3.9697,-3.9697,-3.9697,-3.9697,-3.9697,-3.9697,-3.9697,-3.9697,-3.9697,-3.9697,-3.9697,-3.9697,-3.9697,-3.9697,-3.9697,-3.9697,-3.7524,-3.8287,-3.8571,-3.7644,-3.7404,-3.6447,-3.2736,0.0,0.0,-2.8472,-2.7794,-2.7675,-2.7959,-2.8187,-2.8996,0.0,-3.0408,-3.0574,0.0,0.0,0.0,0.0,0.0,0.0,0.0,0.0,0.0,0.0,-4.0354,-4.0592,-4.0592,-4.2137,-4.2974,-4.2974,-4.3187,-4.3463,-4.3802,-4.4242,-4.4518,-4.4618,-4.4857,-4.4669,-4.4129,-4.347,-4.2744,-4.1862,-4.1203,-4.0794,-4.065,-4.1305,-4.1728,-4.2081,-4.2737,-4.2974,-4.2974,-4.2974,-4.2974,-4.2974,-4.2974,-4.2974,-4.2974,-4.2974,-4.2974,-4.2974,-4.2974,-4.2974,-4.2823,-4.2045,-4.1831,-4.158,-4.0475,-3.9936,-3.9697,-3.9697,-3.9697,-3.9697,-3.9697,-3.9697,-3.9697,-3.9697,-3.9697,-3.9697,-3.9697,-3.9697,-3.9697,-3.9697,-3.9697,-3.9697,-3.9697,-3.9697,-3.9697,-3.9697,-3.9697,-3.9697,-3.9697,-3.9697,-3.9697,-3.9697,-3.9697,-3.9697,-3.9697,-3.9697,-3.9697,-3.9697,-3.9697,-3.9697,-3.9697,-3.9697,-3.9697,-3.9697,-3.9697,-3.9697,-3.6552,-3.7464,-3.7943,-3.73,-3.6985,-3.5941,0.0,0.0,-3.0565,-2.8324,-2.7545,-2.7265,-2.7265,-2.7176,-2.747,-2.8501,-2.7659,-2.7767,-3.0443,0.0,0.0,0.0,0.0,0.0,0.0,0.0,0.0,0.0,-4.122,-4.1305,-4.1305,-4.2375,-4.2974,-4.2974,-4.2974,-4.3162,-4.3551,-4.3714,-4.3915,-4.4141,-4.4305,-4.4091,-4.3564,-4.3072,-4.2266,-4.1305,-4.0834,-4.0892,-4.1305,-4.1305,-4.1968,-4.2974,-4.2974,-4.2974,-4.2974,-4.2974,-4.2974,-4.2974,-4.2974,-4.2974,-4.2974,-4.2974,-4.2974,-4.2974,-4.2974,-4.2974,-4.2861,-4.2363,-4.1974,-4.1455,-4.0513,-3.9986,-3.9697,-3.9697,-3.9697,-3.9697,-3.9697,-3.9697,-3.9697,-3.9697,-3.9697,-3.9697,-3.9697,-3.9697,-3.9697,-3.9697,-3.9697,-3.9697,-3.9697,-3.9697,-3.9697,-3.9697,-3.9697,-3.9697,-3.9697,-3.9697,-3.9697,-3.9697,-3.9697,-3.9697,-3.9697,-3.9697,-3.9697,-3.9697,-3.9697,-3.9697,-3.9697,-3.9697,-3.9697,-3.9697,-3.9697,-3.9697,-3.534,-3.6462,-3.727,-3.6656,-3.6013,-3.496,0.0,-3.1405,-3.0145,-2.8759,-2.7439,-2.651,-2.651,-2.6343,-2.6007,-2.5428,-2.6114,-2.6987,-2.7827,0.0,0.0,0.0,0.0,0.0,0.0,0.0,0.0,-4.212,-4.2672,0.0,-4.2974,-4.2974,-4.2974,-4.2974,-4.2974,-4.2974,-4.2986,-4.3526,-4.3526,-4.2999,-4.3539,-4.3526,-4.293,-4.1374,-4.1488,-4.2918,-4.1305,-4.1488,-4.2974,-4.2974,-4.2974,-4.2974,-4.2974,-4.2974,-4.2974,-4.2974,-4.2974,-4.2974,-4.2974,-4.2974,-4.2974,-4.2974,-4.2974,-4.2974,-4.2974,-4.2974,-4.2861,-4.2363,-4.1367,-4.04,-3.9848,-3.9697,-3.9697,-3.9697,-3.9697,-3.9697,-3.9697,-3.9697,-3.9697,-3.9697,-3.9697,-3.9697,-3.9697,-3.9697,-3.9697,-3.9697,-3.9697,-3.9697,-3.9697,-3.9697,-3.9697,-3.9697,-3.9697,-3.9697,-3.9697,-3.9697,-3.9697,-3.9697,-3.9697,-3.9697,-3.9697,-3.9697,-3.9697,-3.9697,-3.9697,-3.9697,-3.9697,-3.9697,-3.9697,-3.9697,-3.9697,-3.9697,-3.3275,-3.4083,-3.4688,-3.4425,-3.4606,-3.4159,-3.1678,-3.1182,-3.0464,-2.7687,-2.6785,-2.6174,-2.5066,-2.4392,-2.4289,-2.5176,-2.5154,0.0,0.0,0.0,0.0,0.0,0.0,0.0,0.0,0.0,0.0,-4.2162,-4.2728,-4.2974,-4.2974,-4.2974,-4.2974,-4.2974,-4.2974,-4.2974,-4.2974,-4.315,-4.315,-4.2974,-4.3162,-4.315,-4.2974,-4.25,-4.25,-4.2974,-4.2444,-4.2557,-4.2974,-4.2974,-4.2974,-4.2974,-4.2974,-4.2974,-4.2974,-4.2974,-4.2974,-4.2974,-4.2974,-4.2974,-4.2974,-4.2974,-4.2974,-4.2974,-4.2974,-4.2974,-4.2861,-4.2363,-4.163,-4.0899,-4.04,-3.9973,-3.9697,-3.9697,-3.9697,-3.9697,-3.9697,-3.9697,-3.9697,-3.9697,-3.9697,-3.9697,-3.9697,-3.9697,-3.9697,-3.9697,-3.9697,-3.9697,-3.9697,-3.9697,-3.9697,-3.9697,-3.9697,-3.9697,-3.9697,-3.9697,-3.9697,-3.9697,-3.9697,-3.9697,-3.9697,-3.9697,-3.9697,-3.9697,-3.9697,-3.9697,-3.9697,-3.9697,-3.9697,-3.9697,-3.9697,-3.9697,0.0,-3.2578,-3.3133,-3.3327,-3.3355,-3.2896,-3.1232,-3.0443,-2.9345,-2.6866,-2.5725,-2.4786,-2.3443,-2.303,-2.3135,-2.3944,-2.4478,0.0,0.0,0.0,0.0,0.0,0.0,0.0,0.0,0.0,-4.1254,-4.1806,-4.2359,-4.2816,-4.2974,-4.2974,-4.2974,-4.2974,-4.2974,-4.2974,-4.2974,-4.2974,-4.2974,-4.2974,-4.2974,-4.2974,-4.2974,-4.2974,-4.2974,-4.2974,-4.2974,-4.2974,0.0,-4.2974,-4.2974,-4.2974,-4.2974,-4.2974,-4.2974,-4.2974,-4.2974,-4.2974,-4.2974,-4.2974,-4.2974,-4.2974,-4.2974,-4.2936,-4.2791,-4.2728,-4.2547,-4.2007,-4.1455,-4.0849,-4.035,-3.9948,-3.9697,-3.9697,-3.9697,-3.9697,-3.9697,-3.9697,-3.9697,-3.9697,-3.9697,-3.9697,-3.9697,-3.9697,-3.9697,-3.9697,-3.9697,-3.9697,-3.9697,-3.9697,-3.989,-4.0364,-4.0415,-4.0415,-4.0415,-3.9981,-3.9697,-3.9697,-3.9697,-3.9697,-3.9697,-3.9697,-3.9697,-3.9697,-3.9697,-3.9697,-3.9697,-3.9697,-3.9697,-3.9697,-3.9697,-3.9697,0.0,0.0,0.0,0.0,0.0,-3.1239,-3.1195,-2.9223,0.0,-2.6095,-2.4286,-2.2669,-2.188,-2.2218,-2.2517,-2.2296,-2.4257,0.0,0.0,0.0,0.0,0.0,0.0,0.0,0.0,0.0,-4.0727,-4.1188,-4.1819,-4.2439,-4.2898,-4.2949,-4.2974,-4.2974,-4.2974,-4.2974,-4.2974,-4.2974,-4.2974,-4.2974,-4.2974,-4.2974,-4.2974,-4.2974,-4.2974,-4.2974,-4.2974,-4.2974,-4.2974,-4.2974,-4.2974,-4.2974,-4.2974,-4.2974,-4.2974,-4.2974,-4.2974,-4.2974,-4.2936,-4.2924,-4.2911,-4.2873,-4.2861,-4.2773,-4.2301,-4.2187,-4.2087,-4.1442,-4.0862,-4.0388,-3.9835,-3.9697,-3.9697,-3.9697,-3.9697,-3.9697,-3.9697,-3.9697,-3.9697,-3.9697,-3.9697,-3.9697,-3.9697,-3.9697,-3.9697,-3.9697,-3.9697,-3.9697,-3.9697,-3.9788,-4.0262,-4.1455,-4.169,-4.169,-4.1604,-4.0503,-3.9788,-3.9697,-3.9697,-3.9697,-3.9697,-3.9697,-3.9697,-3.9697,-3.9697,-3.9697,-3.9697,-3.9697,-3.9697,-3.9697,-3.9697,-3.9697,-2.7753,0.0,-2.9552,-3.0047,-3.0019,-2.9726,0.0,-2.7661,-2.5924,0.0,0.0,0.0,0.0,-2.1886,-2.2412,0.0,0.0,0.0,0.0,0.0,0.0,0.0,0.0,0.0,0.0,0.0,-4.0576,-4.0701,-4.1605,-4.2263,-4.2401,-4.2803,-4.2974,-4.2974,-4.2974,-4.2974,-4.2974,-4.2974,-4.2974,-4.2974,-4.2974,-4.2974,-4.2974,-4.2974,-4.2974,-4.2974,-4.2974,-4.2974,-4.2974,-4.2974,-4.2974,-4.2974,-4.2974,-4.2974,-4.2974,-4.2974,-4.2974,-4.2924,-4.2552,-4.2401,-4.2338,-4.1856,-4.1731,-4.1706,-4.1568,-4.1819,-4.2011,-4.0978,-4.0614,-4.0388,-3.9835,-3.9697,-3.9697,-3.9697,-3.9697,-3.9697,-3.9697,-3.9697,-3.9697,-3.9697,-3.9697,-3.9697,-3.9697,-3.9697,-3.9697,-3.9697,-3.9697,-3.9697,-3.9697,-4.0554,-4.1269,-4.1555,-4.2461,-4.2641,-4.169,-4.1319,-4.0743,-3.9736,-3.9697,-3.9697,-3.9697,-3.9697,-3.9697,-3.9697,-3.9697,-3.9697,-3.9697,-3.9697,-3.9697,-3.9697,-3.9697,-3.9697,-2.5944,-2.7781,-2.9297,-2.9412,-2.9383,-2.9021,-2.7805,0.0,0.0,0.0,0.0,0.0,0.0,0.0,0.0,0.0,0.0,0.0,0.0,0.0,0.0,0.0,0.0,0.0,0.0,-3.9961,-4.0237,-4.0501,-4.1065,-4.1517,-4.1769,-4.2296,-4.2652,-4.2652,-4.2848,-4.2974,-4.2974,-4.2974,-4.2974,-4.2974,-4.2974,-4.2974,-4.2974,-4.2974,-4.2974,-4.2974,-4.2974,-4.2974,-4.2974,-4.2974,-4.2974,-4.2974,-4.2974,-4.2879,-4.2652,-4.2652,-4.2446,-4.2183,-4.1882,-4.1781,-4.1731,-4.1388,-4.1288,-4.1238,-4.0987,-4.1166,-4.1279,-4.0676,-4.0337,-4.0074,-3.9772,-3.9697,-3.9697,-3.9697,-3.9697,-3.9697,-3.9697,-3.9697,-3.9697,-3.9697,-3.9697,-3.9697,-3.9697,-3.9697,-3.9697,-3.9697,-3.9697,-3.9929,-4.0503,-4.1169,-4.2021,-4.3218,-4.3456,-4.3218,-4.2558,-4.1936,-4.1082,-3.9788,-3.9697,-3.9697,-3.9697,-3.9697,-3.9697,-3.9697,-3.9697,-3.9697,-3.9697,-3.9697,-3.9697,-3.9697,-3.9697,-3.9697,-2.4879,-2.7482,-2.9607,-2.9092,-2.8779,-2.8173,0.0,0.0,0.0,0.0,0.0,0.0,0.0,0.0,0.0,0.0,0.0,0.0,0.0,0.0,0.0,0.0,0.0,0.0,-3.9697,-3.9697,-3.9885,-4.035,-4.0463,-4.0727,-4.1137,-4.1731,-4.2087,-4.2087,-4.2484,-4.2723,-4.2723,-4.2886,-4.2974,-4.2974,-4.2974,-4.2974,-4.2974,-4.2974,-4.2974,-4.2974,-4.2886,-4.2848,-4.2848,-4.276,-4.2723,-4.2723,-4.2723,-4.2434,-4.2087,-4.2087,-4.1743,-4.1275,-4.1188,-4.11,-4.1037,-4.1037,-4.1037,-4.0949,-4.0538,-4.0388,-4.0388,-4.0388,-4.0061,-3.9697,-3.9697,-3.9697,-3.9697,-3.9697,-3.9697,-3.9697,-3.9697,-3.9697,-3.9697,-3.9697,-3.9697,-3.9697,-3.9697,-3.9697,-3.9697,-3.9697,-3.9697,-4.007,-4.1169,-4.1654,-4.2738,-4.4872,-4.4303,-4.3693,-4.3504,-4.2315,-4.1119,-4.0083,-3.9788,-3.9788,-3.9981,-3.9788,-3.989,-4.0262,-4.007,-3.9981,-3.9981,-3.9981,-3.989,-3.9697,-3.9697,-3.9697,-2.5473,-2.67,-2.7326,-2.5977,-2.5533,-2.5109,-2.3973,0.0,0.0,0.0,0.0,0.0,0.0,0.0,0.0,0.0,0.0,0.0,0.0,0.0,0.0,0.0,0.0,-3.9697,-3.9697,-3.9697,-3.9722,-3.9823,-4.0249,-4.0551,-4.0639,-4.1166,-4.1467,-4.1467,-4.1489,-4.1539,-4.1539,-4.2509,-4.2974,-4.2974,-4.2974,-4.2974,-4.2974,-4.2974,-4.2974,-4.2949,-4.2539,-4.2338,-4.2301,-4.1781,-4.1539,-4.1539,-4.1539,-4.1489,-4.1467,-4.1467,-4.1363,-4.1225,-4.0802,-4.0337,-3.9948,-3.9948,-3.9948,-3.9936,-3.9848,-3.9823,-3.9823,-3.9823,-3.976,-3.9697,-3.9697,-3.9697,-3.9697,-3.9697,-3.9697,-3.9697,-3.9697,-3.9697,-3.9697,-3.9697,-3.9697,-3.9697,-3.9697,-3.9697,-3.9697,-3.9697,-3.9697,-3.9788,-3.9981,-4.1887,-4.3361,-4.374,-4.4595,-4.4688,-4.3598,-4.2315,-4.1505,-4.1319,-4.0313,-4.0173,-4.1269,-4.0262,-4.0693,-4.2882,-4.1838,-4.1319,-4.1319,-4.1319,-4.0743,-3.9697,-3.9697,-3.9697,-2.3961,-2.457,-2.487,-2.3987,-2.5103,-2.6,-2.4308,0.0,0.0,0.0,0.0,0.0,0.0,0.0,0.0,0.0,0.0,0.0,0.0,0.0,0.0,0.0,0.0,-3.9697,-3.9697,-3.9697,-3.9697,-3.9697,-3.9936,-4.0074,-4.0074,-4.0601,-4.0902,-4.0902,-4.1125,-4.1288,-4.1288,-4.1844,-4.2095,-4.2095,-4.2095,-4.2095,-4.2095,-4.2095,-4.2095,-4.2082,-4.1831,-4.1706,-4.1693,-4.1388,-4.1288,-4.1288,-4.1288,-4.11,-4.0811,-4.0563,-4.045,-4.0518,-4.0927,-4.0912,-4.0743,-4.0743,-4.0743,-4.0605,-3.9929,-3.9697,-3.9697,-3.9697,-3.9697,-3.9697,-3.9697,-3.9697,-3.9697,-3.9697,-3.9697,-3.9697,-3.9697,-3.9697,-3.9697,-3.9697,-3.9697,-3.9697,-3.9697,-3.9697,-3.9697,-3.9697,-3.9697,-3.9929,-4.0655,-4.1739,-4.2978,-4.4396,-4.4442,-4.4396,-4.4503,-4.3361,-4.2315,-4.1654,-4.169,-4.2035,-4.2593,-4.207,-4.2315,-4.3504,-4.2266,-4.1604,-4.1604,-4.0882,-4.0262,-3.9697,-3.9697,-3.9697,-2.2842,-2.2987,-2.3055,-2.2958,0.0,-2.6366,-2.5133,0.0,0.0,0.0,0.0,0.0,0.0,0.0,0.0,0.0,0.0,0.0,0.0,0.0,0.0,-3.9634,-3.9697,-3.9697,-3.9697,-3.9697,-3.9697,-3.9697,-3.9697,-3.9697,-3.9697,-4.0099,-4.0325,-4.0325,-4.1031,-4.1351,-4.1351,-4.1351,-4.1332,-4.1288,-4.1288,-4.1288,-4.1288,-4.1288,-4.1288,-4.1275,-4.115,-4.11,-4.1075,-4.0962,-4.0953,-4.0953,-4.0953,-4.0701,-4.0275,-3.9848,-3.989,-4.0262,-4.1269,-4.1789,-4.2035,-4.2035,-4.1838,-4.1406,-4.0465,-3.9929,-3.9697,-3.9697,-3.9697,-3.9697,-3.9697,-3.9697,-3.9697,-3.9697,-3.9697,-3.9697,-3.9697,-3.9697,-3.9697,-3.9697,-3.9697,-3.9697,-3.9697,-3.9697,-3.9697,-3.9697,-3.9697,-4.0173,-4.1455,-4.1838,-4.293,-4.5161,-4.4549,-4.421,-4.4872,-4.4303,-4.3551,-4.2544,-4.3122,-4.3646,-4.3929,-4.3646,-4.3787,-4.4396,-4.3122,-4.2363,-4.2035,-4.1082,-4.0262,-3.9697,-3.9697,-3.9697,-2.3736,-2.3233,-2.2586,-2.3117,-2.318,0.0,-2.5456,-2.636,0.0,-2.9737,0.0,0.0,0.0,0.0,0.0,0.0,0.0,0.0,0.0,0.0,-3.9082,-3.9634,-3.9697,-3.9697,-3.9697,-3.9697,-3.9697,-3.9697,-3.9697,-3.9697,-3.9697,-3.9735,-3.9747,-3.9747,-4.0935,-4.1587,-4.1587,-4.1587,-4.1491,-4.1288,-4.1288,-4.1288,-4.1288,-4.1288,-4.1288,-4.1263,-4.0802,-4.0576,-4.0538,-4.0023,-3.981,-3.981,-3.981,-3.9785,-3.9747,-3.971,-4.0453,-4.1455,-4.1555,-4.2363,-4.3361,-4.3361,-4.2544,-4.1604,-4.1505,-4.0655,-3.9697,-3.9697,-3.9697,-3.9697,-3.9697,-3.9697,-3.9697,-3.9697,-3.9697,-3.9697,-3.9697,-3.9697,-3.9697,-3.9697,-3.9697,-3.9697,-3.9697,-3.9697,-3.9697,-3.9697,-3.9697,-4.0173,-4.1455,-4.2641,-4.3882,-4.5252,-4.5298,-4.4826,-4.374,-4.4642,-4.5207,-4.5115,-4.4116,-4.4022,-4.5207,-4.4116,-4.4595,-4.6975,-4.5779,-4.4549,-4.3361,-4.3266,-4.2035,-3.9697,-3.9697,-3.9697,-2.1456,-2.2106,-2.3205,-2.4722,-2.5512,0.0,0.0,-2.9715,-3.2417,-3.4183,-3.5233,0.0,0.0,0.0,0.0,0.0,0.0,0.0,0.0,-3.8806,-3.9459,-3.9672,-3.9697,-3.9697,-3.9697,-3.9697,-3.9697,-3.9697,-3.9697,-3.9697,-3.9697,-4.0453,-4.0882,-4.0882,-4.2119,-4.2786,-4.2786,-4.2786,-4.2346,-4.1478,-4.0705,-4.0325,-4.0325,-4.0325,-4.0757,-4.1465,-4.1245,-4.1634,-4.2292,-4.1311,-4.0882,-4.0794,-4.0032,-4.0173,-4.0882,-4.0882,-4.169,-4.2882,-4.3693,-4.4256,-4.4549,-4.374,-4.317,-4.2509,-4.0882,-4.007,-3.9697,-3.9697,-3.9697,-3.9697,-3.9697,-3.9697,-3.9697,-3.9697,-3.9697,-3.9697,-3.9697,-3.9697,-3.9697,-3.9697,-3.9697,-3.9697,-3.9697,-4.0364,-4.0882,-4.0882,-4.1555,-4.2217,-4.2738,-4.3218,-4.3975,-4.5252,-4.6107,-4.6403,-4.5928,-4.6299,-4.6594,-4.6594,-4.6107,-4.6062,-4.655,-4.6107,-4.6299,-4.7266,-4.5252,-4.3975,-4.3504,-4.1936,-4.0655,-3.9697,-3.9697,-3.9697,-2.0776,-2.1804,-2.3541,0.0,0.0,0.0,-2.9482,-3.2353,-3.5375,-3.7339,-3.7517,0.0,0.0,0.0,0.0,0.0,0.0,0.0,0.0,-3.8981,-3.9697,-3.9697,-3.9697,-3.9697,-3.9697,-3.9697,-3.9697,-3.9697,-4.0083,-4.0313,-4.0313,-4.1505,-4.2217,-4.2217,-4.3456,-4.4116,-4.4116,-4.4116,-4.3646,-4.2786,-4.1505,-4.0693,-4.0313,-4.0313,-4.0982,-4.2217,-4.2217,-4.2689,-4.3456,-4.2544,-4.1985,-4.1505,-4.0655,-4.0844,-4.1654,-4.2021,-4.3026,-4.421,-4.5115,-4.5644,-4.5779,-4.4503,-4.3834,-4.3122,-4.0932,-4.0032,-3.9697,-3.9697,-3.9697,-3.9697,-3.9697,-3.9697,-3.9697,-3.9697,-3.9697,-3.9697,-3.9697,-3.9697,-3.9697,-3.9697,-4.0032,-4.0313,-4.0313,-4.1369,-4.2217,-4.2217,-4.293,-4.3646,-4.4069,-4.4116,-4.4595,-4.5869,-4.6785,-4.7309,-4.7309,-4.7309,-4.7309,-4.7309,-4.7309,-4.7309,-4.7309,-4.7309,-4.7121,-4.6726,-4.4978,-4.3693,-4.2882,-4.1169,-4.007,-3.9697,-3.9697,-3.9697,-2.2457,-2.2681,0.0,0.0,0.0,0.0,0.0,0.0,-3.54,-3.8707,0.0,-3.6495,-3.4817,0.0,0.0,-3.4672,-3.6571,-3.8002,-3.8002,-3.8981,-3.9685,-3.9697,-3.9697,-3.9697,-3.9749,-3.9749,-3.9749,-3.9736,-4.0882,-4.1604,-4.1604,-4.2834,-4.3504,-4.3504,-4.4734,-4.5403,-4.5403,-4.5403,-4.5403,-4.5403,-4.4116,-4.2834,-4.1604,-4.1604,-4.2315,-4.3504,-4.3504,-4.3551,-4.3551,-4.3504,-4.2786,-4.1604,-4.1604,-4.1654,-4.1789,-4.3074,-4.4303,-4.5403,-4.5403,-4.6255,-4.7062,-4.5779,-4.4549,-4.3266,-4.1985,-4.0693,-3.9697,-3.9697,-3.9697,-3.9697,-3.9697,-3.9697,-3.9697,-3.9697,-3.9697,-3.9697,-3.9697,-3.9697,-3.9697,-3.9697,-4.0743,-4.1604,-4.1604,-4.2689,-4.3504,-4.3504,-4.3551,-4.3975,-4.5252,-4.5403,-4.5928,-4.7164,-4.7309,-4.7309,-4.7309,-4.7309,-4.7309,-4.7309,-4.7309,-4.7309,-4.7309,-4.7309,-4.6682,-4.5403,-4.5403,-4.4116,-4.1604,-4.1604,-4.0932,-3.9697,-3.9697,-3.9697,-2.149,-2.2422,0.0,0.0,0.0,0.0,0.0,0.0,0.0,0.0,0.0,0.0,-3.5917,0.0,0.0,-3.524,-3.6496,-3.7563,-3.7952,-3.8642,-3.9258,-3.9647,-3.9697,-4.0032,-4.0932,-4.1032,-4.1406,-4.2315,-4.2738,-4.293,-4.293,-4.4116,-4.4826,-4.4826,-4.6062,-4.6726,-4.6726,-4.6726,-4.6299,-4.5403,-4.5024,-4.4163,-4.293,-4.293,-4.3646,-4.4826,-4.4826,-4.5358,-4.6107,-4.5207,-4.4069,-4.293,-4.293,-4.3504,-4.4303,-4.4688,-4.5644,-4.6726,-4.6726,-4.6975,-4.6931,-4.478,-4.3834,-4.3122,-4.0932,-3.9981,-3.9697,-3.9697,-3.9697,-3.9697,-3.9697,-3.9697,-3.9697,-3.9697,-3.9697,-3.9697,-3.9697,-3.9697,-3.9697,-3.9697,-4.0743,-4.1604,-4.1604,-4.3409,-4.4826,-4.4826,-4.5584,-4.6299,-4.6682,-4.6726,-4.6873,-4.7251,-4.7309,-4.7309,-4.7309,-4.7309,-4.7309,-4.7309,-4.7309,-4.7309,-4.7309,-4.7309,-4.6682,-4.5403,-4.4503,-4.3266,-4.1604,-4.0693,-4.0083,-3.9697,-3.9697,-3.9697,-2.2658,0.0,0.0,0.0,0.0,0.0,0.0,0.0,0.0,0.0,0.0,0.0,-3.6126,-3.5556,0.0,-3.547,-3.6823,-3.797,-3.8316,-3.9472,-4.0452,-4.0791,-4.1039,-4.1505,-4.2266,-4.2363,-4.2689,-4.3456,-4.3975,-4.4256,-4.4256,-4.5448,-4.6166,-4.6166,-4.6916,-4.7309,-4.7309,-4.7309,-4.6916,-4.6166,-4.6166,-4.5734,-4.4978,-4.4503,-4.4964,-4.6166,-4.6166,-4.6594,-4.7207,-4.5928,-4.4964,-4.4256,-4.4256,-4.4734,-4.5448,-4.5973,-4.6638,-4.7309,-4.7309,-4.7309,-4.6873,-4.4303,-4.3504,-4.3026,-4.0453,-3.9697,-3.9697,-3.9697,-3.9697,-3.9697,-3.9697,-3.9697,-3.9697,-3.9697,-3.9697,-3.9697,-3.9697,-3.9697,-3.9839,-4.0364,-4.1455,-4.2509,-4.3026,-4.478,-4.6166,-4.6166,-4.6829,-4.7309,-4.7309,-4.7309,-4.7309,-4.7309,-4.7309,-4.7309,-4.7309,-4.7309,-4.7309,-4.7309,-4.6829,-4.6535,-4.6535,-4.6535,-4.5734,-4.3929,-4.3122,-4.2119,-4.0844,-4.0083,-3.9697,-3.9697,-3.9697,-3.9697,0.0,0.0,0.0,0.0,0.0,0.0,0.0,0.0,0.0,0.0,0.0,0.0,0.0,-3.5157,-3.5039,-3.5621,-3.7472,-3.8866,-3.9045,-4.0941,-4.2361,-4.2416,-4.2959,-4.3399,-4.3549,-4.3563,-4.3685,-4.3821,-4.4918,-4.5584,-4.5584,-4.6682,-4.7309,-4.7309,-4.7309,-4.7309,-4.7309,-4.7309,-4.7309,-4.7309,-4.7309,-4.7309,-4.7251,-4.6107,-4.6211,-4.7309,-4.7309,-4.7309,-4.7207,-4.6062,-4.5584,-4.5584,-4.5584,-4.5584,-4.5734,-4.6873,-4.7309,-4.7309,-4.7309,-4.7309,-4.6873,-4.4303,-4.3504,-4.3026,-4.0453,-3.9697,-3.9697,-3.9697,-3.9697,-3.9697,-3.9697,-3.9697,-3.9697,-3.9697,-3.9697,-3.9697,-3.9697,-3.9788,-4.0224,-4.1356,-4.2738,-4.4022,-4.5207,-4.6447,-4.7309,-4.7309,-4.7309,-4.7309,-4.7309,-4.7309,-4.7309,-4.7309,-4.7309,-4.7309,-4.7309,-4.7309,-4.7251,-4.7121,-4.6018,-4.5298,-4.507,-4.5161,-4.4069,-4.1654,-4.1604,-4.0982,-3.9697,-3.9697,-3.9697,-3.9697,-3.9697,-3.9697,0.0,0.0,0.0,0.0,0.0,0.0,0.0,0.0,0.0,0.0,0.0,0.0,0.0,-3.6094,-3.6358,-3.7391,-3.7965,-3.8756,-4.0105,-4.0752,-4.1231,-4.1668,-4.1833,-4.2522,-4.4058,-4.4191,-4.4825,-4.6359,-4.6726,-4.6873,-4.6873,-4.7164,-4.7309,-4.7309,-4.7309,-4.7309,-4.7309,-4.7309,-4.7309,-4.7309,-4.7309,-4.7309,-4.7309,-4.7019,-4.7019,-4.7309,-4.7309,-4.7309,-4.7266,-4.7019,-4.6873,-4.6873,-4.6873,-4.6873,-4.6916,-4.7207,-4.7309,-4.7309,-4.7309,-4.7309,-4.6873,-4.4303,-4.3504,-4.3026,-4.0453,-3.9697,-3.9697,-3.9697,-3.9697,-3.9697,-3.9697,-3.9697,-3.9697,-3.9697,-3.9697,-3.9697,-3.9697,-4.0503,-4.1269,-4.1555,-4.3456,-4.507,-4.5358,-4.6447,-4.7309,-4.7309,-4.7309,-4.7309,-4.7309,-4.7309,-4.7309,-4.7309,-4.7309,-4.7309,-4.7309,-4.7309,-4.6873,-4.5869,-4.5539,-4.4503,-4.2509,-4.3361,-4.317,-4.1654,-4.1604,-4.0982,-3.9697,-3.9697,-3.9697,-3.9697,-3.9697,-3.9697,0.0,0.0,0.0,0.0,0.0,0.0,0.0,0.0,0.0,0.0,0.0,0.0,-3.6706,-3.7062,-3.7586,-3.8783,-3.942,-4.0085,-4.1026,-4.1896,-4.2524,-4.2797,-4.3098,-4.3733,-4.4732,-4.5112,-4.5725,-4.6715,-4.713,-4.7309,-4.7309,-4.7309,-4.7309,-4.7309,-4.7309,-4.7309,-4.7309,-4.7309,-4.7309,-4.7309,-4.7309,-4.7309,-4.7309,-4.7309,-4.7309,-4.7309,-4.7309,-4.7309,-4.7309,-4.7309,-4.7309,-4.7309,-4.7309,-4.7309,-4.7309,-4.7309,-4.7309,-4.7309,-4.7309,-4.6916,-4.6062,-4.4116,-4.3074,-4.2217,-4.0262,-3.9697,-3.9697,-3.9697,-3.9697,-3.9697,-3.9697,-3.9697,-3.9697,-3.9697,-3.9697,-3.989,-4.0453,-4.1119,-4.1985,-4.317,-4.4503,-4.5584,-4.6211,-4.6873,-4.7309,-4.7309,-4.7309,-4.7309,-4.7309,-4.7309,-4.7309,-4.7309,-4.7309,-4.7309,-4.7309,-4.6726,-4.6107,-4.5448,-4.4256,-4.2978,-4.1654,-4.1654,-4.1369,-4.0693,-4.0693,-4.0364,-3.9697,-3.9697,-3.9697,-3.9697,-3.9697,-3.9697,0.0,0.0,0.0,0.0,0.0,0.0,0.0,0.0,0.0,0.0,0.0,0.0,-3.7356,-3.7945,-3.8662,-4.0002,-4.1,-4.167,-4.185,-4.3183,-4.4152,-4.4152,-4.4631,-4.5005,-4.511,-4.5633,-4.6022,-4.6142,-4.6651,-4.695,-4.695,-4.707,-4.713,-4.713,-4.7249,-4.7309,-4.7309,-4.7309,-4.7309,-4.7309,-4.7309,-4.7309,-4.7309,-4.7309,-4.7309,-4.7309,-4.7309,-4.7309,-4.7309,-4.7309,-4.7309,-4.7309,-4.7309,-4.7309,-4.7309,-4.7309,-4.7309,-4.7266,-4.7062,-4.6299,-4.5161,-4.3646,-4.2461,-4.1369,-4.007,-3.9697,-3.9697,-3.9697,-3.9697,-3.9697,-3.9697,-3.9697,-3.9736,-3.9981,-4.0032,-4.0313,-4.1369,-4.1936,-4.2882,-4.4978,-4.5584,-4.6062,-4.7121,-4.7309,-4.7309,-4.7309,-4.7309,-4.7309,-4.7309,-4.7309,-4.7309,-4.7309,-4.7309,-4.7309,-4.7309,-4.6107,-4.5298,-4.507,-4.2882,-4.1505,-4.1269,-4.0262,-3.9697,-3.9697,-3.9697,-3.9697,-3.9697,-3.9697,-3.9697,-3.9697,-3.9697,-3.9697,0.0,0.0,0.0,0.0,0.0,0.0,0.0,0.0,0.0,0.0,0.0,0.0,-3.8394,-3.8759,-3.9378,-4.1069,-4.1504,-4.1932,-4.2941,-4.3285,-4.3424,-4.3424,-4.3499,-4.3783,-4.4392,-4.4526,-4.4825,-4.5394,-4.5514,-4.5559,-4.5559,-4.6127,-4.6414,-4.6414,-4.701,-4.7309,-4.7309,-4.7309,-4.7309,-4.7309,-4.7309,-4.7309,-4.7309,-4.7309,-4.7309,-4.7309,-4.7309,-4.7309,-4.7309,-4.7309,-4.7309,-4.7309,-4.7309,-4.7309,-4.7309,-4.7309,-4.7309,-4.7164,-4.6018,-4.5539,-4.5024,-4.2641,-4.1739,-4.1369,-4.007,-3.9697,-3.9697,-3.9697,-3.9697,-3.9697,-3.9697,-3.9697,-3.9981,-4.1082,-4.1369,-4.1406,-4.1555,-4.3313,-4.4978,-4.5358,-4.6299,-4.7121,-4.7266,-4.7309,-4.7309,-4.7309,-4.7309,-4.7309,-4.7309,-4.7309,-4.7309,-4.7309,-4.7309,-4.7309,-4.7309,-4.6107,-4.4918,-4.3834,-4.2412,-4.1082,-3.9981,-3.9788,-3.9697,-3.9697,-3.9697,-3.9697,-3.9697,-3.9697,-3.9697,-3.9697,-3.9697,-3.9697,0.0,0.0,0.0,0.0,0.0,0.0,0.0,0.0,0.0,0.0,0.0,-3.7503,-3.8617,-3.9417,-4.0313,-4.1799,-4.2313,-4.2725,-4.325,-4.329,-4.329,-4.329,-4.329,-4.3409,-4.3693,-4.4092,-4.4436,-4.4721,-4.5095,-4.5289,-4.5289,-4.5589,-4.5753,-4.5753,-4.6022,-4.6187,-4.6187,-4.6187,-4.6381,-4.6756,-4.713,-4.7309,-4.7309,-4.7309,-4.7309,-4.7309,-4.7309,-4.7309,-4.7309,-4.7309,-4.7309,-4.7309,-4.7309,-4.7309,-4.7309,-4.7309,-4.7309,-4.7121,-4.5824,-4.4918,-4.4022,-4.2217,-4.1119,-4.0415,-3.989,-3.9697,-3.9697,-3.9697,-3.9697,-3.9697,-3.9697,-4.0224,-4.0882,-4.1455,-4.2689,-4.374,-4.374,-4.4595,-4.5584,-4.6344,-4.6916,-4.7309,-4.7309,-4.7309,-4.7309,-4.7309,-4.7309,-4.7309,-4.7309,-4.7309,-4.7309,-4.7309,-4.7309,-4.7019,-4.6299,-4.507,-4.3787,-4.2509,-4.1219,-4.0262,-3.9749,-3.9697,-3.9697,-3.9697,-3.9697,-3.9697,-3.9697,-3.9697,-3.9697,-3.9749,-4.0415,-4.0743,0.0,0.0,0.0,0.0,0.0,0.0,0.0,0.0,0.0,0.0,0.0,-3.8379,-3.8859,-3.9848,-4.0958,-4.2219,-4.2776,-4.3135,-4.3275,-4.329,-4.329,-4.329,-4.329,-4.329,-4.329,-4.3738,-4.4062,-4.4062,-4.4526,-4.4796,-4.4796,-4.4945,-4.505,-4.505,-4.5214,-4.5289,-4.5289,-4.5289,-4.5559,-4.6067,-4.6741,-4.7055,-4.7055,-4.7234,-4.7309,-4.7309,-4.7309,-4.7309,-4.7309,-4.7309,-4.7309,-4.7309,-4.7309,-4.7121,-4.6829,-4.6829,-4.6594,-4.6166,-4.4872,-4.3834,-4.2786,-4.1555,-4.0453,-3.9697,-3.9697,-3.9697,-3.9697,-3.9697,-3.9697,-3.9697,-3.9697,-4.0642,-4.169,-4.2035,-4.3787,-4.5494,-4.5824,-4.5869,-4.6166,-4.7121,-4.7309,-4.7309,-4.7309,-4.7309,-4.7309,-4.7309,-4.7309,-4.7309,-4.7309,-4.7309,-4.7309,-4.7309,-4.7309,-4.6785,-4.5494,-4.421,-4.2978,-4.169,-4.0415,-3.9697,-3.9697,-3.9697,-3.9697,-3.9697,-3.9697,-3.9697,-3.9697,-3.9697,-3.989,-4.0224,-4.1169,-4.1789,0.0,0.0,0.0,0.0,0.0,0.0,0.0,0.0,0.0,0.0,0.0,-3.9316,-3.9346,-3.9949,-4.0868,-4.2186,-4.2425,-4.2626,-4.32,-4.329,-4.329,-4.329,-4.329,-4.329,-4.329,-4.3319,-4.3349,-4.3349,-4.3379,-4.3394,-4.3394,-4.3992,-4.4362,-4.4362,-4.4975,-4.5289,-4.5289,-4.5289,-4.5319,-4.5349,-4.6037,-4.6324,-4.6354,-4.7025,-4.7309,-4.7309,-4.7309,-4.7309,-4.7309,-4.7309,-4.7309,-4.7309,-4.7309,-4.655,-4.5494,-4.5494,-4.4734,-4.3504,-4.2217,-4.1739,-4.1505,-4.0224,-3.9736,-3.9697,-3.9697,-3.9697,-3.9697,-3.9697,-3.9697,-3.9697,-3.9697,-4.0642,-4.1887,-4.3122,-4.4396,-4.5734,-4.6931,-4.7207,-4.7207,-4.7309,-4.7309,-4.7309,-4.7309,-4.7309,-4.7309,-4.7309,-4.7309,-4.7309,-4.7309,-4.7309,-4.7309,-4.7309,-4.7309,-4.6785,-4.5494,-4.421,-4.2978,-4.169,-4.0415,-3.9697,-3.9697,-3.9697,-3.9697,-3.9697,-3.9697,-3.9697,-3.9697,-3.9697,-4.0313,-4.1505,-4.1555,-4.2266,0.0,0.0,0.0,0.0,0.0,0.0,0.0,0.0,0.0,0.0,0.0,-3.8751,-3.8751,-3.9664,-4.0561,-4.1025,-4.1497,-4.1991,-4.2611,-4.2701,-4.2865,-4.3245,-4.329,-4.329,-4.329,-4.329,-4.329,-4.329,-4.329,-4.329,-4.329,-4.3514,-4.3648,-4.3648,-4.3873,-4.4032,-4.4032,-4.4451,-4.4661,-4.4676,-4.5349,-4.5903,-4.6294,-4.6576,-4.6905,-4.7309,-4.7309,-4.7309,-4.7309,-4.7309,-4.7309,-4.7207,-4.6403,-4.5779,-4.5298,-4.4503,-4.3882,-4.3313,-4.2035,-4.1604,-4.1406,-4.0121,-3.9697,-3.9697,-3.9697,-3.9697,-3.9697,-3.9697,-3.9697,-3.989,-4.0693,-4.1838,-4.3361,-4.5448,-4.6299,-4.6726,-4.7207,-4.7309,-4.7309,-4.7309,-4.7309,-4.7309,-4.7309,-4.7309,-4.7309,-4.7309,-4.7309,-4.7309,-4.7309,-4.7309,-4.7309,-4.7309,-4.6594,-4.5539,-4.4303,-4.3026,-4.1739,-4.0453,-3.9929,-3.9697,-3.9697,-3.9697,-3.9697,-3.9697,-4.0503,-4.0932,-4.0932,-4.0932,-4.1555,-4.2834,-4.3646,-4.3834,-2.3114,0.0,0.0,0.0,0.0,0.0,0.0,0.0,0.0,0.0,0.0,-3.8123,-3.8347,-3.9125,-3.9873,-4.0337,-4.0771,-4.128,-4.1976,-4.2066,-4.2321,-4.2925,-4.3015,-4.309,-4.3275,-4.329,-4.329,-4.329,-4.329,-4.329,-4.329,-4.329,-4.329,-4.329,-4.329,-4.329,-4.329,-4.3723,-4.3947,-4.3947,-4.4646,-4.52,-4.5622,-4.5873,-4.6337,-4.698,-4.698,-4.71,-4.7309,-4.7309,-4.7309,-4.7164,-4.5928,-4.5161,-4.4595,-4.3313,-4.2593,-4.2119,-4.1269,-4.0982,-4.0844,-3.9981,-3.9697,-3.9697,-3.9697,-3.9697,-3.9788,-4.0224,-4.0364,-4.0655,-4.1936,-4.317,-4.4688,-4.6785,-4.7309,-4.7309,-4.7309,-4.7309,-4.7309,-4.7309,-4.7309,-4.7309,-4.7309,-4.7309,-4.7309,-4.7309,-4.7309,-4.7309,-4.7309,-4.7309,-4.7164,-4.6726,-4.5913,-4.4688,-4.3026,-4.207,-4.1082,-3.9788,-3.9697,-3.9697,-3.9697,-3.9697,-3.989,-4.0313,-4.1169,-4.2035,-4.2882,-4.2461,-4.2882,-4.4163,-4.4595,-4.4069,0.0,0.0,0.0,0.0,0.0,0.0,0.0,0.0,0.0,0.0,0.0,-3.7539,-3.8212,-3.8347,-3.8796,-4.0127,-4.0352,-4.0591,-4.1265,-4.1354,-4.1632,-4.2291,-4.2366,-4.2581,-4.317,-4.3245,-4.326,-4.326,-4.329,-4.329,-4.329,-4.329,-4.329,-4.329,-4.329,-4.329,-4.329,-4.329,-4.329,-4.3305,-4.3947,-4.4287,-4.4332,-4.4975,-4.5648,-4.6249,-4.6264,-4.6696,-4.7279,-4.7294,-4.7309,-4.7164,-4.5869,-4.4595,-4.3361,-4.2035,-4.0743,-3.9697,-3.9697,-3.9697,-3.9697,-3.9697,-3.9697,-3.9697,-3.9697,-3.9697,-3.9981,-4.1219,-4.1604,-4.1887,-4.3218,-4.4503,-4.5779,-4.7019,-4.7309,-4.7309,-4.7309,-4.7309,-4.7309,-4.7309,-4.7309,-4.7309,-4.7309,-4.7309,-4.7309,-4.7309,-4.7309,-4.7309,-4.7309,-4.7309,-4.6829,-4.5539,-4.5358,-4.4303,-4.1789,-4.1555,-4.1032,-3.9788,-3.9697,-3.9697,-3.9697,-3.9736,-4.0364,-4.1604,-4.1654,-4.293,-4.5358,-4.4116,-4.421,-4.5358,-4.4069,-4.2786,-2.2493,0.0,0.0,0.0,0.0,0.0,0.0,0.0,0.0,0.0,0.0,-3.5639,-3.6791,-3.7375,-3.7958,-3.8811,-3.9364,-3.9918,-4.0576,-4.0666,-4.092,-4.1617,-4.1692,-4.1728,-4.1908,-4.2342,-4.2626,-4.2626,-4.306,-4.329,-4.329,-4.329,-4.329,-4.329,-4.329,-4.329,-4.329,-4.329,-4.329,-4.329,-4.3484,-4.3813,-4.4332,-4.4496,-4.4945,-4.5603,-4.6112,-4.6426,-4.6636,-4.7115,-4.7309,-4.7062,-4.4872,-4.3834,-4.3218,-4.1032,-3.9981,-3.9697,-3.9697,-3.9697,-3.9697,-3.9697,-3.9697,-3.9697,-3.9697,-3.9697,-3.9981,-4.1219,-4.1604,-4.2119,-4.4303,-4.5824,-4.6873,-4.7207,-4.7309,-4.7309,-4.7309,-4.7309,-4.7309,-4.7309,-4.7309,-4.7309,-4.7309,-4.7309,-4.7309,-4.7309,-4.7309,-4.7309,-4.7309,-4.7309,-4.6829,-4.5539,-4.4595,-4.3361,-4.1739,-4.0743,-4.007,-3.9749,-3.9697,-3.9697,-3.9697,-4.0605,-4.1219,-4.1604,-4.3409,-4.4256,-4.4022,-4.4595,-4.507,-4.5358,-4.317,-4.1936,-2.3655,-2.4253,-2.5217,0.0,0.0,0.0,0.0,-3.0178,0.0,0.0,0.0,-3.4923,-3.6237,-3.6791,-3.7225,-3.7883,-3.8556,-3.923,-3.9903,-3.9993,-4.0232,-4.0891,-4.0965,-4.107,-4.1354,-4.1767,-4.1991,-4.1991,-4.2297,-4.2641,-4.291,-4.2925,-4.3045,-4.329,-4.329,-4.329,-4.329,-4.329,-4.329,-4.329,-4.329,-4.3484,-4.3858,-4.3858,-4.4272,-4.49,-4.5319,-4.5756,-4.6309,-4.6741,-4.6722,-4.6299,-4.4303,-4.317,-4.2461,-4.0465,-3.9697,-3.9697,-3.9697,-3.9697,-3.9697,-3.9697,-3.9697,-3.9788,-4.0313,-4.0503,-4.0882,-4.2689,-4.3551,-4.4303,-4.5824,-4.6726,-4.7309,-4.7309,-4.7309,-4.7309,-4.7309,-4.7309,-4.7309,-4.7309,-4.7309,-4.7309,-4.7309,-4.7309,-4.7309,-4.7309,-4.7309,-4.7309,-4.7309,-4.6829,-4.6018,-4.4734,-4.3456,-4.2168,-4.0932,-4.0121,-3.9697,-3.9697,-3.9697,-3.9929,-4.0453,-4.1219,-4.2119,-4.317,-4.4642,-4.5024,-4.4303,-4.5024,-4.4826,-4.3787,-4.2315,-4.1319,-2.5105,-2.5472,-2.6422,-2.7993,-2.72,0.0,-3.0866,-3.0567,-3.0325,0.0,0.0,-3.4399,-3.5789,-3.6043,-3.6267,-3.6971,-3.7644,-3.8362,-3.9185,-3.9328,-3.9634,-4.0217,-4.0292,-4.0516,-4.1115,-4.1235,-4.1265,-4.1265,-4.1339,-4.1677,-4.2261,-4.2291,-4.259,-4.317,-4.3185,-4.3215,-4.329,-4.329,-4.329,-4.329,-4.329,-4.329,-4.329,-4.329,-4.3618,-4.4212,-4.4287,-4.499,-4.607,-4.6077,-4.5815,-4.5252,-4.4022,-4.2738,-4.1455,-4.0173,-3.9697,-3.9697,-3.9697,-3.9697,-3.9697,-3.9697,-3.9697,-3.9929,-4.1219,-4.1604,-4.2119,-4.4688,-4.6299,-4.7309,-4.7309,-4.7309,-4.7309,-4.7309,-4.7309,-4.7309,-4.7309,-4.7309,-4.7309,-4.7309,-4.7309,-4.7309,-4.7309,-4.7309,-4.7309,-4.7309,-4.7309,-4.7309,-4.7309,-4.6211,-4.4918,-4.3646,-4.2363,-4.1082,-3.9788,-3.9697,-3.9697,-3.9697,-3.9697,-4.0262,-4.1555,-4.1739,-4.293,-4.5358,-4.5252,-4.5207,-4.5207,-4.507,-4.3834,-4.1604,-4.1455,-4.0794,-2.7115,-2.7914,-2.8543,-2.729,-2.7904,0.0,-2.723,-2.7904,-2.8981,0.0,0.0,0.0,-3.2946,-3.329,-3.3679,-3.4861,-3.5624,-3.6656,-3.8362,-3.9065,-3.9433,-3.9589,-3.9619,-3.9664,-3.9783,-4.0277,-4.0591,-4.0591,-4.1085,-4.1482,-4.1602,-4.1617,-4.1916,-4.256,-4.259,-4.2806,-4.329,-4.329,-4.329,-4.329,-4.329,-4.329,-4.329,-4.329,-4.3364,-4.3514,-4.4092,-4.4466,-4.4698,-4.4776,-4.502,-4.5252,-4.4022,-4.2738,-4.1455,-4.0173,-3.9697,-3.9697,-3.9697,-3.9697,-3.9697,-3.9697,-3.9697,-3.9929,-4.1219,-4.1604,-4.2119,-4.4688,-4.6299,-4.7309,-4.7309,-4.7309,-4.7309,-4.7309,-4.7309,-4.7309,-4.7309,-4.7309,-4.7309,-4.7309,-4.7309,-4.7309,-4.7309,-4.7309,-4.7309,-4.7309,-4.7309,-4.7309,-4.7309,-4.6211,-4.4918,-4.3646,-4.2363,-4.1082,-3.9788,-3.9697,-3.9697,-3.9697,-3.9697,-4.0262,-4.1555,-4.2593,-4.3834,-4.5358,-4.4396,-4.3882,-4.3882,-4.2834,-4.207,-4.1604,-4.0554,-3.9929,-2.8693,-2.9097,-2.9442,-2.8712,-2.8562,0.0,0.0,-2.8308,-2.8652,-3.0642,-3.0507,0.0,0.0,0.0,-3.2841,-3.3829,-3.4831,-3.5848,-3.6821,-3.7793,-3.8407,-3.8407,-3.8407,-3.8542,-3.8871,-3.92,-3.9544,-3.9888,-4.0217,-4.0546,-4.0876,-4.0891,-4.119,-4.1886,-4.1916,-4.2231,-4.2836,-4.2851,-4.3015,-4.329,-4.329,-4.329,-4.329,-4.329,-4.329,-4.3305,-4.3648,-4.4003,-4.428,-4.373,-4.3695,-4.3881,-4.2917,-4.1789,-4.0605,-3.9929,-3.9697,-3.9697,-3.9697,-3.9697,-3.9788,-4.0465,-4.0642,-4.0982,-4.293,-4.3929,-4.4688,-4.5973,-4.6829,-4.7309,-4.7309,-4.7309,-4.7309,-4.7309,-4.7309,-4.7309,-4.7309,-4.7309,-4.7309,-4.7309,-4.7309,-4.7309,-4.7309,-4.7309,-4.7309,-4.7309,-4.7309,-4.7062,-4.6447,-4.5252,-4.3975,-4.2689,-4.1406,-4.0415,-3.9736,-3.9697,-3.9697,-3.9697,-4.0313,-4.1219,-4.2509,-4.3787,-4.507,-4.6299,-4.4456,-4.3504,-4.3504,-4.1604,-4.0642,-4.0655,-3.9981,-3.9697,-3.0401,-3.046,-3.055,-3.0507,-2.9609,-2.9067,0.0,0.0,0.0,-3.1779,0.0,0.0,0.0,0.0,0.0,0.0,0.0,0.0,0.0,-3.5744,0.0,-3.718,-3.7345,-3.7614,-3.8138,-3.8093,-3.8362,-3.9155,-3.911,-3.9379,-4.0172,-4.0217,-4.0502,-4.1175,-4.119,-4.1542,-4.2201,-4.2336,-4.2626,-4.315,-4.323,-4.329,-4.329,-4.329,-4.329,-4.329,-4.329,-4.3453,-4.3686,-4.2649,-4.2064,-4.1758,-4.1546,-4.0741,-3.9697,-3.9697,-3.9697,-3.9697,-3.9697,-3.9839,-4.0224,-4.1269,-4.1936,-4.2738,-4.478,-4.6299,-4.7309,-4.7309,-4.7309,-4.7309,-4.7309,-4.7309,-4.7309,-4.7309,-4.7309,-4.7309,-4.7309,-4.7309,-4.7309,-4.7309,-4.7309,-4.7309,-4.7309,-4.7309,-4.7309,-4.7309,-4.7062,-4.655,-4.5539,-4.4069,-4.2738,-4.169,-4.0453,-3.9697,-3.9697,-3.9697,-3.9788,-4.0032,-4.1032,-4.2266,-4.3787,-4.507,-4.6255,-4.7266,-4.478,-4.3504,-4.3504,-4.0932,-3.9697,-3.9697,-3.9697,-3.9839,-3.2986,-3.35,-3.3395,-3.1076,-3.1674,-3.1824,-2.8008,0.0,-2.9804,-2.8543,0.0,0.0,0.0,0.0,0.0,0.0,0.0,0.0,-3.1944,-3.2587,-3.3948,-3.6312,-3.7075,-3.7434,-3.7509,-3.703,-3.721,-3.8422,-3.7958,-3.8197,-3.9469,-3.9493,-3.9828,-4.0487,-4.0502,-4.0831,-4.1527,-4.2111,-4.2425,-4.2515,-4.3045,-4.329,-4.329,-4.329,-4.329,-4.329,-4.329,-4.2769,-4.187,-4.1192,-4.03,-3.9422,-4.0499,-4.0404,-3.9697,-3.9697,-3.9697,-3.9697,-3.9697,-4.0465,-4.1406,-4.1555,-4.3122,-4.5024,-4.5298,-4.6299,-4.7309,-4.7309,-4.7309,-4.7309,-4.7309,-4.7309,-4.7309,-4.7309,-4.7309,-4.7309,-4.7309,-4.7309,-4.7309,-4.7309,-4.7309,-4.7309,-4.7309,-4.7309,-4.7309,-4.7309,-4.6344,-4.5539,-4.5403,-4.3313,-4.1739,-4.1604,-4.0453,-3.9697,-3.9697,-3.9697,-4.0173,-4.1319,-4.1505,-4.2689,-4.507,-4.6403,-4.7164,-4.7309,-4.478,-4.3504,-4.3504,-4.0932,-3.9697,-3.9697,-3.9697,-4.0313,-3.3447,-3.3978,-3.4054,-3.2138,-3.2018,-3.1749,-2.94,-2.8831,-2.9011,-2.9729,0.0,0.0,0.0,0.0,0.0,0.0,-3.0746,0.0,0.0,0.0,-3.2647,0.0,0.0,0.0,-3.6193,-3.6417,-3.6866,-3.7749,-3.7225,-3.7449,-3.8751,-3.9308,-3.9662,-3.9813,-4.0309,-4.0663,-4.0801,-4.1085,-4.1647,-4.2396,-4.2641,-4.297,-4.329,-4.329,-4.329,-4.329,-4.329,-4.2644,-4.1518,-4.0626,-3.9708,-3.8891,-3.8752,-3.895,-3.9258,-3.9584,-3.9697,-3.9788,-4.0554,-4.1169,-4.1838,-4.3313,-4.5024,-4.6491,-4.6491,-4.6873,-4.7309,-4.7309,-4.7722,-4.8183,-4.8183,-4.8183,-4.8183,-4.8183,-4.7722,-4.7309,-4.7309,-4.7309,-4.7309,-4.7309,-4.7309,-4.7309,-4.7309,-4.7309,-4.7309,-4.7309,-4.6211,-4.5115,-4.4396,-4.2738,-4.1319,-4.0605,-4.0032,-3.9697,-3.9697,-4.0364,-4.1032,-4.1555,-4.2978,-4.4642,-4.6447,-4.7019,-4.6975,-4.6211,-4.4396,-4.3122,-4.2412,-4.0605,-3.9697,-3.9749,-4.0453,-4.1082,-3.4016,-3.4397,-3.4352,-3.2632,-3.1854,-3.1182,-2.9983,-2.9037,-2.8921,-3.0823,-3.0552,0.0,0.0,0.0,-3.0417,-3.0492,0.0,-3.0387,0.0,-3.0389,0.0,0.0,0.0,0.0,0.0,-3.522,-3.5804,-3.6806,-3.6297,-3.6667,-3.8364,-3.9035,-3.9356,-3.9451,-4.0024,-4.0289,-4.0127,-4.0307,-4.0876,-4.1871,-4.2231,-4.265,-4.3075,-4.32,-4.329,-4.329,-4.329,-4.2467,-4.1085,-4.0232,-3.9217,-3.813,-3.7483,-3.7776,-3.8705,-3.927,-3.9803,-4.0364,-4.1269,-4.207,-4.2978,-4.5207,-4.6535,-4.7309,-4.7309,-4.7309,-4.7309,-4.7309,-4.803,-4.8784,-4.8784,-4.8784,-4.8784,-4.8784,-4.803,-4.7309,-4.7309,-4.7309,-4.7309,-4.7309,-4.7309,-4.7309,-4.7309,-4.7019,-4.6785,-4.6785,-4.5403,-4.4022,-4.3122,-4.1887,-4.0693,-3.9788,-3.9697,-3.9697,-3.9697,-4.0882,-4.1887,-4.2593,-4.4688,-4.6344,-4.7251,-4.7309,-4.6682,-4.5403,-4.4163,-4.2882,-4.1604,-4.0313,-3.989,-4.0224,-4.1169,-4.1789,-3.5444,-3.5459,-3.4846,-3.2183,-3.1525,-3.0823,-2.8274,-2.9112,-3.0432,-3.0507,-3.2033,-3.335,-3.3425,-3.2871,-3.2003,-3.0717,-3.0507,0.0,0.0,0.0,0.0,0.0,0.0,0.0,0.0,-3.3006,-3.3455,-3.5415,-3.4921,-3.5755,-3.8452,-3.8501,-3.8795,-3.9578,-3.9496,-3.9424,-3.9418,-4.0083,-4.0427,-4.0472,-4.1796,-4.241,-4.2455,-4.3045,-4.329,-4.329,-4.329,-4.2044,-3.9942,-3.9899,-3.8541,-3.6528,-3.7021,-3.7525,-3.8103,-3.868,-4.0041,-4.1555,-4.1604,-4.3218,-4.5494,-4.6829,-4.7266,-4.7309,-4.7309,-4.7309,-4.7309,-4.7309,-4.803,-4.8784,-4.8784,-4.8784,-4.8784,-4.8784,-4.803,-4.7309,-4.7309,-4.7309,-4.7309,-4.7309,-4.7309,-4.7309,-4.7309,-4.6299,-4.5448,-4.5448,-4.3313,-4.169,-4.1654,-4.0554,-3.9736,-3.9697,-3.9697,-3.9697,-3.9697,-4.0882,-4.2641,-4.5115,-4.6491,-4.7251,-4.7309,-4.7309,-4.6682,-4.5403,-4.4163,-4.2882,-4.1604,-4.0313,-4.0313,-4.1555,-4.1604,-4.2266,-3.6761,-3.709,-3.6791,-3.4143,-3.3155,-3.2138,-2.9532,-2.9729,-3.0507,-3.0507,-3.2093,-3.3499,-3.3499,-3.2961,-3.2198,-3.1301,-3.0447,-2.943,0.0,0.0,0.0,0.0,0.0,0.0,0.0,0.0,-3.2976,-3.4098,-3.3963,-3.4823,-3.7104,-3.7659,-3.8211,-3.8784,-3.9322,-3.9534,-3.9409,-3.9634,-3.9963,-4.0412,-4.0846,-4.1557,-4.241,-4.262,-4.2925,-4.329,-4.329,-4.2003,-3.9899,-3.9899,-3.8527,-3.643,-3.6619,-3.7473,-3.8705,-3.9774,-4.0772,-4.1838,-4.3551,-4.5207,-4.6726,-4.7164,-4.7309,-4.7309,-4.7309,-4.7764,-4.8293,-4.8293,-4.9536,-5.0838,-5.0838,-5.0342,-4.9852,-4.9852,-4.8543,-4.7309,-4.7309,-4.7309,-4.7309,-4.7309,-4.7309,-4.7309,-4.7309,-4.5539,-4.4442,-4.5252,-4.3218,-4.1604,-4.1604,-4.0503,-3.9697,-3.9697,-3.9697,-4.0032,-4.0882,-4.2882,-4.4826,-4.6535,-4.7062,-4.7309,-4.7309,-4.6491,-4.5448,-4.4163,-4.2882,-4.1604,-4.0364,-3.9929,-4.0364,-4.1604,-4.2461,-4.3551,-3.7404,-3.7719,-3.7524,-3.5385,-3.4517,-3.3574,-3.118,-3.13,-3.1913,-3.1913,-3.314,-3.4277,-3.4517,-3.3814,-3.2841,-3.169,-3.0612,-2.9307,0.0,-2.6716,0.0,0.0,0.0,0.0,0.0,0.0,-3.1689,-3.3036,-3.2931,-3.3772,-3.6076,-3.6865,-3.7646,-3.847,-3.8971,-3.9306,-3.9409,-3.9388,-3.9634,-4.0053,-4.0292,-4.0846,-4.1707,-4.2186,-4.262,-4.3,-4.32,-4.2003,-3.9899,-3.9899,-3.8527,-3.6452,-3.6849,-3.7764,-3.905,-4.0108,-4.1534,-4.3266,-4.5358,-4.6594,-4.7309,-4.7309,-4.7309,-4.7381,-4.7722,-4.8293,-4.8866,-4.9256,-5.0611,-5.1813,-5.1467,-5.0892,-5.0281,-4.9931,-4.8543,-4.7309,-4.7309,-4.7309,-4.7309,-4.7309,-4.7309,-4.7309,-4.7309,-4.5539,-4.4442,-4.5252,-4.2834,-4.1082,-4.1555,-4.0503,-3.9697,-3.9697,-4.0121,-4.1082,-4.2786,-4.4456,-4.5928,-4.7207,-4.7309,-4.7309,-4.7309,-4.6491,-4.5252,-4.3551,-4.2689,-4.1406,-3.9697,-3.9697,-4.0605,-4.2315,-4.3122,-4.4442]},{"header":{"parameterUnit":"m.s-1","parameterCategory":1,"la1":30.6,"la2":29.2853,"lo1":-89.7004,"lo2":-87.6739,"dy":0.0162,"dx":0.0183,"nx":112,"ny":82,"refTime":"2024-05-26T06:00:00:Z","depth":0,"parameterNumber":3,"parameterNumberName":"V-component_of_WINDS"},"data":[0.0,0.0,0.0,0.0,0.0,0.0,0.0,0.0,0.0,0.0,0.0,0.0,0.0,0.0,0.0,0.0,0.0,0.0,0.0,0.0,0.0,0.0,0.0,0.0,0.0,0.0,0.0,0.0,0.0,0.0,0.0,0.0,0.0,0.0,0.0,0.0,0.0,0.0,0.0,0.0,0.0,0.0,0.0,0.0,0.0,0.0,0.0,0.0,0.0,0.0,0.0,0.0,0.0,0.0,0.0,0.0,0.0,0.0,0.0,0.0,0.0,0.0,0.0,0.0,0.0,0.0,0.0,0.0,0.0,0.0,0.0,0.0,0.0,0.0,0.0,0.0,0.0,0.0,0.0,0.0,0.0,0.0,0.0,0.0,0.0,0.0,0.0,0.0,0.0,0.0,-3.5623,-3.739,-3.969,-4.1035,-4.0952,-4.0461,-3.9172,-3.7,0.0,0.0,0.0,0.0,0.0,0.0,0.0,0.0,0.0,0.0,0.0,0.0,0.0,0.0,0.0,0.0,0.0,0.0,0.0,0.0,0.0,0.0,0.0,0.0,0.0,0.0,0.0,0.0,0.0,0.0,0.0,0.0,0.0,0.0,0.0,0.0,0.0,0.0,0.0,0.0,0.0,0.0,0.0,0.0,0.0,0.0,0.0,0.0,0.0,0.0,0.0,0.0,0.0,0.0,0.0,0.0,0.0,0.0,0.0,0.0,0.0,0.0,0.0,0.0,0.0,0.0,0.0,0.0,0.0,0.0,0.0,0.0,0.0,0.0,0.0,0.0,0.0,0.0,0.0,0.0,0.0,0.0,0.0,0.0,0.0,0.0,0.0,0.0,0.0,0.0,0.0,0.0,0.0,0.0,0.0,0.0,0.0,0.0,0.0,0.0,0.0,0.0,0.0,0.0,-3.6359,-4.1042,-4.2048,-4.22,-4.1598,-4.1308,-4.0139,-3.7691,0.0,0.0,0.0,0.0,0.0,0.0,0.0,0.0,0.0,0.0,0.0,0.0,0.0,0.0,0.0,0.0,0.0,0.0,0.0,0.0,0.0,0.0,0.0,0.0,0.0,0.0,0.0,0.0,0.0,0.0,0.0,0.0,0.0,0.0,0.0,0.0,0.0,0.0,0.0,0.0,0.0,0.0,0.0,0.0,0.0,0.0,0.0,0.0,0.0,0.0,0.0,0.0,0.0,0.0,0.0,0.0,0.0,0.0,0.0,0.0,0.0,0.0,0.0,0.0,0.0,0.0,0.0,0.0,0.0,0.0,0.0,0.0,0.0,0.0,0.0,0.0,0.0,0.0,0.0,0.0,0.0,0.0,0.0,0.0,0.0,0.0,0.0,0.0,0.0,0.0,0.0,0.0,0.0,0.0,0.0,0.0,0.0,0.0,0.0,0.0,0.0,0.0,0.0,-3.6222,-3.8894,-4.349,-4.4399,-4.4384,-4.3733,-4.3217,-4.1733,-3.8811,-3.5776,0.0,0.0,0.0,0.0,0.0,0.0,0.0,0.0,0.0,0.0,0.0,0.0,0.0,0.0,0.0,0.0,0.0,0.0,0.0,0.0,0.0,0.0,0.0,0.0,0.0,0.0,0.0,0.0,0.0,0.0,0.0,0.0,0.0,0.0,0.0,0.0,0.0,0.0,0.0,0.0,0.0,0.0,0.0,0.0,0.0,0.0,0.0,0.0,0.0,0.0,0.0,0.0,0.0,0.0,0.0,0.0,0.0,0.0,0.0,0.0,0.0,0.0,0.0,0.0,0.0,0.0,0.0,0.0,0.0,0.0,0.0,0.0,0.0,0.0,0.0,0.0,0.0,0.0,0.0,0.0,0.0,0.0,0.0,0.0,0.0,0.0,0.0,0.0,0.0,0.0,0.0,0.0,0.0,0.0,0.0,0.0,0.0,0.0,0.0,0.0,0.0,0.0,-3.9768,-4.1683,-4.517,-4.6157,-4.6217,-4.5364,-4.4272,-4.2357,-3.9364,-3.5774,0.0,0.0,0.0,0.0,0.0,0.0,0.0,0.0,0.0,0.0,0.0,0.0,0.0,0.0,0.0,0.0,0.0,0.0,0.0,0.0,0.0,0.0,0.0,0.0,0.0,0.0,0.0,0.0,0.0,0.0,0.0,0.0,0.0,0.0,0.0,0.0,0.0,0.0,0.0,0.0,0.0,0.0,0.0,0.0,0.0,0.0,0.0,0.0,0.0,0.0,0.0,0.0,0.0,0.0,0.0,0.0,0.0,0.0,0.0,0.0,0.0,0.0,0.0,0.0,0.0,0.0,0.0,0.0,0.0,0.0,0.0,0.0,0.0,0.0,0.0,0.0,0.0,0.0,0.0,0.0,0.0,0.0,0.0,0.0,0.0,0.0,0.0,0.0,0.0,0.0,0.0,0.0,0.0,0.0,0.0,0.0,0.0,0.0,0.0,0.0,0.0,0.0,-4.0801,-4.3913,-4.5995,-4.6845,-4.6711,-4.5409,-4.3015,-4.0696,-3.8586,-3.4233,0.0,0.0,0.0,0.0,0.0,0.0,0.0,0.0,0.0,0.0,0.0,0.0,0.0,0.0,0.0,0.0,0.0,0.0,0.0,0.0,0.0,0.0,0.0,0.0,0.0,0.0,0.0,0.0,0.0,0.0,0.0,0.0,0.0,0.0,0.0,0.0,0.0,0.0,0.0,0.0,0.0,0.0,0.0,0.0,0.0,0.0,0.0,0.0,0.0,0.0,0.0,0.0,0.0,0.0,0.0,0.0,0.0,0.0,0.0,0.0,0.0,0.0,0.0,0.0,0.0,0.0,0.0,0.0,0.0,0.0,0.0,0.0,0.0,0.0,0.0,0.0,0.0,0.0,0.0,0.0,0.0,0.0,0.0,0.0,0.0,0.0,0.0,0.0,0.0,0.0,0.0,0.0,0.0,0.0,0.0,0.0,0.0,0.0,0.0,0.0,0.0,0.0,-4.0823,-4.3658,0.0,-4.692,-4.6756,-4.5409,-4.4018,-4.1833,-3.8586,0.0,0.0,0.0,0.0,0.0,0.0,0.0,0.0,0.0,0.0,0.0,0.0,0.0,0.0,0.0,0.0,0.0,0.0,0.0,0.0,0.0,0.0,0.0,0.0,0.0,0.0,0.0,0.0,0.0,0.0,0.0,0.0,0.0,0.0,0.0,0.0,0.0,0.0,0.0,0.0,0.0,0.0,0.0,0.0,0.0,0.0,0.0,0.0,0.0,0.0,0.0,0.0,0.0,0.0,0.0,0.0,0.0,0.0,0.0,0.0,0.0,0.0,0.0,0.0,0.0,0.0,0.0,0.0,0.0,0.0,0.0,0.0,0.0,0.0,0.0,0.0,0.0,0.0,0.0,0.0,0.0,0.0,0.0,0.0,0.0,0.0,0.0,0.0,0.0,0.0,0.0,0.0,0.0,0.0,0.0,0.0,0.0,0.0,0.0,0.0,0.0,0.0,-3.8242,-4.122,-4.3913,0.0,-4.704,-4.6756,-4.5409,-4.4122,-4.1788,-3.8018,0.0,0.0,0.0,0.0,0.0,0.0,0.0,0.0,0.0,0.0,0.0,0.0,0.0,0.0,0.0,0.0,0.0,0.0,0.0,0.0,0.0,0.0,0.0,0.0,0.0,0.0,0.0,0.0,0.0,0.0,0.0,0.0,0.0,0.0,0.0,0.0,0.0,0.0,0.0,0.0,0.0,0.0,0.0,0.0,0.0,0.0,0.0,0.0,0.0,0.0,0.0,0.0,0.0,0.0,0.0,0.0,0.0,0.0,0.0,0.0,0.0,0.0,0.0,0.0,0.0,0.0,0.0,0.0,0.0,0.0,0.0,0.0,0.0,0.0,0.0,0.0,0.0,0.0,0.0,0.0,0.0,0.0,0.0,0.0,0.0,0.0,0.0,0.0,0.0,0.0,0.0,0.0,0.0,0.0,0.0,0.0,0.0,0.0,0.0,0.0,0.0,0.0,-3.899,-4.2282,-4.5095,-4.71,-4.7309,-4.6756,-4.5409,-4.291,-3.9993,0.0,0.0,0.0,0.0,0.0,0.0,0.0,0.0,0.0,0.0,0.0,0.0,0.0,0.0,0.0,0.0,0.0,0.0,0.0,0.0,0.0,0.0,0.0,0.0,0.0,0.0,0.0,0.0,0.0,0.0,0.0,0.0,0.0,0.0,0.0,0.0,0.0,0.0,0.0,0.0,0.0,0.0,0.0,0.0,0.0,0.0,0.0,0.0,0.0,0.0,0.0,0.0,0.0,0.0,0.0,0.0,0.0,0.0,0.0,0.0,0.0,0.0,0.0,0.0,0.0,0.0,0.0,0.0,0.0,0.0,0.0,0.0,0.0,0.0,0.0,0.0,0.0,0.0,0.0,0.0,0.0,0.0,0.0,0.0,0.0,0.0,0.0,0.0,0.0,0.0,0.0,0.0,0.0,0.0,0.0,0.0,0.0,0.0,0.0,0.0,0.0,0.0,0.0,-3.899,-4.2686,-4.5589,-4.7145,-4.7309,-4.6756,-4.5409,-4.3733,-4.0965,-3.6746,0.0,0.0,0.0,0.0,0.0,0.0,0.0,0.0,0.0,0.0,0.0,0.0,0.0,0.0,0.0,0.0,0.0,0.0,0.0,0.0,0.0,0.0,0.0,0.0,0.0,0.0,0.0,0.0,0.0,0.0,0.0,0.0,0.0,0.0,0.0,0.0,0.0,0.0,0.0,0.0,0.0,0.0,0.0,0.0,0.0,0.0,0.0,0.0,0.0,0.0,0.0,0.0,0.0,0.0,0.0,0.0,0.0,0.0,0.0,0.0,0.0,0.0,0.0,0.0,0.0,0.0,0.0,0.0,0.0,0.0,0.0,0.0,0.0,0.0,0.0,0.0,0.0,0.0,0.0,0.0,0.0,0.0,0.0,0.0,0.0,0.0,0.0,0.0,0.0,0.0,0.0,0.0,0.0,0.0,0.0,0.0,0.0,0.0,0.0,0.0,0.0,0.0,-3.9,-4.2851,-4.5813,-4.716,-4.7309,-4.6756,-4.5409,-4.4092,-4.1436,-3.712,0.0,0.0,0.0,0.0,0.0,0.0,0.0,0.0,0.0,0.0,0.0,0.0,0.0,0.0,0.0,0.0,0.0,0.0,0.0,0.0,0.0,0.0,0.0,0.0,0.0,0.0,0.0,0.0,0.0,0.0,0.0,0.0,0.0,0.0,0.0,0.0,0.0,0.0,0.0,0.0,0.0,0.0,0.0,0.0,0.0,0.0,0.0,0.0,0.0,0.0,0.0,0.0,0.0,0.0,0.0,0.0,0.0,0.0,0.0,0.0,0.0,0.0,0.0,0.0,0.0,0.0,0.0,0.0,0.0,0.0,0.0,0.0,0.0,0.0,0.0,0.0,0.0,0.0,0.0,0.0,0.0,0.0,0.0,0.0,0.0,0.0,0.0,0.0,0.0,0.0,0.0,0.0,0.0,0.0,0.0,0.0,0.0,0.0,0.0,0.0,0.0,0.0,-3.9119,-4.2895,-4.5813,-4.716,-4.7309,-4.6785,-4.5499,-4.4182,-4.169,-3.7749,0.0,0.0,0.0,0.0,0.0,0.0,0.0,0.0,0.0,0.0,0.0,0.0,0.0,0.0,0.0,0.0,0.0,0.0,0.0,0.0,0.0,0.0,0.0,0.0,0.0,0.0,0.0,0.0,0.0,0.0,0.0,0.0,0.0,0.0,0.0,0.0,0.0,0.0,0.0,0.0,0.0,0.0,0.0,0.0,0.0,0.0,0.0,0.0,0.0,0.0,0.0,0.0,0.0,0.0,0.0,0.0,0.0,0.0,0.0,0.0,-2.9318,-2.8952,0.0,0.0,0.0,0.0,0.0,0.0,0.0,0.0,0.0,0.0,0.0,0.0,0.0,0.0,0.0,0.0,0.0,0.0,0.0,0.0,0.0,0.0,0.0,0.0,0.0,0.0,0.0,0.0,0.0,0.0,0.0,0.0,0.0,0.0,0.0,0.0,0.0,0.0,0.0,0.0,-3.9709,-4.318,-4.5813,-4.716,-4.7309,-4.698,-4.6172,-4.4885,-4.2417,-3.8437,-3.5714,0.0,0.0,0.0,0.0,0.0,0.0,0.0,0.0,0.0,0.0,0.0,0.0,0.0,0.0,0.0,0.0,0.0,0.0,0.0,0.0,0.0,0.0,0.0,0.0,0.0,0.0,0.0,0.0,0.0,0.0,0.0,0.0,0.0,0.0,0.0,0.0,0.0,0.0,0.0,0.0,0.0,0.0,0.0,0.0,0.0,0.0,0.0,0.0,0.0,0.0,0.0,0.0,0.0,0.0,0.0,0.0,0.0,0.0,0.0,-3.3593,-3.2835,0.0,0.0,0.0,0.0,0.0,0.0,0.0,0.0,0.0,0.0,0.0,0.0,0.0,0.0,0.0,0.0,0.0,0.0,0.0,0.0,0.0,0.0,0.0,0.0,0.0,0.0,0.0,0.0,0.0,0.0,0.0,0.0,0.0,0.0,0.0,0.0,0.0,0.0,0.0,0.0,-3.9978,-4.3269,-4.5813,-4.716,-4.7309,-4.704,-4.6339,-4.5095,-4.3165,-4.0509,-3.7274,0.0,0.0,0.0,0.0,0.0,0.0,0.0,0.0,0.0,0.0,0.0,0.0,0.0,0.0,0.0,0.0,0.0,0.0,0.0,0.0,0.0,0.0,0.0,0.0,0.0,0.0,0.0,0.0,0.0,0.0,0.0,0.0,0.0,0.0,0.0,0.0,0.0,0.0,0.0,0.0,0.0,0.0,0.0,0.0,0.0,0.0,0.0,0.0,0.0,0.0,0.0,0.0,0.0,-3.3079,-3.4939,-3.6509,-3.7973,-3.9542,-4.0935,-3.8212,-3.7375,-3.7778,-3.5923,0.0,0.0,0.0,0.0,0.0,0.0,0.0,0.0,0.0,0.0,0.0,0.0,0.0,0.0,0.0,0.0,0.0,0.0,0.0,0.0,0.0,0.0,-4.2054,-4.3897,-4.4804,-4.3702,-3.8111,0.0,0.0,0.0,0.0,0.0,0.0,0.0,0.0,0.0,0.0,0.0,-4.0397,-4.3509,-4.5948,-4.7174,-4.7309,-4.7085,-4.6503,-4.5259,-4.3928,-4.2665,-3.905,-3.6387,0.0,0.0,0.0,0.0,0.0,0.0,0.0,0.0,0.0,0.0,0.0,0.0,0.0,0.0,0.0,0.0,0.0,0.0,0.0,0.0,0.0,0.0,0.0,0.0,0.0,0.0,0.0,0.0,0.0,0.0,0.0,0.0,-2.2378,-2.3513,0.0,0.0,0.0,0.0,0.0,0.0,0.0,0.0,0.0,0.0,0.0,0.0,0.0,-3.2323,-3.3303,-3.373,-3.4443,-3.5476,-3.6775,-3.8518,-4.0624,-4.0875,-4.1992,-4.3763,-4.3344,0.0,-3.9888,-3.8467,0.0,0.0,0.0,0.0,0.0,0.0,0.0,0.0,0.0,0.0,0.0,0.0,0.0,0.0,0.0,0.0,0.0,0.0,0.0,0.0,0.0,0.0,-4.7654,-4.8,-4.8065,-4.7467,-4.5273,-4.1036,-3.7372,-3.6176,-3.3555,-3.1555,0.0,0.0,0.0,0.0,0.0,0.0,-4.1796,-4.4496,-4.6471,-4.7219,-4.7309,-4.7264,-4.7189,-4.5948,-4.4616,-4.3344,-4.0591,-3.8437,-3.7075,-3.3948,0.0,0.0,0.0,0.0,0.0,0.0,0.0,0.0,0.0,0.0,0.0,0.0,0.0,0.0,0.0,0.0,0.0,0.0,0.0,0.0,0.0,0.0,0.0,0.0,0.0,0.0,0.0,0.0,0.0,-2.1536,-2.3089,-2.3956,-2.4631,-2.4915,0.0,0.0,0.0,0.0,0.0,0.0,0.0,0.0,0.0,-3.4558,-3.4808,-3.5147,-3.5703,-3.594,-3.6315,-3.6814,-3.8684,-4.0101,-4.1132,-4.2842,-4.411,-4.498,-4.5682,-4.5125,-4.3599,-4.1893,-4.0247,-3.8676,0.0,0.0,0.0,0.0,-3.6582,-3.7075,-3.8841,-3.9454,-3.9376,-3.9112,0.0,0.0,0.0,0.0,0.0,0.0,0.0,-4.243,-4.4423,-4.7206,-4.9559,-4.9853,-5.0192,-4.9993,-4.8329,-4.536,-4.2073,-3.8932,-3.762,-3.6327,-3.4023,-3.3754,0.0,0.0,0.0,-4.0337,-4.2611,-4.49,-4.6576,-4.7234,-4.7309,-4.716,-4.6785,-4.5858,-4.49,-4.3973,-4.1788,-4.0098,-3.914,-3.6626,-3.4427,0.0,0.0,0.0,0.0,0.0,0.0,0.0,0.0,0.0,0.0,0.0,0.0,0.0,0.0,0.0,0.0,0.0,0.0,0.0,0.0,0.0,0.0,0.0,0.0,0.0,0.0,0.0,0.0,-2.2605,-2.4026,-2.4771,-2.5755,-2.6168,0.0,0.0,0.0,0.0,0.0,0.0,-3.3111,-3.4481,-3.5733,-3.6948,-3.7409,-3.7775,-3.7919,-3.7891,-3.7826,-3.7839,-3.9661,-4.0677,-4.1068,-4.3719,-4.507,-4.5448,-4.6741,-4.7025,-4.6441,-4.4616,-4.309,-4.1758,-4.0621,-3.9753,-3.9245,-3.9918,-4.0277,-4.0689,-4.2811,-4.3544,-4.3533,-4.3371,-4.3156,-4.2651,-4.0903,0.0,0.0,0.0,0.0,-4.5433,-4.7703,-4.9259,-5.0359,-5.0607,-5.0913,-5.0768,-4.9442,-4.8035,-4.5791,-4.1782,-4.1363,-4.0569,-3.7124,-3.7229,0.0,-3.73,-3.9619,-4.1983,-4.3589,-4.5439,-4.677,-4.7249,-4.7309,-4.704,-4.6339,-4.5693,-4.5005,-4.4347,-4.2626,-4.1377,-4.0681,-3.8901,-3.6761,-3.4307,0.0,0.0,0.0,0.0,0.0,0.0,0.0,0.0,0.0,0.0,0.0,0.0,0.0,0.0,0.0,0.0,0.0,0.0,0.0,0.0,0.0,0.0,0.0,0.0,0.0,0.0,0.0,0.0,0.0,-2.7014,-2.7643,0.0,0.0,0.0,0.0,-3.0653,-3.1884,-3.3674,-3.6334,-3.7658,-3.8961,-4.0213,-3.9734,-3.979,-4.0417,-3.9841,-3.9572,-3.9572,-3.9725,-4.0363,-4.1614,-4.2965,-4.4256,-4.5448,-4.6741,-4.7279,-4.7145,-4.5768,-4.4421,-4.3125,-4.2515,-4.1856,-4.1347,-4.2006,-4.2596,-4.32,-4.4003,-4.4272,-4.4599,-4.6779,-4.6884,-4.6156,-4.6014,-4.5212,0.0,0.0,-4.7536,-4.8854,-4.944,-5.0175,-5.0722,-5.0478,-4.9663,-4.8932,-4.886,-4.7996,-4.6885,-4.5634,-4.3761,-4.2276,-4.2036,0.0,-4.1377,-4.1961,-4.321,-4.4377,-4.5095,-4.6396,-4.7264,-4.7309,-4.7309,-4.704,-4.6339,-4.5693,-4.5005,-4.4347,-4.306,-4.2051,-4.1392,-4.0038,-3.8377,-3.6372,-3.3754,0.0,0.0,0.0,0.0,0.0,0.0,0.0,0.0,0.0,0.0,0.0,0.0,0.0,0.0,0.0,0.0,0.0,0.0,0.0,0.0,0.0,0.0,0.0,0.0,0.0,0.0,0.0,0.0,-2.8725,-2.9679,0.0,-2.9942,-3.0583,-3.1562,-3.2775,-3.3883,-3.5244,-3.6916,-3.779,-3.8614,-3.944,-3.9605,-3.9752,-4.0019,-3.979,-3.9873,-4.0224,-4.0224,-4.0649,-4.149,-4.3679,-4.4907,-4.5436,-4.7637,-4.8327,-4.7893,-4.7414,-4.6696,-4.5828,-4.517,-4.4766,-4.4586,-4.4825,-4.5065,-4.5308,-4.6007,-4.6649,-4.7475,-4.918,-4.9611,-4.9477,-4.9477,-4.9173,-4.9045,-5.0036,-5.0226,-5.0306,-5.097,-5.0807,-5.0343,-4.9552,-4.9069,-4.8636,-4.7988,-4.7523,-4.7171,-4.6785,-4.5748,-4.4511,-4.321,-4.315,-4.321,-4.3084,-4.4122,-4.5185,-4.5873,-4.6756,-4.7309,-4.7309,-4.7309,-4.686,-4.5753,-4.5439,-4.4646,-4.315,-4.265,-4.1916,-4.0786,-3.9888,-3.8676,-3.7105,-3.4906,-3.2467,0.0,0.0,0.0,0.0,0.0,0.0,0.0,0.0,0.0,0.0,0.0,0.0,0.0,0.0,0.0,0.0,0.0,0.0,0.0,0.0,0.0,0.0,0.0,0.0,0.0,0.0,-2.8674,-3.0156,-3.1298,-3.2026,-3.2215,-3.3081,-3.401,-3.4939,-3.5855,-3.6784,-3.7701,-3.8278,-3.8755,-3.9132,-3.9496,-3.9785,-3.9973,-3.9973,-4.0249,-4.0802,-4.0802,-4.1178,-4.2078,-4.4313,-4.5545,-4.6145,-4.8314,-4.906,-4.8626,-4.8626,-4.8356,-4.7878,-4.6995,-4.6651,-4.6651,-4.6651,-4.6834,-4.7243,-4.8087,-4.8988,-4.9976,-5.0879,-5.156,-5.1995,-5.1995,-5.1995,-5.2097,-5.257,-5.1946,-5.1224,-5.1373,-5.0627,-4.9575,-4.8527,-4.8293,-4.8099,-4.7452,-4.7309,-4.7309,-4.7309,-4.695,-4.619,-4.49,-4.5035,-4.5185,-4.4781,-4.5424,-4.6142,-4.6591,-4.704,-4.7309,-4.7309,-4.7309,-4.6756,-4.5409,-4.5095,-4.4212,-4.2515,-4.1991,-4.1205,-4.0113,-3.9424,-3.8452,-3.712,-3.4936,-3.2721,-3.0492,0.0,0.0,0.0,0.0,0.0,0.0,0.0,0.0,0.0,0.0,0.0,0.0,0.0,0.0,0.0,0.0,0.0,0.0,0.0,0.0,0.0,0.0,0.0,-2.6487,-2.8498,-3.0269,-3.1336,-3.2478,-3.3395,-3.3947,-3.4525,-3.5516,-3.7111,-3.7751,-3.8304,-3.8868,-3.9408,-3.9697,-3.9722,-3.9722,-3.9986,-4.0538,-4.0538,-4.0827,-4.1313,-4.1367,-4.2117,-4.3475,-4.4807,-4.6153,-4.7536,-4.883,-4.9359,-4.9344,-4.9344,-4.9329,-4.9179,-4.7848,-4.7339,-4.7367,-4.7352,-4.7988,-4.8973,-5.0087,-5.108,-5.1921,-5.1921,-5.2662,-5.3501,-5.3501,-5.3501,-5.3501,-5.3467,-5.2679,-5.1614,-5.0589,-4.9575,-4.8527,-4.7538,-4.7309,-4.7309,-4.7309,-4.7309,-4.7309,-4.7309,-4.7309,-4.7309,-4.7309,-4.7309,-4.7309,-4.7309,-4.7309,0.0,-4.7309,-4.7309,-4.7309,-4.7309,-4.7309,-4.6756,-4.5409,-4.4691,-4.3733,-4.2425,-4.1085,-4.0068,-3.9409,-3.8721,-3.7764,-3.6507,-3.3918,-3.1913,-3.0595,0.0,0.0,0.0,0.0,0.0,0.0,0.0,0.0,0.0,0.0,0.0,0.0,0.0,0.0,0.0,0.0,0.0,0.0,0.0,0.0,0.0,0.0,-2.7607,-2.8172,-3.0156,-3.1964,-3.3081,-3.4537,-3.5713,-3.6219,-3.7161,-3.7914,-3.8429,-3.8919,-3.9295,-3.9459,-3.9609,-3.9873,-4.0275,-4.0287,-4.0563,-4.105,-4.1062,-4.1392,-4.1986,-4.2948,-4.3808,-4.4626,-4.7066,-4.8336,-4.8789,-5.0117,-5.0406,-4.9972,-4.9972,-4.9688,-4.9224,-4.8341,-4.849,-4.9036,-4.8545,-4.9069,-5.0126,-5.1117,-5.1651,-5.2029,-5.28,-5.3264,-5.3501,-5.3501,-5.3501,-5.3348,-5.2557,-5.1594,-5.0589,-4.9536,-4.8501,-4.7651,-4.7381,-4.7309,-4.7309,-4.7309,-4.7309,-4.7309,-4.7309,-4.7309,-4.7309,-4.7309,-4.7309,-4.7309,-4.7309,-4.7309,-4.7309,-4.7309,-4.7309,-4.7309,-4.7309,-4.7309,-4.6756,-4.5409,-4.4691,-4.3344,-4.1085,-4.0157,-3.9379,-3.8691,-3.8033,-3.73,-3.654,-3.4801,-3.3592,0.0,0.0,0.0,0.0,0.0,0.0,0.0,0.0,0.0,0.0,0.0,0.0,0.0,0.0,0.0,0.0,0.0,0.0,0.0,0.0,0.0,0.0,-2.8047,-2.9767,-3.0557,-3.1964,-3.342,-3.4776,-3.6028,-3.7071,-3.7814,-3.8529,-3.8969,-3.9195,-3.9509,-3.9697,-3.9697,-3.991,-4.0187,-4.0513,-4.0739,-4.1128,-4.1681,-4.1681,-4.2258,-4.3364,-4.4187,-4.534,-4.6785,-4.8439,-4.9518,-5.008,-5.0855,-5.1005,-5.0599,-5.0599,-5.0667,-5.0696,0.0,0.0,0.0,0.0,-5.0496,-5.1171,-5.2205,-5.2557,-5.2662,-5.3314,-5.3501,-5.3501,-5.3501,-5.3195,-5.2714,-5.2082,-5.0838,-4.9575,-4.8948,-4.8057,-4.7309,-4.7309,-4.7309,-4.7309,-4.7309,-4.7309,-4.7309,-4.7309,-4.7309,0.0,-4.7309,-4.7309,-4.7309,-4.7309,-4.7309,-4.7309,-4.7309,-4.7309,-4.7309,-4.7309,-4.7309,-4.6875,-4.5813,-4.4855,0.0,0.0,0.0,-3.899,-3.8018,-3.7614,0.0,0.0,0.0,0.0,0.0,0.0,0.0,0.0,-3.4918,-3.5085,0.0,0.0,0.0,0.0,0.0,0.0,0.0,0.0,0.0,0.0,0.0,0.0,0.0,0.0,0.0,0.0,-3.0181,-3.2001,-3.3181,-3.3834,-3.4726,-3.6229,-3.6958,-3.7701,-3.8818,-3.8931,-3.917,-3.9659,-3.9697,-3.9722,-3.9785,0.0,0.0,0.0,0.0,-4.1992,-4.2754,-4.2754,-4.3568,-4.5249,-4.5409,-4.6785,-4.921,-4.9357,-5.008,-5.1214,-5.1214,-5.1261,-5.1386,-5.1386,-5.2139,-5.314,-5.1871,-5.095,-5.0426,-5.1715,-5.2197,-5.234,-5.3212,0.0,0.0,-5.3501,-5.3433,-5.3314,-5.3314,-5.2592,-5.1724,-5.1561,-5.0211,-4.8784,-4.8677,-4.7946,-4.7309,-4.7309,-4.7309,-4.7309,-4.7309,-4.7309,-4.7309,-4.7309,-4.7309,-4.7309,-4.7309,-4.7309,-4.7309,-4.7309,-4.7309,-4.7309,-4.7309,-4.7309,-4.7309,-4.7309,-4.7309,0.0,-4.6339,-4.5155,-4.3838,-4.2485,-4.0576,-3.899,-3.7793,-3.7823,-3.7823,-3.7749,-3.7749,-3.8023,-3.8637,-3.9443,-4.014,-4.0681,-3.8321,-3.7764,0.0,0.0,0.0,0.0,0.0,0.0,0.0,0.0,0.0,0.0,0.0,0.0,0.0,0.0,0.0,-2.9842,-3.1599,-3.3294,-3.4806,-3.5542,-3.6053,-3.6367,-3.7249,-3.8115,-3.8856,-3.927,-3.9584,-3.9685,-3.9697,-3.9885,-4.0337,-4.0463,-4.1419,-4.3415,-4.3611,-4.4441,-4.6154,-4.6154,-4.6313,-4.6695,-4.7873,0.0,-4.9259,-5.0335,-5.0964,-5.1214,-5.1214,-5.1727,-5.256,-5.256,-5.3769,-5.5497,-5.461,-5.3883,-5.3335,-5.3885,-5.4088,-5.4004,-5.3619,-5.3501,-5.3501,-5.3501,-5.2904,-5.2189,-5.2189,-5.1504,0.0,-4.9639,-4.9094,-4.8594,-4.7807,-4.7467,-4.7309,-4.7309,-4.7309,-4.7309,-4.7309,-4.7309,-4.7309,-4.7309,-4.7309,-4.7309,-4.7309,-4.7309,-4.7309,-4.7309,-4.7309,-4.7309,-4.7309,-4.7309,-4.7309,-4.7309,-4.7309,-4.704,-4.6339,-4.5574,-4.4317,-4.2515,-4.101,-4.0098,-3.9828,-4.0337,-4.0367,-3.9828,-3.9828,-3.9949,-4.0194,-4.0921,-4.1349,-4.1372,-4.0341,-4.0272,0.0,0.0,0.0,0.0,0.0,0.0,0.0,0.0,0.0,0.0,0.0,-2.59,0.0,0.0,-2.9905,-3.1574,-3.2767,-3.3972,-3.5307,-3.6257,-3.692,-3.7149,-3.7927,-3.8655,-3.9233,-3.9534,-3.9981,-4.0605,-4.0642,-4.1178,-4.2435,-4.2739,-4.3639,-4.5216,-4.5527,-4.6136,-4.7094,-4.7094,-4.7453,-4.8175,-4.8851,-4.9567,-5.0239,-5.0902,-5.1214,-5.1214,-5.1214,-5.185,-5.2989,-5.4094,-5.5215,-5.621,-5.6433,-5.607,-5.5425,-5.522,-5.5158,-5.5057,-5.4313,-5.3683,-5.3181,-5.2831,-5.201,-5.1155,-5.1155,-5.0419,-4.9496,-4.8948,-4.8444,-4.7904,-4.7424,-4.7309,-4.7309,-4.7309,-4.7309,-4.7309,-4.7309,-4.7309,-4.7309,-4.7309,-4.7309,-4.7309,-4.7309,-4.7309,-4.7309,-4.7309,-4.7309,-4.7309,-4.7309,-4.7309,-4.7309,-4.7309,-4.7309,-4.7174,-4.6845,-4.5888,-4.4586,-4.2955,-4.1923,-4.1235,-4.0905,-4.1205,-4.122,-4.0905,-4.0891,-4.1099,-4.1495,-4.1882,-4.2202,-4.2446,-4.2112,-4.196,0.0,0.0,0.0,0.0,0.0,0.0,0.0,0.0,-2.4299,-2.564,-2.7005,-2.8235,-2.9227,-3.0331,-3.1562,-3.3006,-3.3796,-3.46,-3.5658,-3.6709,-3.755,-3.8103,-3.858,-3.9082,-3.9634,-3.9697,-4.0224,-4.1505,-4.171,-4.2646,-4.4539,-4.5196,-4.5904,-4.6815,-4.7303,-4.7619,-4.7873,-4.7923,-4.8489,-4.9567,-4.9567,-5.0143,-5.1214,-5.1214,-5.1214,-5.1214,-5.1681,-5.2515,-5.3683,-5.5698,-5.6531,-5.6608,-5.7554,-5.7526,-5.6917,-5.619,-5.5919,-5.5766,-5.4662,-5.373,-5.286,-5.1917,-5.093,-5.0087,-5.0087,-4.9352,-4.8527,-4.8527,-4.7904,-4.7309,-4.7309,-4.7309,-4.7309,-4.7309,-4.7309,-4.7309,-4.7309,-4.7309,-4.7309,-4.7309,-4.7309,-4.7309,-4.7309,-4.7309,-4.7309,-4.7309,-4.7309,-4.7309,-4.7309,-4.7309,-4.7309,-4.7309,-4.7309,-4.7309,-4.7309,-4.6187,-4.5035,-4.3947,-4.3299,-4.268,-4.1983,-4.1953,-4.1893,-4.1758,-4.1758,-4.2028,-4.259,-4.259,-4.2821,-4.329,-4.3424,-4.324,-2.0399,-2.0955,-2.1757,-2.3251,-2.3339,-2.3898,0.0,0.0,-2.7419,-2.9541,-3.0118,-3.0419,-3.1009,-3.2039,-3.3018,-3.3696,-3.4675,-3.5696,-3.6847,-3.7525,-3.8128,-3.8705,-3.8881,-3.9082,-3.9634,-3.9697,-4.0224,-4.1505,-4.2166,-4.3299,-4.5112,-4.5818,-4.7029,-4.8821,-4.8921,-4.9518,-5.076,-5.076,-5.0807,-5.0964,-5.0964,-5.1058,-5.1214,-5.1214,-5.1214,-5.1293,-5.3324,-5.4806,-5.5913,-5.7168,-5.7718,-5.7718,-5.7845,-5.7831,-5.7679,-5.6951,-5.6681,-5.6354,-5.398,-5.3086,-5.2733,-5.1081,-4.9852,-4.8988,-4.8988,-4.8252,-4.7452,-4.7452,-4.7381,-4.7309,-4.7309,-4.7309,-4.7309,-4.7309,-4.7309,-4.7309,-4.7309,-4.7309,-4.7309,-4.7309,-4.7309,-4.7309,-4.7309,-4.7309,-4.7309,-4.7309,-4.7309,-4.7309,-4.7309,-4.7309,-4.7309,-4.7309,-4.7309,-4.7309,-4.7309,-4.6636,-4.61,-4.595,-4.5349,-4.4676,-4.4003,-4.3988,-4.3718,-4.308,-4.308,-4.311,-4.3185,-4.3185,-4.3215,-4.3305,-4.3888,-4.4167,-2.3113,-2.3972,0.0,0.0,-2.5975,-2.6819,-2.811,-2.8599,-2.9101,-3.0357,-3.111,-3.1612,-3.1825,-3.2792,-3.3734,0.0,-3.5316,-3.632,-3.7073,-3.7663,-3.809,-3.8341,-3.8668,-3.9082,-3.9634,-3.9697,-4.0554,-4.2544,-4.3343,-4.4858,-4.7496,-4.8228,-4.912,-5.032,-5.035,-5.065,-5.1167,-5.1214,-5.1214,-5.1214,-5.1618,-5.1798,-5.1783,-5.2472,-5.2944,-5.3281,-5.4847,-5.5794,-5.6282,-5.7426,-5.7881,-5.7845,-5.7168,-5.6908,-5.6875,-5.6575,-5.6475,-5.6158,-5.4013,-5.2604,-5.1566,-5.0434,-4.9084,-4.7919,-4.7919,-4.7651,-4.7309,-4.7309,-4.7309,-4.7309,-4.7309,-4.7309,-4.7309,-4.7309,-4.7309,-4.7309,-4.7309,-4.7309,-4.7309,-4.7309,-4.7309,-4.7309,-4.7309,-4.7309,-4.7309,-4.7309,-4.7309,-4.7309,-4.7309,-4.7309,-4.7309,-4.7309,-4.7309,-4.7309,-4.7309,-4.7055,-4.6741,-4.6309,-4.6052,-4.5849,-4.581,-4.5223,-4.5062,-4.5367,-4.4775,-4.4466,-4.4466,-4.4466,-4.4466,-4.4481,-4.4751,-4.5095,-2.4883,0.0,0.0,-2.6876,-2.7934,-2.8825,-2.8624,-2.9327,-3.0168,-3.0721,-3.1574,-3.2265,-3.2416,-3.337,-3.4261,-3.4663,-3.5793,-3.6759,-3.7136,-3.7663,-3.8002,-3.8002,-3.8379,-3.8995,-3.9944,-4.0135,-4.1119,-4.3313,-4.4606,-4.6457,-4.9149,-5.0062,-5.0689,-5.1199,-5.1214,-5.1214,-5.1214,-5.1394,-5.1498,-5.1498,-5.2157,-5.2648,-5.2982,-5.3971,-5.4758,-5.5416,-5.5971,-5.6376,-5.6701,-5.7206,-5.7426,-5.7335,-5.6204,-5.5754,-5.5714,-5.5417,-5.5498,-5.5497,-5.3706,-5.2219,-5.101,-4.9977,-4.8738,-4.7578,-4.7578,-4.7459,-4.7309,-4.7309,-4.7309,-4.7309,-4.7309,-4.7309,-4.7309,-4.7309,-4.7309,-4.7309,-4.7309,-4.7309,-4.7309,-4.7309,-4.7309,-4.7309,-4.7309,-4.7309,-4.7309,-4.7309,-4.7309,-4.7309,-4.7309,-4.7309,-4.7309,-4.7309,-4.7309,-4.7309,-4.7309,-4.7523,-4.7525,-4.7042,-4.7274,-4.7364,-4.716,-4.6402,-4.6123,-4.6432,-4.5712,-4.5289,-4.5289,-4.5289,-4.5289,-4.5289,-4.5484,-4.5843,0.0,0.0,-2.6751,-2.7783,-2.8499,-2.9026,-2.9616,-3.0181,-3.0733,-3.126,-3.1813,-3.239,-3.2943,-3.396,-3.4655,-3.468,-3.6094,-3.7161,-3.7186,-3.7663,-3.8002,-3.8002,-3.8027,-3.8772,0.0,-4.1225,-4.207,-4.3409,-4.587,-4.7899,-4.9209,-5.0496,-5.1199,-5.1214,-5.1214,-5.1214,-5.1214,-5.1858,-5.2172,-5.2172,-5.283,-5.3774,-5.4945,-5.5403,-5.6249,-5.7291,-5.6533,-5.6832,-5.7755,-5.6701,-5.6243,-5.6165,-5.5068,-5.4672,-5.4505,-5.3412,-5.3699,-5.4393,-5.2586,-5.1921,-5.158,-4.9853,-4.8835,-4.8252,-4.8252,-4.7818,-4.7309,-4.7309,-4.7309,-4.7309,-4.7309,-4.7309,-4.7309,-4.7309,-4.7309,-4.7309,-4.7309,-4.7309,-4.7309,-4.7309,-4.7309,-4.7309,-4.7309,-4.7309,-4.7309,-4.7309,-4.7309,-4.7309,-4.7309,-4.7309,-4.7309,-4.7309,-4.7309,-4.7309,-4.7309,-4.8183,-4.8743,-4.8712,-4.9702,-4.9504,-4.7843,-4.7747,-4.6986,-4.5387,-4.5331,-4.5289,-4.5289,-4.5289,-4.5289,-4.5304,-4.5978,-4.6264,0.0,0.0,-2.772,-2.8461,-2.9352,-3.0066,-3.0294,-3.0746,-3.1173,-3.1348,-3.1537,-3.1725,-3.1913,-3.288,-3.3746,-3.411,-3.5868,-3.7312,-3.7676,-3.8216,-3.8442,-3.8052,-3.8341,0.0,0.0,0.0,0.0,-4.4567,-4.6415,-4.7975,-4.9209,-5.0511,-5.1214,-5.1214,-5.1214,-5.1214,-5.1214,-5.1872,-5.2202,-5.2217,-5.4148,-5.5674,-5.6797,-5.7252,-5.7809,-5.8387,-5.6862,-5.6415,-5.6701,-5.5594,-5.515,-5.5027,-5.3913,-5.3498,-5.3324,-5.2184,-5.2018,-5.2244,-5.1638,-5.1137,-5.0698,-5.0109,-4.9464,-4.8985,-4.8985,-4.8476,-4.7952,-4.7952,-4.7638,-4.7309,-4.7309,-4.7309,-4.7309,-4.7309,-4.7309,-4.7309,-4.7309,-4.7309,-4.7309,-4.7309,-4.7309,-4.7309,-4.7309,-4.7309,-4.7309,-4.7309,-4.7309,-4.7309,-4.7309,-4.7309,-4.7309,-4.7309,-4.7309,-4.7566,-4.8252,-4.8594,-4.9094,-4.9813,-4.9536,-4.9386,-4.952,-4.8189,-4.7505,-4.7604,-4.6973,-4.6636,-4.6636,-4.6636,-4.6636,-4.6636,-4.6875,-4.698,-2.718,-2.7833,-2.8335,-2.9251,-3.008,-3.062,-3.062,-3.1022,-3.1336,-3.1148,-3.126,-3.1386,-3.1386,-3.2152,-3.3018,-3.3771,-3.5579,-3.7086,-3.7638,-3.8379,-3.8655,-3.8078,-3.875,-3.9699,0.0,0.0,0.0,-4.5255,-4.7047,-4.842,-4.9269,-5.0511,-5.1214,-5.1214,-5.1214,-5.1334,-5.1558,-5.2217,-5.28,-5.3279,-5.5386,-5.6731,-5.7465,-5.7893,-5.8134,-5.8101,-5.6634,-5.5863,-5.5554,-5.4447,-5.3999,-5.3871,-5.2738,-5.2275,-5.2184,-5.1464,-5.1214,-5.1214,-5.1214,-5.0945,-5.0539,-5.0539,-5.0137,-4.9613,-4.9613,-4.8985,-4.8282,-4.8282,-4.7818,-4.7309,-4.7309,-4.7309,-4.7309,-4.7309,-4.7309,-4.7309,-4.7309,-4.7309,-4.7309,-4.7309,-4.7309,-4.7309,-4.7309,-4.7309,-4.7309,-4.7309,-4.7309,-4.7309,-4.7309,-4.7309,-4.7309,-4.7309,-4.7309,-4.7722,-4.8702,-4.9135,-4.9655,-5.0374,-5.0071,-4.9876,-4.9813,-4.8543,-4.7946,-4.8252,-4.7609,-4.7309,-4.7309,-4.7309,-4.7309,-4.7309,-4.7309,-4.7309,-2.7896,-2.821,-2.8624,-3.0256,-3.0658,-3.0658,-3.0658,-3.1022,-3.1198,-3.0683,-3.0947,-3.1248,0.0,0.0,-3.2503,-3.3633,-3.5253,-3.6619,-3.7149,-3.8203,-3.8693,0.0,0.0,0.0,0.0,0.0,0.0,-4.5494,0.0,-4.9314,-4.9314,-5.0511,-5.1214,-5.1214,-5.1214,-5.1528,-5.2187,-5.289,-5.3892,-5.5194,-5.6396,-5.6976,-5.7008,-5.7494,-5.7329,-5.6701,-5.5863,-5.516,-5.4469,-5.3296,-5.2812,-5.2694,-5.1635,-5.1214,-5.1214,-5.1214,-5.1214,-5.1214,-5.1214,-5.1214,-5.1214,-5.1214,-5.0749,-5.024,-5.024,-4.9404,-4.8371,-4.8341,-4.7863,-4.7339,-4.7309,-4.7309,-4.7309,-4.7309,-4.7309,-4.7309,-4.7309,-4.7309,-4.7309,-4.7309,-4.7309,-4.7309,-4.7309,-4.7309,-4.7309,-4.7309,-4.7309,-4.7309,-4.7309,-4.7309,-4.7309,-4.7309,-4.7309,-4.7722,-4.8702,-4.9734,-5.032,-5.0397,-5.1229,-5.0876,-4.8907,-4.8743,-4.8252,-4.7309,-4.7309,-4.7309,-4.7309,-4.7309,-4.7309,-4.7309,-4.7309,-4.7309,-2.9063,-2.9666,-3.0168,-3.0984,-3.1198,-3.1198,-3.1198,-3.0997,-3.0658,-3.0118,-2.9767,-2.944,0.0,0.0,0.0,-3.2466,-3.4738,0.0,-3.7663,-3.8768,0.0,-3.8718,0.0,-4.1558,-4.2587,-4.4223,0.0,0.0,-4.8641,-4.9314,-4.9314,-5.0511,-5.1214,-5.1214,-5.1214,-5.1528,-5.2187,-5.3369,-5.4371,-5.5194,-5.6396,-5.6976,-5.7008,-5.7494,-5.7616,-5.7317,-5.5257,-5.4246,-5.3955,-5.2307,-5.1635,-5.1588,-5.1293,-5.1214,-5.1214,-5.1214,-5.1214,-5.1214,-5.1214,-5.1214,-5.1214,-5.1214,-5.1063,-5.0928,-5.0928,-5.0391,-4.9643,-4.9149,-4.8536,-4.7923,-4.7429,-4.7309,-4.7309,-4.7309,-4.7309,-4.7309,-4.7309,-4.7309,-4.7309,-4.7309,-4.7309,-4.7309,-4.7309,-4.7309,-4.7309,-4.7309,-4.7309,-4.7309,-4.7309,-4.7309,-4.7309,-4.7309,-4.7309,-4.7722,-4.8702,-4.9069,-4.9536,-5.0358,-4.9876,-4.936,-4.8825,-4.8072,-4.7581,-4.7309,-4.7309,-4.7309,-4.7309,-4.7309,-4.7309,-4.7309,-4.7309,-4.7309,-2.9917,-3.0545,-3.1022,-3.1323,-3.1386,-3.1198,-3.047,-3.0281,-2.9892,-2.8586,-2.826,0.0,0.0,0.0,0.0,0.0,0.0,0.0,-3.7462,-3.9295,-4.0438,0.0,-4.1967,0.0,-4.3825,-4.5582,-4.7125,0.0,-4.894,-4.9434,-4.9673,-5.0661,-5.1214,-5.1214,-5.1214,-5.1678,-5.2621,-5.3967,-5.482,-5.5194,-5.5869,-5.6216,-5.6216,-5.6461,-5.6435,-5.6047,-5.4359,-5.3421,-5.3054,-5.175,-5.1214,-5.1214,-5.1214,-5.1214,-5.1214,-5.1214,-5.1214,-5.1214,-5.1214,-5.1214,-5.1214,-5.1214,-5.1214,-5.1214,-5.1214,-5.0719,-5.0046,-4.9449,-4.8835,-4.8132,-4.7474,-4.7309,-4.7309,-4.7309,-4.7309,-4.7309,-4.7309,-4.7309,-4.7309,-4.7309,-4.7309,-4.7309,-4.7309,-4.7309,-4.7309,-4.7309,-4.7309,-4.7309,-4.7309,-4.7309,-4.7309,-4.7309,-4.7309,-4.7722,-4.8702,-4.8784,-4.9069,-4.9655,-4.9135,-4.8594,-4.8141,-4.7609,-4.7309,-4.7309,-4.7309,-4.7309,-4.7309,-4.7309,-4.7309,-4.7309,-4.7309,-4.7309,-3.0658,-3.1148,-3.1499,-3.1499,-3.1449,-3.0972,-2.9364,-2.9315,-2.8976,-2.6927,0.0,-2.6917,-2.6461,-2.7306,-2.8674,-3.0432,0.0,-3.5361,-3.7276,-3.9829,-4.1561,-4.1825,-4.3929,-4.5403,-4.5403,-4.717,-4.84,-4.8651,-4.9268,-4.9809,-5.0166,-5.0823,-5.1214,-5.1214,-5.1394,-5.2022,-5.3174,-5.4521,-5.5194,-5.5194,-5.5194,-5.5194,-5.5194,-5.5194,-5.4835,-5.4177,-5.3473,-5.2897,-5.2365,-5.1531,-5.1308,-5.1433,-5.1261,-5.1214,-5.1214,-5.1214,-5.1214,-5.1214,-5.1214,-5.1214,-5.1214,-5.1214,-5.1214,-5.1214,-5.1214,-5.0779,-5.0166,-4.9479,-4.8895,-4.8252,-4.7504,-4.7309,-4.7309,-4.7309,-4.7309,-4.7309,-4.7309,-4.7309,-4.7309,-4.7309,-4.7309,-4.7309,-4.7309,-4.7309,-4.7309,-4.7309,-4.7309,-4.7309,-4.7309,-4.7309,-4.7309,-4.7309,-4.7309,-4.7651,-4.8527,-4.8594,-4.8594,-4.8594,-4.8594,-4.8225,-4.7352,-4.7309,-4.7309,-4.7309,-4.7309,-4.7309,-4.7309,-4.7309,-4.7309,-4.7309,-4.7309,-4.7309,-3.1675,-3.2001,-3.2077,-3.2077,-3.1725,-3.1085,-2.9905,-2.9001,0.0,0.0,0.0,-2.5862,-2.5762,-2.7042,0.0,-3.0922,0.0,0.0,0.0,0.0,-4.1488,0.0,0.0,0.0,0.0,0.0,0.0,0.0,-5.1077,-5.107,-5.0227,-5.0823,-5.1214,-5.1214,-5.2276,-5.295,-5.3174,-5.4521,-5.5194,-5.5194,-5.5194,-5.5194,-5.5194,-5.5194,-5.4835,-5.4177,-5.3473,-5.3378,-5.3484,-5.186,-5.1773,-5.253,-5.1557,-5.1214,-5.1214,-5.1214,-5.1214,-5.1214,-5.1214,-5.1214,-5.1214,-5.1214,-5.1214,-5.1214,-5.1214,-5.1139,-5.0795,-4.9644,-4.9224,-4.882,-4.7623,-4.7309,-4.7309,-4.7309,-4.7309,-4.7309,-4.7309,-4.7309,-4.7309,-4.7309,-4.7309,-4.7309,-4.7309,-4.7309,-4.7309,-4.7309,-4.7309,-4.7309,-4.7309,-4.7309,-4.7309,-4.7309,-4.7309,-4.7381,-4.7538,-4.7581,-4.7581,-4.7581,-4.7581,-4.7495,-4.7309,-4.7309,-4.7309,-4.7309,-4.7309,-4.7309,-4.7309,-4.7309,-4.7309,-4.7309,-4.7309,-4.7309,-3.1637,-3.2215,-3.2516,-3.1926,-3.1587,-3.0809,-2.8611,0.0,0.0,0.0,0.0,-2.4669,-2.4368,0.0,0.0,0.0,0.0,0.0,0.0,0.0,0.0,0.0,0.0,0.0,0.0,0.0,0.0,0.0,-5.2017,-5.2156,-5.1621,-5.1345,-5.1214,-5.1214,-5.2157,-5.283,-5.3174,-5.4177,-5.485,-5.5194,-5.5194,-5.5014,-5.4685,-5.4685,-5.4628,-5.4546,-5.3845,-5.3699,-5.3831,-5.2596,-5.2063,-5.1987,-5.1433,-5.1214,-5.1214,-5.1214,-5.1214,-5.1214,-5.1214,-5.1214,-5.1214,-5.1214,-5.1214,-5.1214,-5.1214,-5.1214,-5.0945,-4.9674,-4.9314,-4.9,-4.7653,-4.7309,-4.7309,-4.7309,-4.7309,-4.7309,-4.7309,-4.7309,-4.7309,-4.7309,-4.7309,-4.7309,-4.7309,-4.7309,-4.7309,-4.7309,-4.7309,-4.7309,-4.7309,-4.7309,-4.7309,-4.7309,-4.7309,-4.7309,-4.7309,-4.7309,-4.7309,-4.7309,-4.7309,-4.7309,-4.7309,-4.7309,-4.7309,-4.7309,-4.7309,-4.7309,-4.7309,-4.7309,-4.7309,-4.7309,-4.7309,-4.7309,-3.1537,-3.2303,-3.2847,-3.1662,-3.1386,-3.0557,-2.7392,-2.6914,0.0,0.0,0.0,-2.3715,-2.3346,0.0,0.0,0.0,0.0,0.0,0.0,0.0,0.0,0.0,0.0,0.0,0.0,0.0,0.0,0.0,-5.2436,-5.29,-5.29,-5.1804,-5.1214,-5.1214,-5.1858,-5.2441,-5.2965,-5.3788,-5.4401,-5.476,-5.491,-5.4625,-5.3982,-5.4213,-5.4339,-5.4283,-5.4035,-5.383,-5.3615,-5.2865,-5.2139,-5.1557,-5.1308,-5.1214,-5.1214,-5.1214,-5.1214,-5.1214,-5.1214,-5.1214,-5.1214,-5.1214,-5.1214,-5.1214,-5.1214,-5.1214,-5.0945,-4.9674,-4.9314,-4.9,-4.7653,-4.7309,-4.7309,-4.7309,-4.7309,-4.7309,-4.7309,-4.7309,-4.7309,-4.7309,-4.7309,-4.7309,-4.7309,-4.7309,-4.7309,-4.7309,-4.7309,-4.7309,-4.7309,-4.7309,-4.7309,-4.7309,-4.7309,-4.7309,-4.7309,-4.7309,-4.7309,-4.7309,-4.7309,-4.7309,-4.7309,-4.7309,-4.7309,-4.7309,-4.7309,-4.7309,-4.7309,-4.7309,-4.7309,-4.7309,-4.7309,-4.7309,-3.2001,-3.2591,-3.2847,-3.1662,-3.1386,-3.0658,-2.7846,0.0,0.0,0.0,-2.354,-2.3333,-2.3841,-2.4456,0.0,0.0,0.0,0.0,0.0,0.0,0.0,0.0,0.0,0.0,0.0,0.0,0.0,0.0,-5.22,-5.29,-5.29,-5.1804,-5.1214,-5.1214,-5.1858,-5.2232,-5.2291,-5.3563,-5.3922,-5.3369,-5.3997,-5.3937,-5.3328,-5.4354,-5.3941,-5.25,-5.3484,-5.3567,-5.2905,-5.1788,-5.1896,-5.2649,-5.1588,-5.1214,-5.1214,-5.1214,-5.1214,-5.1214,-5.1214,-5.1214,-5.1214,-5.1214,-5.1214,-5.1214,-5.1214,-5.1214,-5.0945,-4.9674,-4.9314,-4.9,-4.7653,-4.7309,-4.7309,-4.7309,-4.7309,-4.7309,-4.7309,-4.7309,-4.7309,-4.7309,-4.7309,-4.7309,-4.7309,-4.7309,-4.7309,-4.7309,-4.7309,-4.7309,-4.7309,-4.7309,-4.7309,-4.7309,-4.7309,-4.7309,-4.7309,-4.7309,-4.7309,-4.7309,-4.7309,-4.7309,-4.7309,-4.7309,-4.7309,-4.7309,-4.7309,-4.7309,-4.7309,-4.7309,-4.7309,-4.7309,-4.7309,-4.7309,-3.1486,-3.2127,-3.2365,-3.1587,-3.1386,-3.0583,-2.753,0.0,0.0,-2.3891,-2.3271,-2.317,-2.3409,-2.4287,-2.5823,0.0,-3.0607,-3.3733,0.0,0.0,0.0,0.0,0.0,0.0,0.0,0.0,0.0,0.0,-5.2591,-5.29,-5.29,-5.1804,-5.1214,-5.1214,-5.1468,-5.1798,-5.2202,-5.2725,-5.3054,-5.3174,-5.3458,-5.3234,-5.2591,-5.3086,-5.3021,-5.2627,-5.3095,-5.3164,-5.2856,-5.2395,-5.2109,-5.185,-5.1386,-5.1214,-5.1214,-5.1214,-5.1214,-5.1214,-5.1214,-5.1214,-5.1214,-5.1214,-5.1214,-5.1214,-5.1214,-5.1214,-5.1035,-5.0107,-4.9853,-4.9553,-4.8237,-4.7593,-4.7309,-4.7309,-4.7309,-4.7309,-4.7309,-4.7309,-4.7309,-4.7309,-4.7309,-4.7309,-4.7309,-4.7309,-4.7309,-4.7309,-4.7309,-4.7309,-4.7309,-4.7309,-4.7309,-4.7309,-4.7309,-4.7309,-4.7309,-4.7309,-4.7309,-4.7309,-4.7309,-4.7309,-4.7309,-4.7309,-4.7309,-4.7309,-4.7309,-4.7309,-4.7309,-4.7309,-4.7309,-4.7309,-4.7309,-4.7309,-3.067,-3.1436,-3.1838,-3.1298,-3.1035,-3.0091,0.0,0.0,-2.559,-2.3245,-2.3113,-2.3442,-2.3442,-2.4577,-2.6182,-2.8315,-3.0786,-3.391,-3.8101,0.0,0.0,0.0,0.0,0.0,0.0,0.0,0.0,0.0,-5.2288,-5.2395,-5.2395,-5.1635,-5.1214,-5.1214,-5.1214,-5.1439,-5.1902,-5.2097,-5.2336,-5.2606,-5.28,-5.2546,-5.1917,-5.225,-5.2428,-5.2395,-5.2738,-5.2694,-5.2395,-5.2395,-5.1941,-5.1214,-5.1214,-5.1214,-5.1214,-5.1214,-5.1214,-5.1214,-5.1214,-5.1214,-5.1214,-5.1214,-5.1214,-5.1214,-5.1214,-5.1214,-5.1079,-5.0375,-4.9912,-4.9404,-4.8282,-4.7653,-4.7309,-4.7309,-4.7309,-4.7309,-4.7309,-4.7309,-4.7309,-4.7309,-4.7309,-4.7309,-4.7309,-4.7309,-4.7309,-4.7309,-4.7309,-4.7309,-4.7309,-4.7309,-4.7309,-4.7309,-4.7309,-4.7309,-4.7309,-4.7309,-4.7309,-4.7309,-4.7309,-4.7309,-4.7309,-4.7309,-4.7309,-4.7309,-4.7309,-4.7309,-4.7309,-4.7309,-4.7309,-4.7309,-4.7309,-4.7309,-2.9654,-3.0595,-3.1273,-3.0758,-3.0218,-2.9011,0.0,-2.5431,-2.4904,-2.2419,-2.3177,-2.4292,-2.4292,-2.5439,-2.7286,-3.0037,-3.1679,-3.431,-3.9192,0.0,0.0,0.0,0.0,0.0,0.0,0.0,0.0,-5.0197,-5.0855,0.0,-5.1214,-5.1214,-5.1214,-5.1214,-5.1214,-5.1214,-5.1229,-5.1872,-5.1872,-5.1244,-5.1887,-5.1872,-5.1276,-5.2365,-5.2275,-5.1261,-5.2395,-5.2275,-5.1214,-5.1214,-5.1214,-5.1214,-5.1214,-5.1214,-5.1214,-5.1214,-5.1214,-5.1214,-5.1214,-5.1214,-5.1214,-5.1214,-5.1214,-5.1214,-5.1214,-5.1214,-5.1079,-5.0375,-4.9299,-4.8147,-4.7489,-4.7309,-4.7309,-4.7309,-4.7309,-4.7309,-4.7309,-4.7309,-4.7309,-4.7309,-4.7309,-4.7309,-4.7309,-4.7309,-4.7309,-4.7309,-4.7309,-4.7309,-4.7309,-4.7309,-4.7309,-4.7309,-4.7309,-4.7309,-4.7309,-4.7309,-4.7309,-4.7309,-4.7309,-4.7309,-4.7309,-4.7309,-4.7309,-4.7309,-4.7309,-4.7309,-4.7309,-4.7309,-4.7309,-4.7309,-4.7309,-4.7309,-2.7921,-2.8599,-2.885,-2.7753,-2.7527,-2.699,-2.4583,-2.4362,-2.445,-2.3699,-2.3959,-2.4568,-2.5507,-2.6445,-2.8314,-3.2008,-3.338,0.0,0.0,0.0,0.0,0.0,0.0,0.0,0.0,0.0,0.0,-5.0136,-5.0808,-5.1214,-5.1214,-5.1214,-5.1214,-5.1214,-5.1214,-5.1214,-5.1214,-5.1424,-5.1424,-5.1214,-5.1439,-5.1424,-5.1214,-5.1557,-5.1557,-5.1214,-5.1603,-5.1511,-5.1214,-5.1214,-5.1214,-5.1214,-5.1214,-5.1214,-5.1214,-5.1214,-5.1214,-5.1214,-5.1214,-5.1214,-5.1214,-5.1214,-5.1214,-5.1214,-5.1214,-5.1214,-5.1079,-5.0375,-4.9613,-4.885,-4.8147,-4.7638,-4.7309,-4.7309,-4.7309,-4.7309,-4.7309,-4.7309,-4.7309,-4.7309,-4.7309,-4.7309,-4.7309,-4.7309,-4.7309,-4.7309,-4.7309,-4.7309,-4.7309,-4.7309,-4.7309,-4.7309,-4.7309,-4.7309,-4.7309,-4.7309,-4.7309,-4.7309,-4.7309,-4.7309,-4.7309,-4.7309,-4.7309,-4.7309,-4.7309,-4.7309,-4.7309,-4.7309,-4.7309,-4.7309,-4.7309,-4.7309,0.0,-2.6558,-2.6711,-2.5515,-2.5479,-2.5242,-2.3429,-2.3785,-2.4461,-2.4191,-2.4842,-2.5779,-2.685,-2.769,-2.9215,-3.2285,-3.3614,0.0,0.0,0.0,0.0,0.0,0.0,0.0,0.0,0.0,-4.9164,-4.9823,-5.0481,-5.0913,-5.1214,-5.1214,-5.1214,-5.1214,-5.1214,-5.1214,-5.1214,-5.1214,-5.1214,-5.1214,-5.1214,-5.1214,-5.1214,-5.1214,-5.1214,-5.1214,-5.1214,-5.1214,0.0,-5.1214,-5.1214,-5.1214,-5.1214,-5.1214,-5.1214,-5.1214,-5.1214,-5.1214,-5.1214,-5.1214,-5.1214,-5.1214,-5.1214,-5.1169,-5.0883,-5.0808,-5.0705,-5.0062,-4.9404,-4.879,-4.8087,-4.7608,-4.7309,-4.7309,-4.7309,-4.7309,-4.7309,-4.7309,-4.7309,-4.7309,-4.7309,-4.7309,-4.7309,-4.7309,-4.7309,-4.7309,-4.7309,-4.7309,-4.7309,-4.7309,-4.7121,-4.6638,-4.6594,-4.6594,-4.6594,-4.7019,-4.7309,-4.7309,-4.7309,-4.7309,-4.7309,-4.7309,-4.7309,-4.7309,-4.7309,-4.7309,-4.7309,-4.7309,-4.7309,-4.7309,-4.7309,-4.7309,0.0,0.0,0.0,0.0,0.0,-2.3808,-2.2457,-2.3717,0.0,-2.4281,-2.593,-2.7684,-2.8386,-2.9086,-3.0085,-3.1621,-3.2856,0.0,0.0,0.0,0.0,0.0,0.0,0.0,0.0,0.0,-4.8536,-4.9194,-4.9838,-5.0465,-5.1124,-5.1184,-5.1214,-5.1214,-5.1214,-5.1214,-5.1214,-5.1214,-5.1214,-5.1214,-5.1214,-5.1214,-5.1214,-5.1214,-5.1214,-5.1214,-5.1214,-5.1214,-5.1214,-5.1214,-5.1214,-5.1214,-5.1214,-5.1214,-5.1214,-5.1214,-5.1214,-5.1214,-5.1169,-5.1154,-5.1139,-5.1094,-5.1079,-5.0975,-5.03,-5.0166,-5.0046,-4.9389,-4.8805,-4.8132,-4.7474,-4.7309,-4.7309,-4.7309,-4.7309,-4.7309,-4.7309,-4.7309,-4.7309,-4.7309,-4.7309,-4.7309,-4.7309,-4.7309,-4.7309,-4.7309,-4.7309,-4.7309,-4.7309,-4.7207,-4.6726,-4.5539,-4.5298,-4.5298,-4.5403,-4.6491,-4.7207,-4.7309,-4.7309,-4.7309,-4.7309,-4.7309,-4.7309,-4.7309,-4.7309,-4.7309,-4.7309,-4.7309,-4.7309,-4.7309,-4.7309,-4.7309,-2.0349,0.0,-2.2218,-2.0314,-2.1314,-2.2604,0.0,-2.373,-2.5699,0.0,0.0,0.0,0.0,-3.0402,-3.1348,0.0,0.0,0.0,0.0,0.0,0.0,0.0,0.0,0.0,0.0,0.0,-4.8356,-4.8506,-4.9583,-5.0255,-5.042,-5.0898,-5.1214,-5.1214,-5.1214,-5.1214,-5.1214,-5.1214,-5.1214,-5.1214,-5.1214,-5.1214,-5.1214,-5.1214,-5.1214,-5.1214,-5.1214,-5.1214,-5.1214,-5.1214,-5.1214,-5.1214,-5.1214,-5.1214,-5.1214,-5.1214,-5.1214,-5.1154,-5.0599,-5.042,-5.0345,-4.9883,-4.9733,-4.9703,-4.9538,-4.9838,-4.9956,-4.8835,-4.8401,-4.8132,-4.7474,-4.7309,-4.7309,-4.7309,-4.7309,-4.7309,-4.7309,-4.7309,-4.7309,-4.7309,-4.7309,-4.7309,-4.7309,-4.7309,-4.7309,-4.7309,-4.7309,-4.7309,-4.7309,-4.6447,-4.5734,-4.5448,-4.4549,-4.4349,-4.5298,-4.5689,-4.6255,-4.7251,-4.7309,-4.7309,-4.7309,-4.7309,-4.7309,-4.7309,-4.7309,-4.7309,-4.7309,-4.7309,-4.7309,-4.7309,-4.7309,-4.7309,-1.872,-2.0045,-2.1481,-2.0309,-2.1693,-2.3501,-2.4012,0.0,0.0,0.0,0.0,0.0,0.0,0.0,0.0,0.0,0.0,0.0,0.0,0.0,0.0,0.0,0.0,0.0,0.0,-4.7623,-4.7952,-4.8267,-4.894,-4.9479,-4.9778,-5.0406,-5.0719,-5.0719,-5.1065,-5.1214,-5.1214,-5.1214,-5.1214,-5.1214,-5.1214,-5.1214,-5.1214,-5.1214,-5.1214,-5.1214,-5.1214,-5.1214,-5.1214,-5.1214,-5.1214,-5.1214,-5.1214,-5.0988,-5.0719,-5.0719,-5.0586,-5.0272,-4.9912,-4.9793,-4.9733,-4.9434,-4.9314,-4.9254,-4.8955,-4.906,-4.9194,-4.8476,-4.8072,-4.7758,-4.7399,-4.7309,-4.7309,-4.7309,-4.7309,-4.7309,-4.7309,-4.7309,-4.7309,-4.7309,-4.7309,-4.7309,-4.7309,-4.7309,-4.7309,-4.7309,-4.7309,-4.7062,-4.6491,-4.5824,-4.4964,-4.3787,-4.3551,-4.3787,-4.4456,-4.507,-4.5928,-4.7207,-4.7309,-4.7309,-4.7309,-4.7309,-4.7309,-4.7309,-4.7309,-4.7309,-4.7309,-4.7309,-4.7309,-4.7309,-4.7309,-4.7309,-1.8748,-2.0289,-2.221,-2.1724,-2.3304,-2.5367,0.0,0.0,0.0,0.0,0.0,0.0,0.0,0.0,0.0,0.0,0.0,0.0,0.0,0.0,0.0,0.0,0.0,0.0,-4.7309,-4.7309,-4.7534,-4.8087,-4.8222,-4.8536,-4.9134,-4.9733,-5.0046,-5.0046,-5.0631,-5.0915,-5.0915,-5.1109,-5.1214,-5.1214,-5.1214,-5.1214,-5.1214,-5.1214,-5.1214,-5.1214,-5.1109,-5.1065,-5.1065,-5.096,-5.0915,-5.0915,-5.0915,-5.0571,-5.0046,-5.0046,-4.9748,-4.9299,-4.9194,-4.909,-4.9015,-4.9015,-4.9015,-4.891,-4.8312,-4.8132,-4.8132,-4.8132,-4.7743,-4.7309,-4.7309,-4.7309,-4.7309,-4.7309,-4.7309,-4.7309,-4.7309,-4.7309,-4.7309,-4.7309,-4.7309,-4.7309,-4.7309,-4.7309,-4.7309,-4.7309,-4.7309,-4.6916,-4.5824,-4.5358,-4.4256,-4.2119,-4.2689,-4.3313,-4.3504,-4.4688,-4.5869,-4.6931,-4.7207,-4.7207,-4.7019,-4.7207,-4.7121,-4.6726,-4.6916,-4.7019,-4.7019,-4.7019,-4.7121,-4.7309,-4.7309,-4.7309,-2.1327,-2.3674,-2.4876,-2.1942,-2.3967,-2.6926,-2.7761,0.0,0.0,0.0,0.0,0.0,0.0,0.0,0.0,0.0,0.0,0.0,0.0,0.0,0.0,0.0,0.0,-4.7309,-4.7309,-4.7309,-4.7339,-4.7459,-4.7967,-4.8327,-4.8431,-4.906,-4.9419,-4.9419,-4.9554,-4.9614,-4.9614,-5.0661,-5.1214,-5.1214,-5.1214,-5.1214,-5.1214,-5.1214,-5.1214,-5.1184,-5.0584,-5.0345,-5.03,-4.9793,-4.9614,-4.9614,-4.9614,-4.9554,-4.9419,-4.9419,-4.9404,-4.9239,-4.8626,-4.8072,-4.7608,-4.7608,-4.7608,-4.7593,-4.7489,-4.7459,-4.7459,-4.7459,-4.7384,-4.7309,-4.7309,-4.7309,-4.7309,-4.7309,-4.7309,-4.7309,-4.7309,-4.7309,-4.7309,-4.7309,-4.7309,-4.7309,-4.7309,-4.7309,-4.7309,-4.7309,-4.7309,-4.7207,-4.7019,-4.5115,-4.3646,-4.3266,-4.2412,-4.2315,-4.3409,-4.4688,-4.5494,-4.5689,-4.6682,-4.6829,-4.5734,-4.6726,-4.6299,-4.4116,-4.5161,-4.5689,-4.5689,-4.5689,-4.6255,-4.7309,-4.7309,-4.7309,-2.1199,-2.3676,-2.5698,-2.4785,-2.7515,-3.0577,-3.1323,0.0,0.0,0.0,0.0,0.0,0.0,0.0,0.0,0.0,0.0,0.0,0.0,0.0,0.0,0.0,0.0,-4.7309,-4.7309,-4.7309,-4.7309,-4.7309,-4.7593,-4.7758,-4.7758,-4.8386,-4.8745,-4.8745,-4.912,-4.9314,-4.9314,-4.9868,-5.0167,-5.0167,-5.0167,-5.0167,-5.0167,-5.0167,-5.0167,-5.0152,-4.9853,-4.9703,-4.9688,-4.9434,-4.9314,-4.9314,-4.9314,-4.909,-4.8745,-4.8341,-4.8207,-4.8074,-4.7081,-4.6549,-4.6255,-4.6255,-4.6255,-4.6403,-4.7062,-4.7309,-4.7309,-4.7309,-4.7309,-4.7309,-4.7309,-4.7309,-4.7309,-4.7309,-4.7309,-4.7309,-4.7309,-4.7309,-4.7309,-4.7309,-4.7309,-4.7309,-4.7309,-4.7309,-4.7309,-4.7309,-4.7309,-4.7062,-4.6358,-4.5252,-4.4022,-4.2593,-4.2544,-4.2593,-4.2509,-4.3646,-4.4688,-4.5358,-4.5298,-4.4978,-4.4396,-4.4918,-4.4688,-4.3504,-4.4734,-4.5403,-4.5403,-4.6107,-4.6726,-4.7309,-4.7309,-4.7309,-2.1866,-2.4013,-2.6463,-2.7851,0.0,-3.2632,-3.3811,0.0,0.0,0.0,0.0,0.0,0.0,0.0,0.0,0.0,0.0,0.0,0.0,0.0,0.0,-4.7234,-4.7309,-4.7309,-4.7309,-4.7309,-4.7309,-4.7309,-4.7309,-4.7309,-4.7309,-4.7788,-4.8057,-4.8057,-4.8254,-4.8416,-4.8416,-4.8416,-4.8715,-4.9314,-4.9314,-4.9314,-4.9314,-4.9314,-4.9314,-4.9299,-4.9149,-4.909,-4.906,-4.8925,-4.8805,-4.8805,-4.8805,-4.8506,-4.7997,-4.7489,-4.7121,-4.6726,-4.5734,-4.5207,-4.4978,-4.4978,-4.5161,-4.5584,-4.655,-4.7062,-4.7309,-4.7309,-4.7309,-4.7309,-4.7309,-4.7309,-4.7309,-4.7309,-4.7309,-4.7309,-4.7309,-4.7309,-4.7309,-4.7309,-4.7309,-4.7309,-4.7309,-4.7309,-4.7309,-4.7309,-4.7309,-4.6829,-4.5539,-4.5161,-4.4069,-4.1838,-4.2461,-4.2786,-4.2119,-4.2689,-4.3456,-4.4442,-4.3882,-4.3361,-4.3074,-4.3361,-4.3218,-4.2593,-4.3882,-4.4642,-4.4978,-4.5928,-4.6726,-4.7309,-4.7309,-4.7309,-2.5509,-2.6904,-2.8079,-2.9923,-3.0072,0.0,-3.2582,-3.1906,0.0,-3.217,0.0,0.0,0.0,0.0,0.0,0.0,0.0,0.0,0.0,0.0,-4.6576,-4.7234,-4.7309,-4.7309,-4.7309,-4.7309,-4.7309,-4.7309,-4.7309,-4.7309,-4.7309,-4.7354,-4.7369,-4.7369,-4.6268,-4.5683,-4.5683,-4.5683,-4.6897,-4.9314,-4.9314,-4.9314,-4.9314,-4.9314,-4.9314,-4.9284,-4.8626,-4.8356,-4.8312,-4.7698,-4.7444,-4.7444,-4.7444,-4.7414,-4.7369,-4.7324,-4.6535,-4.5539,-4.5448,-4.4642,-4.3646,-4.3646,-4.4442,-4.5403,-4.5494,-4.6358,-4.7309,-4.7309,-4.7309,-4.7309,-4.7309,-4.7309,-4.7309,-4.7309,-4.7309,-4.7309,-4.7309,-4.7309,-4.7309,-4.7309,-4.7309,-4.7309,-4.7309,-4.7309,-4.7309,-4.7309,-4.7309,-4.6829,-4.5539,-4.4349,-4.3122,-4.1739,-4.169,-4.2168,-4.3266,-4.2363,-4.1789,-4.1887,-4.2882,-4.2978,-4.1789,-4.2882,-4.2412,-4.0032,-4.1219,-4.2461,-4.3646,-4.374,-4.4978,-4.7309,-4.7309,-4.7309,-2.4359,-2.6171,-2.79,-2.8818,-2.9478,0.0,0.0,-3.2216,-3.1856,-3.301,-3.2003,0.0,0.0,0.0,0.0,0.0,0.0,0.0,0.0,-4.6247,-4.7025,-4.7279,-4.7309,-4.7309,-4.7309,-4.7309,-4.7309,-4.7309,-4.7309,-4.7309,-4.7309,-4.6535,-4.6107,-4.6107,-4.4872,-4.421,-4.421,-4.421,-4.5114,-4.6883,-4.7659,-4.8057,-4.8057,-4.8057,-4.7614,-4.6868,-4.6619,-4.6036,-4.5352,-4.588,-4.6107,-4.6211,-4.6975,-4.6829,-4.6107,-4.6107,-4.5298,-4.4116,-4.3313,-4.2738,-4.2461,-4.3266,-4.3834,-4.4503,-4.6107,-4.6916,-4.7309,-4.7309,-4.7309,-4.7309,-4.7309,-4.7309,-4.7309,-4.7309,-4.7309,-4.7309,-4.7309,-4.7309,-4.7309,-4.7309,-4.7309,-4.7309,-4.7309,-4.6638,-4.6107,-4.6107,-4.5448,-4.478,-4.4256,-4.3787,-4.3026,-4.1739,-4.0882,-4.0605,-4.1082,-4.0693,-4.0415,-4.0415,-4.0882,-4.0932,-4.0465,-4.0882,-4.0693,-3.9749,-4.1739,-4.3026,-4.3504,-4.507,-4.6358,-4.7309,-4.7309,-4.7309,-2.4379,-2.6042,-2.7746,0.0,0.0,0.0,-3.2245,-3.2142,-3.1992,-3.3253,-3.2757,0.0,0.0,0.0,0.0,0.0,0.0,0.0,0.0,-4.6456,-4.7309,-4.7309,-4.7309,-4.7309,-4.7309,-4.7309,-4.7309,-4.7309,-4.6931,-4.6682,-4.6682,-4.5494,-4.478,-4.478,-4.3551,-4.2882,-4.2882,-4.2882,-4.3361,-4.421,-4.5494,-4.6299,-4.6682,-4.6682,-4.6018,-4.478,-4.478,-4.4303,-4.3551,-4.4442,-4.5024,-4.5494,-4.6358,-4.6166,-4.5358,-4.4964,-4.3975,-4.2786,-4.1887,-4.1369,-4.1219,-4.2509,-4.317,-4.3882,-4.6062,-4.6975,-4.7309,-4.7309,-4.7309,-4.7309,-4.7309,-4.7309,-4.7309,-4.7309,-4.7309,-4.7309,-4.7309,-4.7309,-4.7309,-4.7309,-4.6975,-4.6682,-4.6682,-4.5644,-4.478,-4.478,-4.4069,-4.3361,-4.293,-4.2882,-4.2412,-4.1119,-4.0224,-3.9697,-3.9697,-3.9697,-3.9697,-3.9697,-3.9697,-3.9697,-3.9697,-3.9697,-3.989,-4.0262,-4.2035,-4.3313,-4.4116,-4.5824,-4.6916,-4.7309,-4.7309,-4.7309,-2.6411,-2.7091,0.0,0.0,0.0,0.0,0.0,0.0,-3.1319,-3.2841,0.0,-3.4633,-3.7501,0.0,0.0,-4.1047,-4.3584,-4.5289,-4.5289,-4.6456,-4.7294,-4.7309,-4.7309,-4.7309,-4.7266,-4.7266,-4.7266,-4.7251,-4.6107,-4.5403,-4.5403,-4.4163,-4.3504,-4.3504,-4.2266,-4.1604,-4.1604,-4.1604,-4.1604,-4.1604,-4.2882,-4.4163,-4.5403,-4.5403,-4.4688,-4.3504,-4.3504,-4.3456,-4.3456,-4.3504,-4.421,-4.5403,-4.5403,-4.5358,-4.5207,-4.3929,-4.2689,-4.1604,-4.1604,-4.0743,-3.9929,-4.1219,-4.2461,-4.374,-4.5024,-4.6299,-4.7309,-4.7309,-4.7309,-4.7309,-4.7309,-4.7309,-4.7309,-4.7309,-4.7309,-4.7309,-4.7309,-4.7309,-4.7309,-4.7309,-4.6255,-4.5403,-4.5403,-4.4303,-4.3504,-4.3504,-4.3456,-4.3026,-4.1739,-4.1604,-4.1082,-3.9839,-3.9697,-3.9697,-3.9697,-3.9697,-3.9697,-3.9697,-3.9697,-3.9697,-3.9697,-3.9697,-4.0313,-4.1604,-4.1604,-4.2882,-4.5403,-4.5403,-4.6062,-4.7309,-4.7309,-4.7309,-2.5106,-2.6722,0.0,0.0,0.0,0.0,0.0,0.0,0.0,0.0,0.0,0.0,-3.9197,0.0,0.0,-4.1998,-4.3494,-4.4766,-4.5229,-4.6052,-4.6785,-4.7249,-4.7309,-4.6975,-4.6062,-4.5973,-4.5584,-4.4688,-4.4256,-4.4069,-4.4069,-4.2882,-4.2168,-4.2168,-4.0932,-4.0262,-4.0262,-4.0262,-4.0693,-4.1604,-4.1985,-4.2834,-4.4069,-4.4069,-4.3361,-4.2168,-4.2168,-4.1654,-4.0882,-4.1789,-4.293,-4.4069,-4.4069,-4.3504,-4.2689,-4.2315,-4.1369,-4.0262,-4.0262,-4.0032,-4.0083,-4.2217,-4.317,-4.3882,-4.6062,-4.7019,-4.7309,-4.7309,-4.7309,-4.7309,-4.7309,-4.7309,-4.7309,-4.7309,-4.7309,-4.7309,-4.7309,-4.7309,-4.7309,-4.7309,-4.6255,-4.5403,-4.5403,-4.3598,-4.2168,-4.2168,-4.1406,-4.0693,-4.0313,-4.0262,-4.0121,-3.9736,-3.9697,-3.9697,-3.9697,-3.9697,-3.9697,-3.9697,-3.9697,-3.9697,-3.9697,-3.9697,-4.0313,-4.1604,-4.2509,-4.374,-4.5403,-4.6299,-4.6931,-4.7309,-4.7309,-4.7309,-2.6471,0.0,0.0,0.0,0.0,0.0,0.0,0.0,0.0,0.0,0.0,0.0,-4.0744,-4.1448,0.0,-4.2366,-4.3114,-4.3776,-4.4175,-4.4615,-4.5025,-4.5402,-4.5678,-4.5494,-4.4734,-4.4642,-4.4303,-4.3551,-4.3026,-4.2738,-4.2738,-4.1555,-4.0844,-4.0844,-4.007,-3.9697,-3.9697,-3.9697,-4.007,-4.0844,-4.0844,-4.1269,-4.2035,-4.2509,-4.2021,-4.0844,-4.0844,-4.0415,-3.9788,-4.1082,-4.2021,-4.2738,-4.2738,-4.2266,-4.1555,-4.1032,-4.0364,-3.9697,-3.9697,-3.9697,-4.0121,-4.2689,-4.3504,-4.3975,-4.6535,-4.7309,-4.7309,-4.7309,-4.7309,-4.7309,-4.7309,-4.7309,-4.7309,-4.7309,-4.7309,-4.7309,-4.7309,-4.7309,-4.7164,-4.6638,-4.5539,-4.4503,-4.3975,-4.2217,-4.0844,-4.0844,-4.0173,-3.9697,-3.9697,-3.9697,-3.9697,-3.9697,-3.9697,-3.9697,-3.9697,-3.9697,-3.9697,-3.9697,-4.0173,-4.0453,-4.0453,-4.0453,-4.1269,-4.3074,-4.3882,-4.4872,-4.6166,-4.6931,-4.7309,-4.7309,-4.7309,-4.7309,0.0,0.0,0.0,0.0,0.0,0.0,0.0,0.0,0.0,0.0,0.0,0.0,0.0,-4.1991,-4.1758,-4.2264,-4.2447,-4.2508,-4.2423,-4.2488,-4.2546,-4.2602,-4.3053,-4.3304,-4.3265,-4.3278,-4.3211,-4.3156,-4.207,-4.1406,-4.1406,-4.0313,-3.9697,-3.9697,-3.9697,-3.9697,-3.9697,-3.9697,-3.9697,-3.9697,-3.9697,-3.9697,-3.9736,-4.0882,-4.0794,-3.9697,-3.9697,-3.9697,-3.9788,-4.0932,-4.1406,-4.1406,-4.1406,-4.1406,-4.1269,-4.0121,-3.9697,-3.9697,-3.9697,-3.9697,-4.0121,-4.2689,-4.3504,-4.3975,-4.6535,-4.7309,-4.7309,-4.7309,-4.7309,-4.7309,-4.7309,-4.7309,-4.7309,-4.7309,-4.7309,-4.7309,-4.7309,-4.7207,-4.6785,-4.5629,-4.4256,-4.2978,-4.1789,-4.0554,-3.9697,-3.9697,-3.9697,-3.9697,-3.9697,-3.9697,-3.9697,-3.9697,-3.9697,-3.9697,-3.9697,-3.9697,-3.9736,-3.989,-4.0982,-4.169,-4.1936,-4.1838,-4.293,-4.5358,-4.5403,-4.6018,-4.7309,-4.7309,-4.7309,-4.7309,-4.7309,-4.7309,0.0,0.0,0.0,0.0,0.0,0.0,0.0,0.0,0.0,0.0,0.0,0.0,0.0,-4.3015,-4.2664,-4.1893,-4.1796,-4.1652,-4.1259,-4.1199,-4.1412,-4.1941,-4.2108,-4.1969,-4.1445,-4.1389,-4.1165,-4.0566,-4.0262,-4.0121,-4.0121,-3.9839,-3.9697,-3.9697,-3.9697,-3.9697,-3.9697,-3.9697,-3.9697,-3.9697,-3.9697,-3.9697,-3.9697,-3.9981,-3.9981,-3.9697,-3.9697,-3.9697,-3.9749,-3.9981,-4.0121,-4.0121,-4.0121,-4.0121,-4.007,-3.9788,-3.9697,-3.9697,-3.9697,-3.9697,-4.0121,-4.2689,-4.3504,-4.3975,-4.6535,-4.7309,-4.7309,-4.7309,-4.7309,-4.7309,-4.7309,-4.7309,-4.7309,-4.7309,-4.7309,-4.7309,-4.7309,-4.6491,-4.5734,-4.5448,-4.3551,-4.1936,-4.1654,-4.0554,-3.9697,-3.9697,-3.9697,-3.9697,-3.9697,-3.9697,-3.9697,-3.9697,-3.9697,-3.9697,-3.9697,-3.9697,-4.0121,-4.1119,-4.1455,-4.2509,-4.4503,-4.3646,-4.3834,-4.5358,-4.5403,-4.6018,-4.7309,-4.7309,-4.7309,-4.7309,-4.7309,-4.7309,0.0,0.0,0.0,0.0,0.0,0.0,0.0,0.0,0.0,0.0,0.0,0.0,-4.2132,-4.2262,-4.2111,-4.0958,-4.029,-3.9823,-3.9532,-3.924,-3.9223,-3.9561,-3.984,-3.9812,-3.9488,-3.9736,-3.9748,-3.9372,-3.9546,-3.9697,-3.9697,-3.9697,-3.9697,-3.9697,-3.9697,-3.9697,-3.9697,-3.9697,-3.9697,-3.9697,-3.9697,-3.9697,-3.9697,-3.9697,-3.9697,-3.9697,-3.9697,-3.9697,-3.9697,-3.9697,-3.9697,-3.9697,-3.9697,-3.9697,-3.9697,-3.9697,-3.9697,-3.9697,-3.9697,-4.007,-4.0932,-4.2882,-4.3929,-4.478,-4.6726,-4.7309,-4.7309,-4.7309,-4.7309,-4.7309,-4.7309,-4.7309,-4.7309,-4.7309,-4.7309,-4.7121,-4.6535,-4.5869,-4.5024,-4.3834,-4.2509,-4.1406,-4.0794,-4.0121,-3.9697,-3.9697,-3.9697,-3.9697,-3.9697,-3.9697,-3.9697,-3.9697,-3.9697,-3.9697,-3.9697,-4.0262,-4.0882,-4.1555,-4.2738,-4.4022,-4.5358,-4.5358,-4.5644,-4.6299,-4.6299,-4.6638,-4.7309,-4.7309,-4.7309,-4.7309,-4.7309,-4.7309,0.0,0.0,0.0,0.0,0.0,0.0,0.0,0.0,0.0,0.0,0.0,0.0,-4.05,-4.078,-4.083,-3.9741,-3.8738,-3.8017,-3.7848,-3.7373,-3.7048,-3.7048,-3.745,-3.7764,-3.7852,-3.8291,-3.8617,-3.8718,-3.9145,-3.9396,-3.9396,-3.9496,-3.9546,-3.9546,-3.9647,-3.9697,-3.9697,-3.9697,-3.9697,-3.9697,-3.9697,-3.9697,-3.9697,-3.9697,-3.9697,-3.9697,-3.9697,-3.9697,-3.9697,-3.9697,-3.9697,-3.9697,-3.9697,-3.9697,-3.9697,-3.9697,-3.9697,-3.9749,-3.9929,-4.0693,-4.1838,-4.3361,-4.4549,-4.5644,-4.6916,-4.7309,-4.7309,-4.7309,-4.7309,-4.7309,-4.7309,-4.7309,-4.7251,-4.7019,-4.6975,-4.6682,-4.5644,-4.507,-4.4116,-4.2035,-4.1406,-4.0932,-3.989,-3.9697,-3.9697,-3.9697,-3.9697,-3.9697,-3.9697,-3.9697,-3.9697,-3.9697,-3.9697,-3.9697,-3.9697,-4.0882,-4.169,-4.1936,-4.4116,-4.5494,-4.5734,-4.6726,-4.7309,-4.7309,-4.7309,-4.7309,-4.7309,-4.7309,-4.7309,-4.7309,-4.7309,-4.7309,0.0,0.0,0.0,0.0,0.0,0.0,0.0,0.0,0.0,0.0,0.0,0.0,-3.9327,-3.927,-3.9121,-3.8465,-3.8198,-3.7756,-3.6756,-3.6562,-3.6518,-3.6518,-3.6581,-3.682,-3.7249,-3.7362,-3.7613,-3.809,-3.8191,-3.8228,-3.8228,-3.8705,-3.9032,-3.9032,-3.9446,-3.9697,-3.9697,-3.9697,-3.9697,-3.9697,-3.9697,-3.9697,-3.9697,-3.9697,-3.9697,-3.9697,-3.9697,-3.9697,-3.9697,-3.9697,-3.9697,-3.9697,-3.9697,-3.9697,-3.9697,-3.9697,-3.9697,-3.9839,-4.0982,-4.1455,-4.1985,-4.4349,-4.5252,-4.5644,-4.6916,-4.7309,-4.7309,-4.7309,-4.7309,-4.7309,-4.7309,-4.7309,-4.7019,-4.5928,-4.5644,-4.5584,-4.5448,-4.3693,-4.2035,-4.1654,-4.0693,-3.989,-3.9749,-3.9697,-3.9697,-3.9697,-3.9697,-3.9697,-3.9697,-3.9697,-3.9697,-3.9697,-3.9697,-3.9697,-3.9697,-4.0882,-4.207,-4.317,-4.4595,-4.5928,-4.7019,-4.7207,-4.7309,-4.7309,-4.7309,-4.7309,-4.7309,-4.7309,-4.7309,-4.7309,-4.7309,-4.7309,0.0,0.0,0.0,0.0,0.0,0.0,0.0,0.0,0.0,0.0,0.0,-3.6934,-3.7049,-3.7569,-3.7758,-3.6819,-3.6944,-3.6977,-3.6452,-3.6405,-3.6405,-3.6405,-3.6405,-3.6505,-3.6744,-3.6998,-3.7287,-3.7525,-3.7839,-3.8002,-3.8002,-3.8253,-3.8391,-3.8391,-3.8617,-3.8755,-3.8755,-3.8755,-3.8919,-3.9233,-3.9546,-3.9697,-3.9697,-3.9697,-3.9697,-3.9697,-3.9697,-3.9697,-3.9697,-3.9697,-3.9697,-3.9697,-3.9697,-3.9697,-3.9697,-3.9697,-3.9697,-3.989,-4.1169,-4.207,-4.2978,-4.478,-4.5869,-4.6594,-4.7121,-4.7309,-4.7309,-4.7309,-4.7309,-4.7309,-4.7309,-4.6785,-4.6107,-4.5539,-4.4303,-4.3266,-4.3266,-4.2412,-4.1406,-4.0642,-4.007,-3.9697,-3.9697,-3.9697,-3.9697,-3.9697,-3.9697,-3.9697,-3.9697,-3.9697,-3.9697,-3.9697,-3.9697,-3.9981,-4.0693,-4.1936,-4.3218,-4.4503,-4.5779,-4.6726,-4.7266,-4.7309,-4.7309,-4.7309,-4.7309,-4.7309,-4.7309,-4.7309,-4.7309,-4.7266,-4.6594,-4.6255,0.0,0.0,0.0,0.0,0.0,0.0,0.0,0.0,0.0,0.0,0.0,-3.4405,-3.4835,-3.5722,-3.6237,-3.5584,-3.5893,-3.6194,-3.6392,-3.6405,-3.6405,-3.6405,-3.6405,-3.6405,-3.6405,-3.6782,-3.6973,-3.6973,-3.7362,-3.7588,-3.7588,-3.7713,-3.7801,-3.7801,-3.7939,-3.8002,-3.8002,-3.8002,-3.8228,-3.8655,-3.922,-3.9484,-3.9484,-3.9634,-3.9697,-3.9697,-3.9697,-3.9697,-3.9697,-3.9697,-3.9697,-3.9697,-3.9697,-3.989,-4.0173,-4.0173,-4.0415,-4.0844,-4.2119,-4.317,-4.421,-4.5448,-4.6535,-4.7309,-4.7309,-4.7309,-4.7309,-4.7309,-4.7309,-4.7309,-4.7309,-4.6344,-4.5298,-4.4978,-4.3218,-4.1505,-4.1169,-4.1119,-4.0844,-3.989,-3.9697,-3.9697,-3.9697,-3.9697,-3.9697,-3.9697,-3.9697,-3.9697,-3.9697,-3.9697,-3.9697,-3.9697,-3.9697,-4.0224,-4.1505,-4.2786,-4.4022,-4.5298,-4.6594,-4.7309,-4.7309,-4.7309,-4.7309,-4.7309,-4.7309,-4.7309,-4.7309,-4.7309,-4.7121,-4.6785,-4.5824,-4.5207,0.0,0.0,0.0,0.0,0.0,0.0,0.0,0.0,0.0,0.0,0.0,-3.321,-3.3235,-3.367,-3.4368,-3.532,-3.552,-3.5768,-3.6329,-3.6405,-3.6405,-3.6405,-3.6405,-3.6405,-3.6405,-3.643,-3.6455,-3.6455,-3.648,-3.6493,-3.6493,-3.6996,-3.7224,-3.7224,-3.7739,-3.8002,-3.8002,-3.8002,-3.8027,-3.8052,-3.863,-3.8957,-3.8982,-3.9459,-3.9697,-3.9697,-3.9697,-3.9697,-3.9697,-3.9697,-3.9697,-3.9697,-3.9697,-4.0465,-4.1505,-4.1505,-4.2266,-4.3504,-4.478,-4.5252,-4.5494,-4.6785,-4.7251,-4.7309,-4.7309,-4.7309,-4.7309,-4.7309,-4.7309,-4.7309,-4.7309,-4.6344,-4.5115,-4.3882,-4.2593,-4.1269,-4.0083,-3.9788,-3.9788,-3.9697,-3.9697,-3.9697,-3.9697,-3.9697,-3.9697,-3.9697,-3.9697,-3.9697,-3.9697,-3.9697,-3.9697,-3.9697,-3.9697,-4.0224,-4.1505,-4.2786,-4.4022,-4.5298,-4.6594,-4.7309,-4.7309,-4.7309,-4.7309,-4.7309,-4.7309,-4.7309,-4.7309,-4.7309,-4.6682,-4.5494,-4.5448,-4.4734,0.0,0.0,0.0,0.0,0.0,0.0,0.0,0.0,0.0,0.0,0.0,-3.2516,-3.2516,-3.3282,-3.4035,-3.4424,-3.4743,-3.5157,-3.5755,-3.583,-3.5968,-3.6367,-3.6405,-3.6405,-3.6405,-3.6405,-3.6405,-3.6405,-3.6405,-3.6405,-3.6405,-3.6593,-3.6707,-3.6707,-3.6895,-3.6948,-3.6948,-3.7299,-3.7475,-3.7487,-3.8052,-3.8517,-3.8932,-3.9082,-3.9358,-3.9697,-3.9697,-3.9697,-3.9697,-3.9697,-3.9697,-3.9788,-4.0605,-4.1219,-4.169,-4.2509,-4.3122,-4.3693,-4.4978,-4.5403,-4.5584,-4.6873,-4.7309,-4.7309,-4.7309,-4.7309,-4.7309,-4.7309,-4.7309,-4.7121,-4.6299,-4.5161,-4.3646,-4.1555,-4.0693,-4.0262,-3.9788,-3.9697,-3.9697,-3.9697,-3.9697,-3.9697,-3.9697,-3.9697,-3.9697,-3.9697,-3.9697,-3.9697,-3.9697,-3.9697,-3.9697,-3.9697,-4.0415,-4.1455,-4.2689,-4.3975,-4.5252,-4.6535,-4.7062,-4.7309,-4.7309,-4.7309,-4.7309,-4.7309,-4.6491,-4.6062,-4.6062,-4.6062,-4.5448,-4.4163,-4.3361,-4.317,-1.9611,0.0,0.0,0.0,0.0,0.0,0.0,0.0,0.0,0.0,0.0,-3.1989,-3.2177,-3.283,-3.3458,-3.3847,-3.4211,-3.4638,-3.5144,-3.5219,-3.5433,-3.6019,-3.6094,-3.6157,-3.6392,-3.6405,-3.6405,-3.6405,-3.6405,-3.6405,-3.6405,-3.6405,-3.6405,-3.6405,-3.6405,-3.6405,-3.6405,-3.6769,-3.6958,-3.6958,-3.7462,-3.7927,-3.8366,-3.8492,-3.8881,-3.9421,-3.9421,-3.9521,-3.9697,-3.9697,-3.9697,-3.9839,-4.1082,-4.1838,-4.2412,-4.3693,-4.4396,-4.4872,-4.5734,-4.6018,-4.6166,-4.7019,-4.7309,-4.7309,-4.7309,-4.7309,-4.7207,-4.6785,-4.6638,-4.6358,-4.507,-4.3834,-4.2315,-4.0224,-3.9697,-3.9697,-3.9697,-3.9697,-3.9697,-3.9697,-3.9697,-3.9697,-3.9697,-3.9697,-3.9697,-3.9697,-3.9697,-3.9697,-3.9697,-3.9697,-3.9839,-4.0262,-4.1069,-4.2315,-4.3975,-4.4918,-4.5928,-4.7207,-4.7309,-4.7309,-4.7309,-4.7309,-4.7121,-4.6682,-4.5824,-4.4978,-4.4116,-4.4549,-4.4116,-4.2834,-4.2412,-4.293,0.0,0.0,0.0,0.0,0.0,0.0,0.0,0.0,0.0,0.0,0.0,-3.1499,-3.2064,-3.2177,-3.2554,-3.3671,-3.3859,-3.406,-3.4625,-3.47,-3.4856,-3.5408,-3.547,-3.573,-3.6304,-3.6367,-3.638,-3.638,-3.6405,-3.6405,-3.6405,-3.6405,-3.6405,-3.6405,-3.6405,-3.6405,-3.6405,-3.6405,-3.6405,-3.6417,-3.6958,-3.7161,-3.7199,-3.7739,-3.8304,-3.8894,-3.8906,-3.9182,-3.9672,-3.9685,-3.9697,-3.9839,-4.1119,-4.2412,-4.3646,-4.4978,-4.6255,-4.7309,-4.7309,-4.7309,-4.7309,-4.7309,-4.7309,-4.7309,-4.7309,-4.7309,-4.7019,-4.5779,-4.5403,-4.5115,-4.3787,-4.2509,-4.1219,-3.9981,-3.9697,-3.9697,-3.9697,-3.9697,-3.9697,-3.9697,-3.9697,-3.9697,-3.9697,-3.9697,-3.9697,-3.9697,-3.9697,-3.9697,-3.9697,-3.9697,-4.0173,-4.1455,-4.1654,-4.2689,-4.5207,-4.5448,-4.5973,-4.7207,-4.7309,-4.7309,-4.7309,-4.7251,-4.6638,-4.5403,-4.5358,-4.4069,-4.1654,-4.2882,-4.2786,-4.1654,-4.293,-4.421,-1.8832,0.0,0.0,0.0,0.0,0.0,0.0,0.0,0.0,0.0,0.0,-2.9905,-3.0871,-3.1361,-3.1851,-3.2566,-3.3031,-3.3495,-3.4048,-3.4123,-3.4336,-3.4843,-3.4906,-3.5014,-3.5165,-3.5529,-3.5768,-3.5768,-3.6132,-3.6405,-3.6405,-3.6405,-3.6405,-3.6405,-3.6405,-3.6405,-3.6405,-3.6405,-3.6405,-3.6405,-3.6568,-3.6845,-3.7199,-3.7337,-3.7713,-3.8266,-3.8693,-3.8956,-3.9132,-3.9534,-3.9697,-3.9929,-4.2119,-4.317,-4.3787,-4.5973,-4.7019,-4.7309,-4.7309,-4.7309,-4.7309,-4.7309,-4.7309,-4.7309,-4.7309,-4.7309,-4.7019,-4.5779,-4.5403,-4.4872,-4.2689,-4.1169,-4.0121,-3.9788,-3.9697,-3.9697,-3.9697,-3.9697,-3.9697,-3.9697,-3.9697,-3.9697,-3.9697,-3.9697,-3.9697,-3.9697,-3.9697,-3.9697,-3.9697,-3.9697,-4.0173,-4.1455,-4.2412,-4.3646,-4.5252,-4.6255,-4.6916,-4.7266,-4.7309,-4.7309,-4.7309,-4.6403,-4.5779,-4.5403,-4.3598,-4.2738,-4.2978,-4.2412,-4.1936,-4.1654,-4.3834,-4.507,-1.9849,-2.0351,-2.1207,0.0,0.0,0.0,0.0,-2.5322,0.0,0.0,0.0,-2.9239,-3.0407,-3.0871,-3.1235,-3.1788,-3.2353,-3.2918,-3.3483,-3.3558,-3.3759,-3.4311,-3.4374,-3.4462,-3.47,-3.4969,-3.5157,-3.5157,-3.5491,-3.578,-3.6006,-3.6019,-3.6119,-3.6405,-3.6405,-3.6405,-3.6405,-3.6405,-3.6405,-3.6405,-3.6405,-3.6568,-3.6883,-3.6883,-3.7149,-3.7676,-3.8027,-3.8479,-3.8944,-3.922,-3.9816,-4.0693,-4.2689,-4.3834,-4.4549,-4.655,-4.7309,-4.7309,-4.7309,-4.7309,-4.7309,-4.7309,-4.7309,-4.7207,-4.6682,-4.6491,-4.6107,-4.4303,-4.3456,-4.2689,-4.1169,-4.0262,-3.9697,-3.9697,-3.9697,-3.9697,-3.9697,-3.9697,-3.9697,-3.9697,-3.9697,-3.9697,-3.9697,-3.9697,-3.9697,-3.9697,-3.9697,-3.9697,-3.9697,-4.0173,-4.0982,-4.2266,-4.3551,-4.4826,-4.6062,-4.6873,-4.7309,-4.7309,-4.7309,-4.7062,-4.6535,-4.5779,-4.4872,-4.3834,-4.2363,-4.1985,-4.2689,-4.1985,-4.2168,-4.3218,-4.4688,-4.5689,-2.1159,-2.1421,-2.2171,-2.3489,-2.2824,0.0,-2.59,-2.5649,-2.539,0.0,0.0,-2.88,-3.003,-3.0244,-3.0432,-3.1022,-3.1587,-3.219,-3.288,-3.3074,-3.3257,-3.3746,-3.3809,-3.3997,-3.45,-3.46,-3.4625,-3.4625,-3.4688,-3.4893,-3.5382,-3.5408,-3.5658,-3.6304,-3.6317,-3.6342,-3.6405,-3.6405,-3.6405,-3.6405,-3.6405,-3.6405,-3.6405,-3.6405,-3.6681,-3.7098,-3.7161,-3.7751,-3.8743,-3.9007,-4.009,-4.1739,-4.2978,-4.4256,-4.5539,-4.6829,-4.7309,-4.7309,-4.7309,-4.7309,-4.7309,-4.7309,-4.7309,-4.7062,-4.5779,-4.5403,-4.4872,-4.2315,-4.0693,-3.9697,-3.9697,-3.9697,-3.9697,-3.9697,-3.9697,-3.9697,-3.9697,-3.9697,-3.9697,-3.9697,-3.9697,-3.9697,-3.9697,-3.9697,-3.9697,-3.9697,-3.9697,-3.9697,-3.9697,-4.0794,-4.207,-4.3361,-4.4642,-4.5928,-4.7207,-4.7309,-4.7309,-4.7309,-4.7309,-4.6726,-4.5448,-4.5252,-4.4069,-4.1654,-4.1739,-4.1789,-4.1789,-4.1936,-4.317,-4.5403,-4.5539,-4.6211,-2.3107,-2.3371,-2.3898,-2.2899,-2.3414,0.0,-2.2849,-2.3414,-2.4318,0.0,0.0,0.0,-2.7645,-2.7934,-2.826,-2.9252,-2.9892,-3.0758,-3.219,-3.278,-3.3162,-3.3219,-3.3244,-3.3282,-3.3382,-3.3796,-3.406,-3.406,-3.4474,-3.4731,-3.4831,-3.4843,-3.5094,-3.5633,-3.5658,-3.5918,-3.6405,-3.6405,-3.6405,-3.6405,-3.6405,-3.6405,-3.6405,-3.6405,-3.6468,-3.6593,-3.6998,-3.7312,-3.7673,-3.9615,-4.0893,-4.1739,-4.2978,-4.4256,-4.5539,-4.6829,-4.7309,-4.7309,-4.7309,-4.7309,-4.7309,-4.7309,-4.7309,-4.7062,-4.5779,-4.5403,-4.4872,-4.2315,-4.0693,-3.9697,-3.9697,-3.9697,-3.9697,-3.9697,-3.9697,-3.9697,-3.9697,-3.9697,-3.9697,-3.9697,-3.9697,-3.9697,-3.9697,-3.9697,-3.9697,-3.9697,-3.9697,-3.9697,-3.9697,-4.0794,-4.207,-4.3361,-4.4642,-4.5928,-4.7207,-4.7309,-4.7309,-4.7309,-4.7309,-4.6726,-4.5448,-4.4396,-4.317,-4.1654,-4.2593,-4.3122,-4.3122,-4.4163,-4.4918,-4.5403,-4.6447,-4.7062,-2.4506,-2.4362,-2.465,-2.4092,-2.3966,0.0,0.0,-2.3753,-2.4042,-2.5711,-2.5598,0.0,0.0,0.0,-2.7557,-2.8386,-2.9227,-3.008,-3.0896,-3.1712,-3.2227,-3.2227,-3.2227,-3.234,-3.2616,-3.2893,-3.3181,-3.347,-3.3746,-3.4022,-3.4299,-3.4311,-3.4562,-3.5069,-3.5094,-3.5357,-3.5943,-3.5956,-3.6094,-3.6405,-3.6405,-3.6405,-3.6405,-3.6405,-3.6405,-3.6417,-3.6707,-3.6923,-3.7321,-3.9116,-4.0747,-4.2283,-4.3864,-4.5207,-4.6403,-4.7062,-4.7309,-4.7309,-4.7309,-4.7309,-4.7207,-4.655,-4.6344,-4.6018,-4.4069,-4.3074,-4.2315,-4.1032,-4.0173,-3.9697,-3.9697,-3.9697,-3.9697,-3.9697,-3.9697,-3.9697,-3.9697,-3.9697,-3.9697,-3.9697,-3.9697,-3.9697,-3.9697,-3.9697,-3.9697,-3.9697,-3.9697,-3.9929,-4.0554,-4.1739,-4.3026,-4.4303,-4.5584,-4.6594,-4.7251,-4.7309,-4.7309,-4.7309,-4.6682,-4.5779,-4.4503,-4.3218,-4.1936,-4.0693,-4.2558,-4.3504,-4.3504,-4.5403,-4.6344,-4.6358,-4.7019,-4.7309,-2.5965,-2.5502,-2.5578,-2.5598,-2.4845,-2.4336,0.0,0.0,0.0,-2.6666,0.0,0.0,0.0,0.0,0.0,0.0,0.0,0.0,0.0,-2.9993,0.0,-3.1198,-3.1336,-3.1562,-3.2001,-3.1964,-3.219,-3.2855,-3.2817,-3.3043,-3.3709,-3.3746,-3.3985,-3.455,-3.4562,-3.4781,-3.5332,-3.5445,-3.5768,-3.6207,-3.6355,-3.6405,-3.6405,-3.6405,-3.6405,-3.6405,-3.6405,-3.6786,-3.7477,-3.874,-4.0621,-4.2866,-4.4552,-4.6049,-4.7309,-4.7309,-4.7309,-4.7309,-4.7309,-4.7164,-4.6785,-4.5734,-4.507,-4.4256,-4.2217,-4.0693,-3.9697,-3.9697,-3.9697,-3.9697,-3.9697,-3.9697,-3.9697,-3.9697,-3.9697,-3.9697,-3.9697,-3.9697,-3.9697,-3.9697,-3.9697,-3.9697,-3.9697,-3.9697,-3.9697,-3.9697,-3.9929,-4.0465,-4.1455,-4.293,-4.4256,-4.5298,-4.6535,-4.7309,-4.7309,-4.7309,-4.7207,-4.6975,-4.5973,-4.4734,-4.3218,-4.1936,-4.0743,-3.9749,-4.2217,-4.3504,-4.3504,-4.6062,-4.7309,-4.7309,-4.7309,-4.7164,-2.8172,-2.8048,-2.796,-2.6076,-2.6578,-2.6703,-2.3502,0.0,-2.5008,-2.3898,0.0,0.0,0.0,0.0,0.0,0.0,0.0,0.0,-2.6864,-2.7404,-2.8486,-3.047,-3.111,-3.1411,-3.1474,-3.1072,-3.1223,-3.224,-3.1851,-3.2051,-3.3119,-3.3212,-3.342,-3.3972,-3.3985,-3.4261,-3.4768,-3.5257,-3.552,-3.5596,-3.6119,-3.6405,-3.6405,-3.6405,-3.6405,-3.6405,-3.6405,-3.7015,-3.8116,-3.9866,-4.1369,-4.274,-4.4004,-4.5669,-4.7309,-4.7309,-4.7309,-4.7309,-4.7309,-4.655,-4.5584,-4.5448,-4.3882,-4.1985,-4.169,-4.0693,-3.9697,-3.9697,-3.9697,-3.9697,-3.9697,-3.9697,-3.9697,-3.9697,-3.9697,-3.9697,-3.9697,-3.9697,-3.9697,-3.9697,-3.9697,-3.9697,-3.9697,-3.9697,-3.9697,-3.9697,-4.0642,-4.1455,-4.1604,-4.3693,-4.5252,-4.5403,-4.6535,-4.7309,-4.7309,-4.7309,-4.6829,-4.5689,-4.5494,-4.4303,-4.1936,-4.0605,-3.9839,-3.9697,-4.2217,-4.3504,-4.3504,-4.6062,-4.7309,-4.7309,-4.7309,-4.6682,-2.8504,-2.8511,-2.8512,-2.6967,-2.6866,-2.664,-2.4669,-2.4192,-2.4343,-2.4946,0.0,0.0,0.0,0.0,0.0,0.0,-2.5799,0.0,0.0,0.0,-2.7394,0.0,0.0,0.0,-3.0369,-3.0557,-3.0934,-3.1675,-3.1235,-3.1424,-3.2516,-3.1902,-3.2117,-3.3407,-3.2714,-3.2929,-3.4236,-3.4474,-3.4868,-3.5495,-3.578,-3.6056,-3.6405,-3.6405,-3.6405,-3.6405,-3.6405,-3.707,-3.8211,-3.9663,-4.1209,-4.2722,-4.3897,-4.5304,-4.6785,-4.7174,-4.7309,-4.7207,-4.6447,-4.5824,-4.5161,-4.3693,-4.1985,-4.0503,-4.0503,-4.0121,-3.9697,-3.9697,-3.9077,-3.8413,-3.8413,-3.8413,-3.8413,-3.8413,-3.9077,-3.9697,-3.9697,-3.9697,-3.9697,-3.9697,-3.9697,-3.9697,-3.9697,-3.9697,-3.9697,-3.9697,-4.0794,-4.1887,-4.2593,-4.4256,-4.5689,-4.6403,-4.6975,-4.7309,-4.7309,-4.6638,-4.5973,-4.5448,-4.4022,-4.2363,-4.0554,-3.9981,-4.0032,-4.0794,-4.2593,-4.3882,-4.4595,-4.6403,-4.7309,-4.7266,-4.6535,-4.5928,-2.886,-2.8863,-2.8825,-2.7442,-2.6788,-2.6223,-2.5159,-2.4311,-2.4268,-2.5921,-2.5636,0.0,0.0,0.0,-2.5523,-2.5586,0.0,-2.5498,0.0,-2.5556,0.0,0.0,0.0,0.0,0.0,-2.9553,-3.0043,-3.0884,-3.0457,-3.0563,-3.1484,-3.112,-3.1375,-3.2376,-3.1979,-3.2335,-3.3671,-3.3822,-3.4299,-3.5056,-3.5357,-3.5708,-3.6144,-3.6329,-3.6405,-3.6405,-3.6405,-3.7243,-3.8649,-3.9536,-4.1057,-4.2909,-4.3887,-4.502,-4.6127,-4.68,-4.6913,-4.6638,-4.5734,-4.4918,-4.4022,-4.1789,-4.0453,-3.9697,-3.9697,-3.9697,-3.9697,-3.9697,-3.8635,-3.7518,-3.7518,-3.7518,-3.7518,-3.7518,-3.8635,-3.9697,-3.9697,-3.9697,-3.9697,-3.9697,-3.9697,-3.9697,-3.9697,-3.9981,-4.0224,-4.0224,-4.1604,-4.2978,-4.3882,-4.5115,-4.6299,-4.7207,-4.7309,-4.7309,-4.7309,-4.6107,-4.5115,-4.4396,-4.2315,-4.0642,-3.9736,-3.9697,-4.0313,-4.1604,-4.2834,-4.4116,-4.5403,-4.6682,-4.7121,-4.6785,-4.5824,-4.5207,-2.9741,-2.9754,-2.9239,-2.7065,-2.6512,-2.5921,-2.3672,-2.4374,-2.5536,-2.5598,-2.6879,-2.7984,-2.8047,-2.7582,-2.6854,-2.5774,-2.5598,0.0,0.0,0.0,0.0,0.0,0.0,0.0,0.0,-2.7695,-2.8072,-2.9716,-2.9302,-2.9213,-2.984,-3.1316,-3.1697,-3.0714,-3.2198,-3.3081,-3.3149,-3.3633,-3.3922,-3.396,-3.4994,-3.5508,-3.5545,-3.6119,-3.6405,-3.6405,-3.6405,-3.7691,-3.9855,-3.9899,-4.1239,-4.3339,-4.4022,-4.4721,-4.5409,-4.6097,-4.5961,-4.5448,-4.5403,-4.3787,-4.1505,-4.0173,-3.9749,-3.9697,-3.9697,-3.9697,-3.9697,-3.9697,-3.8635,-3.7518,-3.7518,-3.7518,-3.7518,-3.7518,-3.8635,-3.9697,-3.9697,-3.9697,-3.9697,-3.9697,-3.9697,-3.9697,-3.9697,-4.0693,-4.1555,-4.1555,-4.3693,-4.5298,-4.5358,-4.6447,-4.7251,-4.7309,-4.7309,-4.7309,-4.7309,-4.6107,-4.4349,-4.1887,-4.0503,-3.9736,-3.9697,-3.9697,-4.0313,-4.1604,-4.2834,-4.4116,-4.5403,-4.6682,-4.6682,-4.5448,-4.5403,-4.4734,-3.0846,-3.1122,-3.0871,-2.8649,-2.7821,-2.6967,-2.4725,-2.4946,-2.5598,-2.5598,-2.6929,-2.8109,-2.8109,-2.7657,-2.7077,-2.6323,-2.5548,-2.4695,0.0,0.0,0.0,0.0,0.0,0.0,0.0,0.0,-2.767,-2.8612,-2.8499,-2.8962,-3.0248,-3.0089,-3.0462,-3.1618,-3.1418,-3.1871,-3.3068,-3.3257,-3.3533,-3.3909,-3.4274,-3.4793,-3.5508,-3.5683,-3.6019,-3.6405,-3.6405,-3.7736,-3.9899,-3.9899,-4.1225,-4.3319,-4.3544,-4.3586,-4.3652,-4.4661,-4.5183,-4.5161,-4.3456,-4.1789,-4.0262,-3.9839,-3.9697,-3.9697,-3.9697,-3.9025,-3.8243,-3.8243,-3.6487,-3.4615,-3.4615,-3.5332,-3.6054,-3.6054,-3.7926,-3.9697,-3.9697,-3.9697,-3.9697,-3.9697,-3.9697,-3.9697,-3.9697,-4.1455,-4.2544,-4.1739,-4.3787,-4.5403,-4.5403,-4.6491,-4.7309,-4.7309,-4.7309,-4.6975,-4.6107,-4.4116,-4.2168,-4.0453,-3.9929,-3.9697,-3.9697,-4.0503,-4.1555,-4.2834,-4.4116,-4.5403,-4.6638,-4.7062,-4.6638,-4.5403,-4.4549,-4.3456,-3.1386,-3.165,-3.1486,-2.9691,-2.8963,-2.8172,-2.6163,-2.6264,-2.6779,-2.6779,-2.7808,-2.8762,-2.8963,-2.8373,-2.7557,-2.665,-2.5686,-2.4537,0.0,-2.2368,0.0,0.0,0.0,0.0,0.0,0.0,-2.659,-2.772,-2.7632,-2.8088,-2.9345,-2.9455,-3.0012,-3.1292,-3.1138,-3.1688,-3.3068,-3.3124,-3.3257,-3.3608,-3.3809,-3.4274,-3.4919,-3.532,-3.5683,-3.6081,-3.6329,-3.7736,-3.9899,-3.9899,-4.1225,-4.325,-4.286,-4.2685,-4.271,-4.3674,-4.4055,-4.374,-4.1654,-4.0415,-3.9697,-3.9697,-3.9697,-3.9581,-3.9077,-3.8243,-3.7412,-3.6865,-3.4947,-3.3247,-3.3744,-3.457,-3.5453,-3.5945,-3.7926,-3.9697,-3.9697,-3.9697,-3.9697,-3.9697,-3.9697,-3.9697,-3.9697,-4.1455,-4.2544,-4.1739,-4.4163,-4.5928,-4.5448,-4.6491,-4.7309,-4.7309,-4.6873,-4.5928,-4.421,-4.2558,-4.1082,-3.9788,-3.9697,-3.9697,-3.9697,-4.0503,-4.1739,-4.3456,-4.4303,-4.5584,-4.7309,-4.7309,-4.6403,-4.4688,-4.3882,-4.2544]}]]